     2              OBSERVATION DATA    GPS                 RINEX VERSION / TYPE
teqc 2000Feb29 simon 20000627 23:52:18UTC                   PGM / RUN BY / DATE
                                                            COMMENT
L2: 1 -> 1; 150 -> 5; 250 -> 9                              COMMENT
L2: 1 -> 1; 150 -> 5; 250 -> 9                              COMMENT
L2: 1 -> 1; 150 -> 5; 250 -> 9                              COMMENT
L2: 1 -> 1; 150 -> 5; 250 -> 9                              COMMENT
L2: 1 -> 1; 150 -> 5; 250 -> 9                              COMMENT
Original Marker Name: GS07                                  COMMENT
Campaign Name: China Lake April 2000                        COMMENT
4-Character Station Name: GS07                              COMMENT
6-Character Antenna Code: ASHGD3                            COMMENT
Vertical Measurement Point: TGP                             COMMENT
Vertical Offset to Rinex Ref. Point: 0.0640                 COMMENT
Radial Measurement Point: RRP                               COMMENT
Radial Offset to Rinex Ref. Point: 0.0000                   COMMENT
Antenna Height from Field Measurement: 0.2540 m             COMMENT
Additional Antenna Identification Info.:                    COMMENT
The Whopper (700718AB)                                      COMMENT
Original XYZ: -2358754.0900 -4593773.0700 3731872.3300      COMMENT
New XYZ position is based on association with SCEC monument COMMENT
E1F4P3G0+0011. Position of that monument is believed to be  COMMENT
valid to within 1 m horizontally; vertical accuracy         COMMENT
should be no worse than 3-times this value.                 COMMENT
                                                            COMMENT
Revised Rinex header created by UCSD GPS archive for        COMMENT
GSAC on 14-Sep-2001 (2001:257) 21:27:10 GMT                 COMMENT
For assistance contact dagnew@ucsd.edu                      COMMENT
or anderson@python.ucsd.edu                                 COMMENT
                                                            COMMENT
GO07                                                        MARKER NAME
gs07                                                        MARKER NUMBER
NLT US NATIONAL IMAGERY MAPPING AGENCY                      OBSERVER / AGENCY
486 ASHTECH Z-XII3 4J30                                     REC # / TYPE / VERS
112 ASHTECH GEODETIC III                                    ANT # / TYPE
 -2358923.1421 -4594204.2963  3731821.0505                  APPROX POSITION XYZ
        0.1900        0.0000        0.0000                  ANTENNA: DELTA H/E/N
     1     1     0                                          WAVELENGTH FACT L1/2
     7    L1    L2    C1    P1    P2    S1    S2            # / TYPES OF OBSERV
    30                                                      INTERVAL
  2000     5     3    15    19    0.000000                  TIME OF FIRST OBS
  2000     5     3    21    29   60.000000                  TIME OF LAST OBS
                                                            END OF HEADER
 00  5  3 15 19  0.0000000  0  5G 2G26G 4G 7G 9
     -8435.36249     -4848.12847  19213942.607    19213944.212    19213953.785
       237.000         204.000
     19013.44659      9598.29956  21111367.617    21111370.980    21111381.302
       226.000         177.000
     -6372.93053                  19888006.964
       227.000          74.000
     -9862.95959     -5692.60557  18356370.923    18356373.519    18356381.398
       234.000         203.000
     -5722.30553                  20311861.065
       231.000          74.000
 00  5  3 15 19 30.0000000  0  5G 2G26G 4G 7G 9
    -17682.72449    -12053.97147  19212183.853    19212184.402    19212194.018
       238.000         204.000
     45800.24059     30470.97946  21116467.204    21116469.031    21116478.866
       226.000         177.000
   -171711.51359   -107909.77256  19863221.374    19863223.241    19863232.671
       229.000         183.000
    -20653.23649    -14100.66747  18354319.182    18354320.121    18354328.156
       233.000         203.000
   -152422.09159    -96848.95157  20289611.748    20289613.693    20289623.796
       231.000         192.000
 00  5  3 15 20  0.0000000  0  5G 2G26G 4G 7G 9
    -26727.19049    -19101.69447  21608802.990    21608803.206    21608812.547
       239.000         205.000
     72851.06349     51549.39946  23519955.059    23519956.185    23519966.231
       225.000         176.000
   -301721.36649   -209216.12246  22236821.744    22236822.800    22236832.363
       229.000         184.000
    -31133.10049    -22266.85347  20750665.070    20750665.528    20750673.548
       233.000         203.000
   -269035.12149   -187716.25047  22665761.461    22665762.509    22665772.612
       230.000         191.000
 00  5  3 15 20 30.0000000  0  5G 2G26G 4G 7G 9
    -35576.08849    -25997.02047  21607119.429    21607119.479    21607128.674
       240.000         204.000
    100174.49049     72840.23746  23525154.799    23525155.668    23525165.782
       227.000         177.000
   -431503.41449   -310344.96346  22212125.238    22212125.996    22212135.660
       232.000         183.000
    -41312.41849    -30198.84847  20748728.324    20748728.533    20748736.509
       236.000         203.000
   -385377.98149   -278372.98947  22643622.587    22643623.329    22643633.399
       235.000         193.000
 00  5  3 15 21  0.0000000  0  5G 2G26G 4G 7G 9
    -44248.98149    -32755.19247  21605469.255    21605469.183    21605478.321
       239.000         204.000
    127737.99349     94318.15146  23530400.258    23530401.006    23530410.999
       228.000         176.000
   -561042.79649   -411284.70946  22187474.761    22187475.418    22187485.112
       228.000         183.000
    -51212.74349    -37913.43547  20746844.554    20746844.584    20746852.592
       234.000         204.000
   -501439.78849   -368810.72847  22621537.011    22621537.574    22621547.676
       233.000         192.000
 00  5  3 15 21 30.0000000  0  5G 2G26G 4G 7G 9
    -52746.98649    -39377.09947  21603852.352    21603852.150    21603861.267
       240.000         205.000
    155537.17449    115979.71446  23535690.706    23535691.190    23535701.058
       227.000         176.000
   -690337.89049   -512034.08746  22162870.852    22162871.373    22162881.035
       232.000         184.000
    -60837.04849    -45412.94447  20745013.281    20745013.201    20745021.221
       234.000         204.000
   -617219.65949   -459028.79047  22599505.093    22599505.491    22599515.467
       233.000         193.000
 00  5  3 15 22  0.0000000  0  6G 2G26G 4G 7G 8G 9
    -60993.81849    -45803.27447  21602283.236    21602282.926    21602291.991
       240.000         205.000
    183644.62949    137881.49146  23541039.605    23541039.975    23541049.838
       226.000         176.000
   -819310.08949   -612531.87246  22138328.345    22138328.816    22138338.440
       230.000         186.000
    -70111.47949    -52639.83047  20743248.530    20743248.367    20743256.370
       234.000         203.000
    143537.76355                  23966622.937                    23966635.519
       203.000         150.000
   -732639.87149   -548966.57747  22577541.377    22577541.742    22577551.775
       232.000         192.000
 00  5  3 15 22 30.0000000  0  6G 2G26G 4G 7G 8G 9
    -68993.86149    -52037.15247  21600761.031    21600760.651    21600769.671
       239.000         205.000
    212052.65549    160017.48546  23546445.630    23546445.896    23546455.799
       224.000         175.000
   -947961.16449   -712779.39546  22113846.985    22113847.359    22113856.961
       232.000         187.000
    -79042.36849    -59599.02447  20741549.139    20741548.897    20741556.896
       235.000         204.000
    295015.97649    202059.04345  23980914.637    23980914.930    23980926.677
       199.000         150.000
   -847702.85349   -638626.02047  22555645.780    22555646.034    22555655.973
       233.000         192.000
 00  5  3 15 23  0.0000000  0  6G 2G26G 4G 7G 8G 9
    -76773.76249    -58099.49347  21599280.678    21599280.236    21599289.225
       240.000         202.000
    240730.90449    182364.03246  23551903.015    23551903.245    23551913.192
       225.000         175.000
  -1076315.69749   -812795.85946  22089422.021    22089422.335    22089431.892
       234.000         184.000
    -87658.82549    -66313.20747  20739909.602    20739909.285    20739917.295
       236.000         203.000
    370251.10659    260683.66555  23995231.454    23995230.889    23995243.504
       202.000         147.000
   -962433.74049   -728026.68447  22533813.313    22533813.461    22533823.434
       233.000         191.000
 00  5  3 15 23 30.0000000  0  6G 2G26G 4G 7G 8G 9
    -84377.54849    -64024.59247  21597833.783    21597833.313    21597842.317
       238.000         202.000
    269632.22149    204884.41946  23557402.837    23557403.037    23557413.055
       224.000         174.000
  -1204415.03149   -912613.46446  22065045.595    22065045.863    22065055.389
       230.000         185.000
    -96006.90349    -72818.24047  20738321.154    20738320.741    20738328.746
       234.000         203.000
    445572.09549    319375.22745  24009564.580    24009564.120    24009576.844
       200.000         149.000
  -1076874.52849   -817201.27347  22512035.950    22512036.062    22512046.082
       232.000         192.000
 00  5  3 15 24  0.0000000  0  6G 2G26G 4G 7G 8G 9
    -91995.02849    -69960.37447  21596384.275    21596383.790    21596392.810
       238.000         202.000
    298563.13549    227427.84646  23562908.186    23562908.421    23562918.579
       226.000         174.000
  -1332446.56449  -1012378.23446  22040681.955    22040682.251    22040691.785
       232.000         185.000
   -104278.64049    -79263.82447  20736747.141    20736746.707    20736754.722
       235.000         203.000
    520786.29949    377983.45845  24023877.541    24023877.377    24023889.748
       204.000         140.000
  -1191213.41649   -906296.49247  22490278.121    22490278.140    22490288.078
       234.000         191.000
 00  5  3 15 24 30.0000000  0  6G 2G26G 4G 7G 8G 9
    -99479.84449    -75792.76347  21594960.028    21594959.523    21594968.533
       239.000         203.000
    327666.48649    250105.65546  23568446.422    23568446.672    23568456.893
       224.000         176.000
  -1460261.65749  -1111974.36246  22016359.522    22016359.819    22016369.393
       231.000         186.000
   -112329.84849    -85537.55647  20735215.182    20735214.672    20735222.716
       236.000         205.000
    596037.32549    436620.57945  24038197.583    24038197.521    24038209.259
       202.000         146.000
  -1305302.25649   -995196.83947  22468567.636    22468567.711    22468577.680
       231.000         192.000
 00  5  3 15 25  0.0000000  0  7G 2G26G 4G24G 7G 8G 9
   -106811.01849    -81505.43547  21593565.085    21593564.519    21593573.505
       239.000         203.000
    356959.88549    272931.54646  23574021.048    23574021.150    23574031.383
       225.000         175.000
  -1587836.78449  -1211383.47546  21992082.687    21992083.031    21992092.618
       232.000         186.000
   -280630.06155                  24610699.841                    24610717.079
       197.000         142.000
   -120141.71649    -91624.76947  20733728.714    20733728.173    20733736.223
       236.000         203.000
    671343.44949    495300.45345  24052528.155    24052527.947    24052539.712
       211.000         150.000
  -1419118.19049  -1083884.55747  22446909.134    22446909.231    22446919.184
       231.000         191.000
 00  5  3 15 25 30.0000000  0  7G 2G26G 4G24G 7G 8G 9
   -113962.71649    -87078.24447  21592204.254    21592203.668    21592212.662
       239.000         204.000
    386465.42949    295922.74846  23579635.989    23579635.982    23579646.232
       225.000         175.000
  -1715143.82449  -1310583.68446  21967856.964    21967857.283    21967866.875
       230.000         186.000
   -527115.60149   -394758.19345  24582828.896    24582830.236    24582844.305
       200.000         136.000
   -127690.66749    -97507.11447  20732292.245    20732291.699    20732299.765
       235.000         203.000
    746727.45249    554041.13045  24066873.552    24066873.160    24066884.883
       211.000         149.000
  -1532633.89449  -1172338.32247  22425307.877    22425307.924    22425317.882
       234.000         194.000
 00  5  3 15 26  0.0000000  0  7G 2G26G 4G24G 7G 8G 9
   -120926.31449    -92504.48747  21590879.248    21590878.630    21590887.614
       239.000         204.000
    416188.30449    319083.28346  23585292.186    23585292.165    23585302.442
       226.000         176.000
  -1842171.64149  -1409566.33946  21943684.360    21943684.675    21943694.237
       231.000         187.000
   -673653.36059   -508943.24655  24554944.177    24554945.027    24554960.743
       204.000         135.000
   -134970.32949   -103179.63247  20730907.067    20730906.474    20730914.545
       235.000         204.000
    822195.41149    612847.23445  24081234.786    24081234.328    24081246.052
       212.000         147.000
  -1645838.90949  -1260549.98547  22403765.722    22403765.726    22403775.673
       232.000         192.000
 00  5  3 15 26 30.0000000  0  7G 2G26G 4G24G 7G 8G 9
   -127672.07349    -97760.97147  21589595.700    21589595.040    21589604.012
       239.000         203.000
    446154.95049    342433.78746  23590994.807    23590994.740    23591005.033
       225.000         174.000
  -1968888.08649  -1508306.36547  21919571.040    21919571.328    21919580.827
       232.000         188.000
   -820232.46149   -623160.54145  24527051.476    24527051.382    24527066.927
       204.000         135.000
   -141952.98649   -108620.71647  20729578.415    20729577.796    20729585.837
       235.000         204.000
    897774.27149    671739.73245  24095617.082    24095616.631    24095628.359
       209.000         153.000
  -1758701.73049  -1348495.04147  22382288.819    22382288.696    22382298.523
       233.000         192.000
 00  5  3 15 27  0.0000000  0  7G 2G26G 4G24G 7G 8G 9
   -134207.80749   -102853.80547  21588352.116    21588351.436    21588360.339
       240.000         202.000
    476353.96849    365965.34546  23596741.610    23596741.514    23596751.846
       226.000         174.000
  -2095298.64649  -1606808.01347  21895515.854    21895516.197    21895525.699
       233.000         188.000
   -966858.74249   -737414.55645  24499149.501    24499149.489    24499164.471
       204.000         133.000
   -148648.80249   -113838.30547  20728304.258    20728303.648    20728311.731
       235.000         203.000
    973453.37449    730710.23245  24110018.331    24110017.911    24110029.773
       210.000         161.000
  -1871228.34249  -1436178.09047  22360875.709    22360875.562    22360885.446
       235.000         192.000
 00  5  3 15 27 30.0000000  0  7G 2G26G 4G24G 7G 8G 9
   -140528.68349   -107779.22147  21587149.358    21587148.691    21587157.588
       238.000         203.000
    506786.74049    389679.05646  23602532.832    23602532.758    23602543.159
       225.000         174.000
  -2221395.95949  -1705065.59547  21871520.368    21871520.684    21871530.203
       232.000         189.000
  -1113525.21848   -851699.89844  24471239.531    24471239.617    24471254.727
       194.000         129.000
   -155054.86049   -118830.09647  20727085.329    20727084.687    20727092.779
       233.000         204.000
   1049234.86049    789760.54846  24124439.136    24124438.693    24124450.667
       211.000         163.000
  -1983412.25949  -1523594.12547  22339527.852    22339527.683    22339537.490
       234.000         192.000
 00  5  3 15 28  0.0000000  0  7G 2G26G 4G24G 7G 8G 9
   -146647.27349   -112547.01847  21585985.129    21585984.449    21585993.378
       240.000         204.000
    537437.24249    413562.42046  23608365.516    23608365.470    23608375.925
       225.000         174.000
  -2347190.24149  -1803087.05147  21847582.538    21847582.843    21847592.317
       231.000         188.000
  -1260242.62149   -966024.89045  24443319.956    24443320.128    24443335.253
       204.000         132.000
   -161186.03649   -123607.68647  20725918.663    20725918.006    20725926.086
       235.000         204.000
   1125103.57349    848878.85345  24138876.610    24138876.142    24138888.115
       206.000         157.000
  -2095264.27149  -1610751.53547  22318243.243    22318242.994    22318252.731
       232.000         192.000
 00  5  3 15 28 30.0000000  0  7G 2G26G 4G24G 7G 8G 9
   -152525.33949   -117127.39647  21584866.650    21584865.966    21584874.937
       238.000         203.000
    568340.11749    437642.43946  23614246.276    23614246.198    23614256.681
       223.000         173.000
  -2472640.68649  -1900840.59747  21823710.007    21823710.359    21823719.833
       231.000         188.000
  -1406970.69649  -1080358.38344  24415398.461    24415398.521    24415413.702
       202.000         128.000
   -167006.22549   -128142.94547  20724811.214    20724810.520    20724818.623
       234.000         203.000
   1201094.74249    908092.56045  24153337.526    24153336.920    24153348.861
       198.000         144.000
  -2206744.52249  -1697619.24247  22297029.025    22297028.929    22297038.694
       233.000         192.000
 00  5  3 15 29  0.0000000  0  7G 2G26G 4G24G 7G 8G 9
   -158180.05149   -121533.72447  21583790.642    21583789.973    21583798.967
       239.000         203.000
    599474.73049    461903.02846  23620171.068    23620171.037    23620181.522
       223.000         173.000
  -2597762.33949  -1998337.92847  21799900.035    21799900.431    21799909.935
       231.000         188.000
  -1553724.83749  -1194712.11245  24387472.152    24387472.107    24387487.182
       203.000         134.000
   -172534.87949   -132451.05147  20723759.150    20723758.493    20723766.628
       235.000         204.000
   1277188.34358    967386.10754  24167817.712    24167817.037    24167829.090
       186.000         124.000
  -2317868.22149  -1784209.13447  22275882.931    22275882.827    22275892.506
       232.000         193.000
 00  5  3 15 29 30.0000000  0  7G 2G26G 4G24G 7G 8G 9
   -163619.92249   -125772.65147  21582755.584    21582754.893    21582763.909
       240.000         204.000
    630829.08249    486334.84146  23626137.676    23626137.669    23626148.213
       224.000         173.000
  -2722561.20049  -2095583.73047  21776151.515    21776151.942    21776161.455
       234.000         189.000
  -1700511.27349  -1309091.01045  24359539.655    24359539.515    24359554.568
       208.000         138.000
   -177782.63249   -136540.27847  20722760.592    20722759.925    20722768.082
       236.000         203.000
   1353373.41948   1026750.90244  24182315.346    24182314.998    24182326.542
       179.000         108.000
  -2428642.17149  -1870526.48447  22254803.286    22254803.218    22254812.945
       236.000         194.000
 00  5  3 15 30  0.0000000  0  7G 2G26G 4G24G 7G 8G 9
   -168828.53649   -129831.38147  21581764.532    21581763.810    21581772.868
       242.000         204.000
    662415.93749    510947.82146  23632148.570    23632148.544    23632159.162
       225.000         172.000
  -2847018.51849  -2192563.40347  21752468.086    21752468.508    21752477.970
       233.000         189.000
  -1847311.78249  -1423480.93345  24331604.416    24331604.299    24331619.420
       206.000         135.000
   -182735.35549   -140399.60847  20721818.124    20721817.504    20721825.668
       237.000         203.000
                   1086198.30254  24196833.099
       169.000          97.000
  -2539048.46049  -1956557.35447  22233793.853    22233793.680    22233803.327
       236.000         193.000
 00  5  3 15 30 29.9990000  0  6G 2G26G 4G24G 7G 9
   -173767.00849   -133679.59547  21580824.873    21580824.140    21580833.220
       241.000         204.000
    694269.55949    535768.68346  23638210.324    23638210.189    23638220.854
       222.000         173.000
  -2971089.13549  -2289241.74447  21728858.224    21728858.630    21728868.085
       233.000         189.000
  -1994080.58349  -1537846.15045  24303675.115    24303675.042    24303690.161
       206.000         141.000
   -187356.34449   -144000.43447  20720938.868    20720938.211    20720946.368
       237.000         204.000
  -2649042.84749  -2042267.24147  22212862.504    22212862.399    22212872.114
       234.000         194.000
 00  5  3 15 30 59.9990000  0  6G 2G26G 4G24G 7G 9
   -178449.75449   -137328.54047  21579933.879    21579933.137    21579942.224
       240.000         203.000
    726374.42649    560785.29946  23644319.871    23644319.679    23644330.361
       223.000         172.000
  -3094793.18849  -2385634.47047  21705318.090    21705318.499    21705327.976
       232.000         190.000
  -2140839.59249  -1652203.70445  24275747.640    24275747.670    24275762.626
       200.000         136.000
   -191662.22149   -147355.73547  20720119.553    20720118.891    20720127.071
       236.000         204.000
  -2758645.04949  -2127671.53847  22192005.919    22192005.806    22192015.525
       234.000         194.000
 00  5  3 15 31 29.9990000  0  6G 2G26G 4G24G 7G 9
   -182891.59149   -140789.76747  21579088.689    21579087.966    21579097.027
       242.000         202.000
    758710.94849    585982.43446  23650473.509    23650473.277    23650483.950
       226.000         170.000
  -3218139.08949  -2481748.10947  21681846.162    21681846.550    21681855.966
       234.000         188.000
  -2287596.88949  -1766559.96545  24247820.598    24247820.561    24247835.534
       205.000         139.000
   -195670.06949   -150478.79847  20719356.984    20719356.299    20719364.472
       238.000         203.000
  -2867864.77349  -2212777.79847  22171222.063    22171222.005    22171231.752
       235.000         193.000
 00  5  3 15 31 59.9990000  0  6G 2G26G 4G24G 7G 9
   -187056.88549   -144035.49447  21578296.120    21578295.407    21578304.476
       239.000         203.000
    791311.46049    611385.28246  23656677.394    23656677.078    23656687.759
       223.000         171.000
  -3341088.30249  -2577552.64747  21658449.669    21658450.062    21658459.436
       232.000         189.000
  -2434314.52749  -1880885.25545  24219901.109    24219901.101    24219915.981
       201.000         136.000
   -199346.07949   -153343.27647  20718657.512    20718656.837    20718665.019
       236.000         204.000
  -2976664.40649  -2297556.69447  22150518.064    22150518.067    22150527.897
       235.000         194.000
 00  5  3 15 32 29.9990000  0  6G 2G26G 4G24G 7G 9
   -190967.82649   -147083.04447  21577551.897    21577551.219    21577560.341
       238.000         202.000
    824150.12749    636973.71446  23662926.520    23662926.180    23662936.877
       223.000         170.000
  -3463661.07049  -2673063.84747  21635124.646    21635125.176    21635134.567
       231.000         188.000
  -2581012.92149  -1995195.61845  24191985.131    24191985.206    24192000.199
       203.000         134.000
   -202714.67849   -155968.21547  20718016.513    20718015.854    20718024.051
       236.000         204.000
  -3085064.51849  -2382024.29147  22129890.370    22129890.279    22129900.025
       235.000         194.000
 00  5  3 15 32 59.9990000  0  6G 2G26G 4G24G 7G 9
   -194601.49049   -149914.54647  21576860.517    21576859.818    21576868.971
       239.000         203.000
    857246.50949    662762.94646  23669224.623    23669224.321    23669235.027
       222.000         171.000
  -3585832.26149  -2768262.14747  21611876.227    21611876.715    21611886.111
       231.000         190.000
  -2727666.90749  -2109471.35445  24164077.576    24164077.877    24164092.776
       205.000         137.000
   -205755.19749   -158337.51247  20717438.027    20717437.350    20717445.553
       237.000         204.000
  -3193040.56849  -2466161.43947  22109343.187    22109343.101    22109352.888
       234.000         194.000
 00  5  3 15 33 29.9990000  0  6G 2G26G 4G24G 7G 9
   -197941.96049   -152517.57047  21576224.922    21576224.219    21576233.386
       241.000         203.000
    890612.80349    688762.50746  23675573.938    23675573.788    23675584.564
       221.000         170.000
  -3707583.30749  -2863133.05047  21588707.734    21588708.227    21588717.634
       232.000         191.000
  -2874258.54849  -2223698.55745  24136182.227    24136182.320    24136197.146
       208.000         138.000
   -208453.73449   -160440.31947  20716924.618    20716923.912    20716932.083
       237.000         204.000
  -3300574.74649  -2549954.28347  22088880.133    22088880.042    22088889.741
       235.000         195.000
 00  5  3 15 33 59.9990000  0  6G 2G26G 4G24G 7G 9
   -201019.67349   -154915.84947  21575639.358    21575638.629    21575647.767
       241.000         203.000
    924215.08549    714945.94446  23681968.383    23681968.208    23681979.015
       221.000         168.000
  -3828942.59449  -2957698.69747  21565613.959    21565614.341    21565623.697
       238.000         191.000
  -3020816.25849  -2337899.35045  24108293.559    24108293.331    24108308.027
       211.000         137.000
   -210843.19649   -162302.29647  20716470.019    20716469.283    20716477.481
       238.000         205.000
  -3407695.88249  -2633425.26147  22068495.617    22068495.550    22068505.285
       236.000         195.000
 00  5  3 15 34 29.9990000  0  6G 2G26G 4G24G 7G 9
   -203822.12149   -157099.63247  21575106.077    21575105.395    21575114.562
       238.000         202.000
    958062.40549    741320.32746  23688409.465    23688409.246    23688420.121
       222.000         167.000
  -3949895.08249  -3051947.37947  21542597.547    21542597.859    21542607.121
       233.000         190.000
  -3167325.37049  -2452062.18645  24080413.962    24080413.642    24080428.125
       208.000         142.000
   -212913.16949   -163915.32047  20716076.126    20716075.423    20716083.639
       236.000         204.000
  -3514389.71349  -2716563.27247  22048192.474    22048192.404    22048202.099
       235.000         195.000
 00  5  3 15 34 59.9990000  0  6G 2G26G 4G24G 7G 9
   -206374.58849   -159088.64947  21574620.354    21574619.697    21574628.952
       239.000         203.000
    992125.98749    767863.22846  23694891.621    23694891.457    23694902.366
       221.000         166.000
  -4070463.89849  -3145897.08747  21519653.973    21519654.328    21519663.569
       233.000         191.000
  -3313809.29649  -2566205.47045  24052538.766    24052538.695    24052553.055
       208.000         141.000
   -214690.96249   -165300.67347  20715737.900    20715737.192    20715745.423
       236.000         205.000
  -3620679.89949  -2799386.76747  22027966.118    22027966.046    22027975.713
       234.000         195.000
 00  5  3 15 35 29.9990000  0  7G 2G26G 4G 5G24G 7G 9
   -208641.48349   -160855.13147  21574189.086    21574188.398    21574197.683
       242.000         204.000
   1026437.90349    794599.64646  23701421.071    23701420.902    23701431.868
       222.000         166.000
  -4190610.91949  -3239518.12247  21496790.697    21496791.069    21496800.332
       237.000         191.000
  -1373731.36659  -1047815.32954  25019702.461    25019702.405    25019714.040
       198.000         128.000
  -3460230.11249  -2680299.54145  24024675.624    24024675.748    24024689.948
       207.000         141.000
   -216143.27949   -166432.41047  20715461.609    20715460.885    20715469.137
       238.000         204.000
  -3726529.28649  -2881866.77847  22007823.619    22007823.570    22007833.221
       236.000         195.000
 00  5  3 15 35 59.9990000  0  7G 2G26G 4G 5G24G 7G 9
   -210651.73249   -162421.62347  21573806.651    21573805.952    21573815.211
       241.000         202.000
   1060965.84349    821504.39846  23707991.513    23707991.455    23708002.445
       223.000         169.000
  -4310362.83249  -3332831.27547  21474002.660    21474002.994    21474012.317
       235.000         192.000
  -1495349.97049  -1142583.28845  24996559.394    24996559.125    24996570.970
       212.000         137.000
  -3606614.66949  -2794365.30945  23996819.585    23996819.672    23996833.904
       205.000         143.000
   -217301.02549   -167334.60247  20715241.296    20715240.608    20715248.881
       237.000         204.000
  -3831964.67449  -2964024.17747  21987759.901    21987759.864    21987769.497
       237.000         196.000
 00  5  3 15 36 29.9990000  0  7G 2G26G 4G 5G24G 7G 9
   -212407.00149   -163789.43847  21573472.726    21573472.008    21573481.256
       239.000         202.000
   1095704.26849    848573.14546  23714602.058    23714602.031    23714613.096
       221.000         168.000
  -4429719.32649  -3425836.30847  21451289.872    21451290.207    21451299.532
       237.000         193.000
  -1616991.36249  -1237368.96645  24973411.887    24973411.610    24973423.688
       206.000         139.000
  -3752962.77949  -2908402.71445  23968970.612    23968970.555    23968984.817
       207.000         143.000
   -218168.29649   -168010.46047  20715076.362    20715075.623    20715083.933
       237.000         204.000
  -3936986.38349  -3045859.24247  21967774.995    21967774.885    21967784.468
       236.000         195.000
 00  5  3 15 36 59.9990000  0  7G 2G26G 4G 5G24G 7G 9
   -213889.00449   -164944.33347  21573190.792    21573190.058    21573199.324
       242.000         203.000
   1130667.99049    875817.45846  23721255.518    23721255.490    23721266.612
       220.000         166.000
  -4548659.44149  -3518516.92447  21428656.429    21428656.674    21428665.974
       235.000         191.000
  -1738637.34149  -1332158.20845  24950263.488    24950263.142    24950275.732
       197.000         138.000
  -3899254.08249  -3022395.94345  23941132.330    23941132.165    23941146.445
       208.000         145.000
   -218728.93449   -168447.38847  20714969.698    20714968.978    20714977.300
       238.000         203.000
  -4041574.36449  -3127356.35047  21947872.666    21947872.477    21947881.968
       238.000         195.000
 00  5  3 15 37 29.9990000  0  7G 2G26G 4G 5G24G 7G 9
   -215102.50949   -165889.98947  21572960.016    21572959.244    21572968.494
       240.000         204.000
   1165849.02449    903231.09146  23727950.298    23727950.301    23727961.464
       219.000         166.000
  -4667185.87449  -3610875.14547  21406101.582    21406101.792    21406111.108
       234.000         192.000
  -1860292.92049  -1426954.95645  24927113.369    24927112.796    24927125.805
       202.000         135.000
  -4045490.80749  -3136346.50445  23913304.220    23913304.172    23913318.374
       210.000         145.000
   -218989.66349   -168650.60247  20714920.104    20714919.420    20714927.756
       236.000         204.000
  -4145731.64449  -3208517.82347  21928052.236    21928052.012    21928061.452
       235.000         196.000
 00  5  3 15 37 59.9990000  0  7G 2G26G 4G 5G24G 7G 9
   -216018.94149   -166604.15847  21572785.711    21572784.932    21572794.173
       240.000         203.000
   1201272.31549    930833.49746  23734691.260    23734691.255    23734702.409
       220.000         165.000
  -4785267.69249  -3702886.93547  21383631.320    21383631.565    21383640.859
       236.000         193.000
  -1981929.62249  -1521736.99145  24903966.831    24903966.293    24903979.154
       205.000         135.000
  -4191642.39649  -3250230.77945  23885492.395    23885492.409    23885506.489
       208.000         144.000
   -218924.01949   -168599.51747  20714932.576    20714931.931    20714940.308
       236.000         204.000
  -4249428.13949  -3289320.26347  21908319.442    21908319.226    21908328.666
       236.000         196.000
 00  5  3 15 38 29.9990000  0  7G 2G26G 4G 5G24G 7G 9
   -216650.24749   -167096.14347  21572665.626    21572664.877    21572674.103
       240.000         201.000
   1236922.31849    958612.57646  23741475.462    23741475.352    23741486.510
       219.000         165.000
  -4902914.71349  -3794559.91847  21361243.857    21361244.085    21361253.345
       233.000         192.000
  -2103560.06749  -1616514.12745  24880821.672    24880820.992    24880833.714
       207.000         139.000
  -4337718.81649  -3364056.49545  23857695.090    23857694.991    23857709.030
       210.000         145.000
   -218546.32849   -168305.27647  20715004.545    20715003.856    20715012.299
       237.000         205.000
  -4352674.27249  -3369771.75047  21888672.272    21888672.110    21888681.544
       235.000         196.000
 00  5  3 15 38 59.9990000  0  7G 2G26G 4G 5G24G 7G 9
   -217036.65349   -167397.30647  21572592.166    21572591.410    21572600.643
       242.000         202.000
   1272755.30149    986534.21646  23748294.387    23748294.248    23748305.417
       220.000         165.000
  -5020164.66349  -3885923.48447  21338931.910    21338932.146    21338941.408
       238.000         193.000
  -2225224.53649  -1711317.79045  24857669.867    24857669.150    24857681.981
       202.000         135.000
  -4483758.30649  -3477853.40245  23829904.682    23829904.553    23829918.606
       209.000         144.000
   -217898.90549   -167800.84747  20715127.811    20715127.116    20715135.539
       238.000         204.000
  -4455508.35149  -3449902.18047  21869103.632    21869103.465    21869112.815
       238.000         196.000
 00  5  3 15 39 29.9990000  0  7G 2G26G 4G 5G24G 7G 9
   -217162.95949   -167495.80147  21572568.223    21572567.458    21572576.703
       240.000         202.000
   1308782.81149   1014607.44046  23755150.380    23755150.204    23755161.355
       220.000         165.000
  -5137000.21749  -3976964.14847  21316698.814    21316699.068    21316708.323
       234.000         193.000
  -2346907.91649  -1806136.11745  24834514.416    24834513.561    24834526.534
       207.000         139.000
  -4629743.49149  -3591608.02045  23802124.439    23802124.478    23802138.443
       206.000         144.000
   -216968.75049   -167076.11847  20715304.878    20715304.176    20715312.624
       237.000         204.000
  -4557913.75949  -3529698.56747  21849616.570    21849616.394    21849625.709
       236.000         197.000
 00  5  3 15 39 59.9990000  0  7G 2G26G 4G 5G24G 7G 9
   -217007.46749   -167374.71447  21572597.862    21572597.096    21572606.360
       239.000         201.000
   1345023.30949   1042846.64146  23762046.789    23762046.655    23762057.842
       220.000         164.000
  -5253397.45849  -4067663.27447  21294549.130    21294549.404    21294558.669
       236.000         193.000
  -2468588.38449  -1900952.22745  24811359.670    24811358.865    24811371.830
       205.000         142.000
  -4775650.21349  -3705301.44645  23774359.110    23774359.303    23774373.261
       208.000         145.000
   -215736.20249   -166115.74747  20715539.488    20715538.786    20715547.223
       237.000         205.000
  -4659866.83649  -3609142.49047  21830215.456    21830215.323    21830224.704
       236.000         197.000
 00  5  3 15 40 29.9990000  0  7G 2G26G 4G 5G24G 7G 9
   -216558.27949   -167024.76547  21572683.332    21572682.608    21572691.926
       239.000         201.000
   1381485.24149   1071258.38546  23768985.434    23768985.257    23768996.483
       218.000         164.000
  -5369342.22649  -4158009.80747  21272485.551    21272485.805    21272495.085
       233.000         193.000
  -2590254.51849  -1995757.10845  24788207.484    24788206.730    24788219.699
       201.000         138.000
  -4921464.45249  -3818922.82445  23746611.420    23746611.693    23746625.659
       204.000         147.000
   -214191.32749   -164912.01447  20715833.601    20715832.834    20715841.281
       238.000         205.000
  -4761354.06349  -3688223.41647  21810903.005    21810902.926    21810912.285
       236.000         197.000
 00  5  3 15 40 59.9990000  0  7G 2G26G 4G 5G24G 7G 9
   -215830.58749   -166457.81647  21572821.846    21572821.116    21572830.465
       239.000         201.000
   1418149.99049   1099828.16246  23775962.808    23775962.474    23775973.768
       218.000         164.000
  -5484847.13349  -4248013.61147  21250505.685    21250505.951    21250515.229
       234.000         194.000
  -2711921.42049  -2090562.60045  24765055.376    24765054.426    24765067.508
       210.000         143.000
  -5067199.34749  -3932482.36145  23718878.821    23718879.173    23718893.156
       209.000         149.000
   -212351.47549   -163478.42847  20716183.741    20716182.992    20716191.457
       237.000         205.000
  -4862388.82049  -3766951.76847  21791676.636    21791676.632    21791686.009
       236.000         198.000
 00  5  3 15 41 29.9990000  0  7G 2G26G 4G 5G24G 7G 9
   -214804.11949   -165658.04847  21573017.215    21573016.490    21573025.862
       239.000         201.000
   1455034.20549   1128568.96945  23782981.576    23782981.416    23782992.823
       216.000         162.000
  -5599890.03249  -4337657.37747  21228613.785    21228614.009    21228623.303
       236.000         194.000
  -2833569.17349  -2185353.21645  24741907.271    24741906.118    24741919.001
       211.000         150.000
  -5212832.37949  -4045962.50945  23691165.891    23691166.065    23691180.032
       212.000         151.000
   -210198.47749   -161800.81547  20716593.507    20716592.757    20716601.224
       236.000         204.000
  -4962949.45249  -3845310.66647  21772540.570    21772540.548    21772549.922
       235.000         196.000
 00  5  3 15 41 59.9990000  0  7G 2G26G 4G 5G24G 7G 9
   -213493.34549   -164636.75347  21573266.697    21573265.970    21573275.374
       239.000         201.000
   1492119.95949   1157466.79246  23790039.056    23790038.750    23790050.219
       219.000         163.000
  -5714483.03249  -4426950.59747  21206807.489    21206807.669    21206816.971
       236.000         194.000
  -2955212.54349  -2280140.35145  24718759.051    24718758.142    24718771.299
       203.000         144.000
  -5358375.78349  -4159372.82645  23663469.941    23663470.039    23663483.967
       212.000         151.000
   -207748.98149   -159892.17147  20717059.720    20717058.933    20717067.388
       238.000         205.000
  -5063048.63849  -3923310.00247  21753492.369    21753492.299    21753501.634
       236.000         197.000
 00  5  3 15 42 29.9990000  0  7G 2G26G 4G 5G24G 7G 9
   -211907.16249   -163400.85147  21573568.550    21573567.840    21573577.314
       237.000         200.000
   1529394.79349   1186511.96646  23797132.401    23797132.050    23797143.553
       219.000         163.000
  -5828632.77949  -4515898.41947  21185085.459    21185085.689    21185094.945
       234.000         194.000
  -3076860.66249  -2374931.20645  24695609.702    24695609.057    24695622.621
       207.000         141.000
  -5503836.44749  -4272718.68645  23635789.608    23635789.729    23635803.655
       210.000         152.000
   -205014.06649   -157761.13247  20717580.157    20717579.405    20717587.891
       237.000         205.000
  -5162693.90049  -4000955.63447  21734530.512    21734530.435    21734539.754
       238.000         199.000
 00  5  3 15 42 59.9990000  0  7G 2G26G 4G 5G24G 7G 9
   -210020.09149   -161930.48847  21573927.650    21573926.977    21573936.513
       238.000         201.000
   1566880.40849   1215721.39046  23804265.756    23804265.478    23804277.017
       217.000         163.000
  -5942312.04149  -4604479.61547  21163453.045    21163453.232    21163462.463
       236.000         194.000
  -3198488.01949  -2469705.89345  24672465.209    24672464.318    24672477.849
       211.000         146.000
  -5649186.89549  -4385978.63845  23608130.299    23608130.379    23608144.327
       209.000         151.000
   -201970.49649   -155389.56647  20718159.409    20718158.643    20718167.144
       237.000         205.000
  -5261858.16449  -4078226.45347  21715660.204    21715660.093    21715669.395
       236.000         198.000
 00  5  3 15 43 29.9990000  0  7G 2G26G 4G 5G24G 7G 9
   -207852.56249   -160241.58347  21574340.196    21574339.485    21574349.098
       239.000         201.000
   1604553.24949   1245076.69145  23811434.852    23811434.502    23811446.057
       219.000         162.000
  -6055538.53549  -4692708.01747  21141906.733    21141906.940    21141916.113
       235.000         194.000
  -3320115.19349  -2564480.44345  24649320.535    24649319.571    24649333.188
       210.000         147.000
  -5794445.06549  -4499166.70745  23580488.651    23580488.622    23580502.571
       208.000         150.000
   -198640.54149   -152794.85547  20718793.059    20718792.333    20718800.874
       238.000         203.000
  -5360559.88749  -4155136.86147  21696877.810    21696877.720    21696887.053
       238.000         198.000
 00  5  3 15 43 59.9990000  0  7G 2G26G 4G 5G24G 7G 9
   -205412.99349   -158340.70047  21574804.456    21574803.773    21574813.417
       237.000         200.000
   1642401.45749   1274568.64645  23818637.278    23818636.924    23818648.524
       217.000         161.000
  -6168318.79649  -4780588.69047  21120445.330    21120445.545    21120454.690
       236.000         195.000
  -3441750.85949  -2659261.68945  24626174.580    24626173.479    24626186.724
       210.000         143.000
  -5939617.33449  -4612287.81745  23552863.296    23552863.187    23552877.123
       211.000         151.000
   -195034.74449   -149985.18847  20719479.247    20719478.530    20719487.076
       238.000         205.000
  -5458806.18449  -4231692.37447  21678182.082    21678182.026    21678191.423
       236.000         199.000
 00  5  3 15 44 29.9990000  0  7G 2G26G 4G 5G24G 7G 9
   -202706.39049   -156231.75047  21575319.559    21575318.857    21575328.538
       236.000         199.000
   1680416.33449   1304190.47745  23825871.324    23825871.015    23825882.699
       216.000         161.000
  -6280655.64649  -4868123.84847  21099068.356    21099068.556    21099077.686
       237.000         196.000
  -3563400.12849  -2754053.44345  24603025.340    24603024.370    24603037.784
       204.000         144.000
  -6084706.43849  -4725344.14945  23525253.753    23525253.599    23525267.518
       211.000         152.000
   -191160.46049   -146966.31047  20720216.592    20720215.843    20720224.393
       237.000         204.000
  -5556600.35949  -4307895.60147  21659572.508    21659572.411    21659581.830
       237.000         199.000
 00  5  3 15 44 59.9990000  0  7G 2G26G 4G 5G24G 7G 9
   -199727.58849   -153910.70447  21575886.420    21575885.721    21575895.477
       236.000         199.000
   1718599.47549   1333943.42945  23833137.171    23833137.065    23833148.837
       215.000         160.000
  -6392541.70649  -4955307.74847  21077777.175    21077777.343    21077786.483
       237.000         196.000
  -3685057.87049  -2848851.80145  24579874.804    24579873.717    24579887.404
       210.000         147.000
  -6229705.22949  -4838330.09145  23497661.129    23497661.208    23497675.117
       213.000         156.000
   -187014.48149   -143735.73047  20721005.540    20721004.819    20721013.410
       238.000         205.000
  -5653935.90649  -4383741.45747  21641050.140    21641050.051    21641059.467
       237.000         199.000
 00  5  3 15 45 29.9990000  0  7G 2G26G 4G 5G24G 7G 9
   -196498.16749   -151394.34947  21576501.041    21576500.336    21576510.086
       239.000         200.000
   1756926.14749   1363808.21045  23840430.673    23840430.505    23840442.304
       216.000         160.000
  -6503996.40149  -5042155.51947  21056567.960    21056568.211    21056577.356
       236.000         196.000
  -3806745.88349  -2943673.72645  24556718.184    24556717.336    24556731.050
       206.000         143.000
  -6374632.81349  -4951260.55945  23470082.295    23470082.346    23470096.222
       212.000         156.000
   -182620.44349   -140311.84147  20721841.861    20721841.080    20721849.652
       238.000         205.000
  -5750832.20649  -4459245.04047  21622611.377    21622611.286    21622620.720
       237.000         199.000
 00  5  3 15 45 59.9990000  0  7G 2G26G 4G 5G24G 7G 9
   -193018.89549   -148683.29947  21577163.254    21577162.510    21577172.252
       238.000         199.000
   1795391.91249   1393781.38845  23847750.483    23847750.356    23847762.258
       215.000         159.000
  -6615018.21749  -5128665.98047  21035441.166    21035441.411    21035450.573
       235.000         195.000
  -3928464.63049  -3038519.62245  24533556.037    24533555.129    24533568.816
       210.000         143.000
  -6519487.62649  -5064134.32945  23442517.328    23442517.327    23442531.170
       212.000         157.000
   -177981.05349   -136696.77347  20722724.649    20722723.926    20722732.527
       237.000         203.000
  -5847288.73649  -4534405.94947  21604256.257    21604256.184    21604265.630
       237.000         199.000
 00  5  3 15 46 29.9990000  0  7G 2G26G 4G 5G24G 7G 9
   -189278.21949   -145768.56847  21577875.147    21577874.403    21577884.157
       237.000         199.000
   1834004.99549   1423869.34245  23855098.199    23855098.239    23855110.248
       214.000         161.000
  -6725593.69549  -5214828.63647  21014399.346    21014399.591    21014408.727
       237.000         197.000
  -4050202.82149  -3133380.66345  24510390.079    24510389.238    24510402.779
       207.000         142.000
  -6664256.13749  -5176940.84745  23414968.605    23414968.718    23414982.563
       212.000         155.000
   -173086.91749   -132883.18947  20723656.109    20723655.329    20723663.909
       238.000         205.000
  -5943292.63549  -4609214.15547  21585987.272    21585987.225    21585996.667
       238.000         200.000
 00  5  3 15 46 59.9990000  0  7G 2G26G 4G 5G24G 7G 9
   -185270.61749   -142645.85047  21578637.846    21578637.081    21578646.815
       237.000         198.000
   1872767.37849   1454073.63645  23862474.412    23862474.547    23862486.633
       216.000         159.000
  -6835715.03549  -5300637.42147  20993444.014    20993444.195    20993453.264
       238.000         197.000
  -4171954.87449  -3228252.51245  24487221.566    24487220.796    24487234.082
       212.000         143.000
  -6808930.63449  -5289674.11445  23387437.849    23387437.953    23387451.813
       211.000         154.000
   -167934.55749   -128868.40447  20724636.549    20724635.819    20724644.413
       239.000         205.000
  -6038836.33249  -4683663.76047  21567805.951    21567805.865    21567815.288
       238.000         200.000
 00  5  3 15 47 29.9990000  0  7G 2G26G 4G 5G24G 7G 9
   -180989.80049   -139310.24247  21579452.532    21579451.748    21579461.471
       238.000         198.000
   1911681.92849   1484396.50645  23869879.764    23869879.882    23869891.972
       215.000         158.000
  -6945373.82049  -5386085.77847  20972576.562    20972576.799    20972585.838
       236.000         197.000
  -4293714.65949  -3323130.35345  24464051.685    24464050.808    24464064.065
       213.000         143.000
  -6953502.46049  -5402327.36245  23359926.727    23359926.780    23359940.553
       212.000         156.000
   -162519.78349   -124649.13447  20725667.053    20725666.288    20725674.900
       239.000         206.000
  -6133912.36749  -4757748.96047  21549713.548    21549713.474    21549722.856
       240.000         200.000
 00  5  3 15 47 59.9990000  0  7G 2G26G 4G 5G24G 7G 9
   -176434.98649   -135761.11547  21580319.354    21580318.574    21580328.293
       236.000         198.000
   1950746.17749   1514836.02245  23877313.576    23877313.710    23877325.807
       216.000         159.000
  -7054567.10949  -5471171.40047  20951797.696    20951797.959    20951807.002
       235.000         197.000
  -4415481.43749  -3418013.68545  24440880.351    24440879.508    24440892.720
       205.000         144.000
  -7097968.28749  -5514898.05145  23332435.726    23332435.823    23332449.454
       213.000         156.000
   -156843.67449   -120226.23347  20726747.132    20726746.404    20726755.097
       238.000         205.000
  -6228518.17849  -4831467.74147  21531710.669    21531710.562    21531719.946
       238.000         200.000
 00  5  3 15 48 29.9990000  0  7G 2G26G 4G 5G24G 7G 9
   -171608.50449   -132000.28747  21581237.902    21581237.099    21581246.818
       237.000         199.000
   1989954.37449   1545387.70545  23884774.829    23884774.846    23884787.067
       217.000         158.000
  -7163294.91549  -5555894.30247  20931107.443    20931107.709    20931116.754
       236.000         197.000
  -4537257.09049  -3512903.84145  24417707.463    24417706.435    24417719.974
       214.000         148.000
  -7242328.10749  -5627386.09445  23304964.879    23304964.990    23304978.625
       216.000         159.000
   -150910.49449   -115603.00147  20727876.299    20727875.530    20727884.176
       238.000         205.000
  -6322654.14749  -4904820.41147  21513797.179    21513797.071    21513806.421
       238.000         200.000
 00  5  3 15 48 59.9990000  0  7G 2G26G 4G 5G24G 7G 9
   -166504.73049   -128023.40547  21582209.237    21582208.403    21582218.102
       238.000         200.000
   2029308.34649   1576052.98145  23892263.998    23892263.835    23892276.040
       213.000         159.000
  -7271549.96049  -5640248.84547  20910507.185    20910507.442    20910516.473
       237.000         198.000
  -4659036.44349  -3607796.93245  24394533.969    24394532.874    24394546.406
       207.000         146.000
  -7386574.64149  -5739785.89145  23277515.572    23277515.729    23277529.307
       215.000         159.000
   -144717.03549   -110776.96447  20729054.862    20729054.118    20729062.786
       237.000         204.000
  -6416313.69449  -4977801.85647  21495974.270    21495974.208    21495983.577
       238.000         201.000
 00  5  3 15 49 29.9990000  0  7G 2G26G 4G 5G24G 7G 9
   -161126.38749   -123832.56847  21583232.839    21583231.976    21583241.666
       237.000         200.000
   2068802.22049   1606827.25645  23899779.592    23899779.440    23899791.593
       217.000         158.000
  -7379332.77049  -5724235.39147  20889996.792    20889997.038    20890006.064
       238.000         199.000
  -4780822.08749  -3702694.93945  24371359.014    24371357.884    24371371.393
       213.000         144.000
  -7530708.08049  -5852097.52745  23250087.809    23250087.922    23250101.561
       212.000         161.000
   -138267.83949   -105751.66147  20730282.098    20730281.393    20730290.094
       237.000         205.000
  -6509497.76849  -5050412.79347  21478241.885    21478241.844    21478251.203
       237.000         200.000
 00  5  3 15 49 59.9990000  0  7G 2G26G 4G 5G24G 7G 9
   -155475.15549   -119429.09047  21584308.289    21584307.445    21584317.155
       235.000         198.000
   2108430.84049   1637706.54245  23907320.849    23907320.691    23907332.842
       216.000         159.000
  -7486642.80249  -5807853.54647  20869576.419    20869576.622    20869585.594
       237.000         198.000
  -4902615.76949  -3797599.20645  24348182.605    24348181.493    24348194.934
       209.000         146.000
  -7674727.79149  -5964320.52745  23222681.563    23222681.755    23222695.470
       211.000         159.000
   -131566.65549   -100529.99447  20731557.334    20731556.629    20731565.336
       238.000         205.000
  -6602206.47949  -5122653.31747  21460599.949    21460599.928    21460609.322
       237.000         201.000
 00  5  3 15 50 29.9990000  0  7G 2G26G 4G 5G24G 7G 9
   -149539.25849   -114803.79447  21585437.887    21585437.042    21585446.819
       235.000         197.000
   2148202.34549   1668697.15745  23914889.410    23914889.105    23914901.265
       215.000         158.000
  -7593466.47149  -5891092.71547  20849248.530    20849248.733    20849257.678
       237.000         199.000
  -5024405.79349  -3892500.54745  24325006.783    24325005.748    24325019.292
       214.000         146.000
  -7818619.71849  -6076443.95145  23195299.616    23195299.911    23195313.689
       213.000         160.000
   -124603.69549    -95104.35247  20732882.356    20732881.658    20732890.415
       238.000         205.000
  -6694426.84149  -5194513.31647  21443050.950    21443050.936    21443060.327
       239.000         201.000
 00  5  3 15 50 59.9990000  0  7G 2G26G 4G 5G24G 7G 9
   -143328.78449   -109964.55047  21586619.728    21586618.911    21586628.727
       234.000         197.000
   2188103.39149   1699788.69845  23922482.561    23922482.178    23922494.338
       214.000         158.000
  -7699811.78349  -5973959.13847  20829011.631    20829011.837    20829020.780
       236.000         199.000
  -5146202.27349  -3987406.95845  24301829.650    24301828.704    24301842.189
       210.000         143.000
  -7962391.79449  -6188473.97445  23167940.616    23167940.891    23167954.641
       214.000         160.000
   -117391.24249    -89484.29447  20734254.869    20734254.184    20734262.901
       239.000         205.000
  -6786167.27549  -5265999.33447  21425593.370    21425593.315    21425602.699
       239.000         201.000
 00  5  3 15 51 29.9990000  0  7G 2G26G 4G 5G24G 7G 9
   -136825.19649   -104896.89747  21587857.378    21587856.565    21587866.393
       235.000         196.000
   2228149.14749   1730993.01545  23930103.239    23930102.785    23930114.954
       215.000         158.000
  -7805658.02349  -6056436.67547  20808869.621    20808869.898    20808878.863
       237.000         199.000
  -5267986.41649  -4082303.78045  24278654.957    24278654.030    24278667.210
       211.000         145.000
  -8106023.08549  -6300394.27245  23140608.565    23140608.699    23140622.368
       215.000         161.000
   -109912.62949    -83656.84247  20735678.057    20735677.346    20735686.100
       238.000         205.000
  -6877407.72849  -5337095.76747  21408230.935    21408230.834    21408240.164
       238.000         201.000
 00  5  3 15 51 59.9980000  0  7G 2G26G 4G 5G24G 7G 9
   -130062.14449    -99627.06147  21589144.448    21589143.616    21589153.402
       235.000         197.000
   2268301.34549   1762280.25845  23937744.165    23937743.657    23937755.813
       214.000         159.000
  -7911033.22849  -6138547.17447  20788817.427    20788817.652    20788826.606
       238.000         200.000
  -5389787.45149  -4177213.73545  24255477.358    24255476.313    24255489.467
       208.000         150.000
  -8249540.09249  -6412225.51745  23113298.043    23113298.246    23113311.828
       213.000         161.000
   -102203.54349    -77649.81347  20737145.058    20737144.353    20737153.143
       238.000         205.000
  -6968177.09149  -5407825.11747  21390958.096    21390957.985    21390967.322
       238.000         202.000
 00  5  3 15 52 29.9980000  0  7G 2G26G 4G 5G24G 7G 9
   -123043.20849    -94157.83647  21590480.145    21590479.320    21590489.152
       233.000         196.000
   2308555.55549   1793646.99445  23945404.365    23945403.918    23945416.110
       214.000         158.000
  -8015945.93249  -6220297.27847  20768853.211    20768853.412    20768862.340
       238.000         200.000
  -5511617.72849  -4272146.42045  24232293.546    24232292.781    24232306.187
       210.000         147.000
  -8392953.62449  -6523976.12045  23086007.046    23086007.417    23086020.980
       214.000         161.000
    -94269.28749    -71467.31747  20738655.007    20738654.261    20738663.020
       239.000         207.000
  -7058483.59749  -5478193.79447  21373773.325    21373773.201    21373782.556
       238.000         202.000
 00  5  3 15 52 59.9980000  0  7G 2G26G 4G 5G24G 7G 9
   -115741.98449    -88468.64947  21591869.504    21591868.715    21591878.604
       233.000         195.000
   2348933.48049   1825110.13245  23953088.221    23953087.743    23953099.924
       214.000         157.000
  -8120364.46349  -6301662.31147  20748982.955    20748983.174    20748992.053
       237.000         199.000
  -5633446.06649  -4367077.57345  24209110.295    24209109.448    24209123.272
       207.000         148.000
  -8536230.33349  -6635620.08845  23058742.247    23058742.637    23058756.179
       215.000         162.000
    -86085.47649    -65090.36947  20740212.418    20740211.649    20740220.382
       239.000         206.000
  -7148296.33749  -5548177.71847  21356682.519    21356682.369    21356691.757
       238.000         202.000
 00  5  3 15 53 29.9980000  0  7G 2G26G 4G 5G24G 7G 9
   -108190.50249    -82584.47747  21593306.556    21593305.759    21593315.677
       233.000         195.000
   2389399.58549   1856641.97745  23960788.818    23960788.310    23960800.485
       215.000         158.000
  -8224318.72849  -6382665.59547  20729201.034    20729201.284    20729210.143
       237.000         200.000
  -5755304.59949  -4462032.33145  24185921.603    24185920.626    24185934.400
       212.000         147.000
  -8679399.97349  -6747180.62946  23031497.874    23031498.209    23031511.792
       216.000         163.000
    -77686.18849    -58545.52247  20741810.840    20741810.026    20741818.757
       239.000         206.000
  -7237645.95249  -5617800.76047  21339679.802    21339679.674    21339689.079
       239.000         202.000
 00  5  3 15 53 59.9980000  0  7G 2G26G 4G 5G24G 7G 9
   -100365.69149    -76487.30647  21594795.696    21594794.854    21594804.771
       234.000         195.000
   2429973.72949   1888258.01645  23968509.968    23968509.445    23968521.673
       216.000         157.000
  -8327783.66449  -6463287.57347  20709512.260    20709512.504    20709521.381
       238.000         200.000
  -5877170.11349  -4556992.51445  24162731.334    24162730.469    24162744.052
       212.000         147.000
  -8822437.07649  -6858637.89846  23004278.915    23004279.025    23004292.616
       219.000         165.000
    -69050.45849    -51816.43847  20743454.170    20743453.392    20743462.153
       239.000         205.000
  -7326507.80749  -5687043.73147  21322769.975    21322769.821    21322779.197
       239.000         202.000
 00  5  3 15 54 29.9980000  0  7G 2G26G 4G 5G24G 7G 9
    -92249.92949    -70163.42347  21596340.161    21596339.296    21596349.229
       235.000         194.000
   2470670.15549   1919969.33145  23976254.477    23976253.846    23976266.137
       216.000         158.000
  -8430739.73549  -6543513.04347  20689920.353    20689920.580    20689929.470
       240.000         201.000
  -5999024.94749  -4651944.33145  24139543.269    24139542.380    24139555.940
       212.000         148.000
  -8965321.66249  -6969976.34646  22977088.733    22977088.864    22977102.460
       219.000         166.000
    -60162.42549    -44890.75847  20745145.543    20745144.753    20745153.529
       241.000         205.000
  -7414862.75449  -5755891.71747  21305956.625    21305956.432    21305965.798
       242.000         202.000
 00  5  3 15 54 59.9980000  0  7G 2G26G 4G 5G24G 7G 9
    -83860.94449    -63626.62347  21597936.625    21597935.749    21597945.656
       233.000         195.000
   2511467.70549   1951759.45045  23984018.167    23984017.518    23984029.839
       213.000         158.000
  -8533202.69649  -6623354.26947  20670422.303    20670422.507    20670431.402
       238.000         201.000
  -6120886.84349  -4746901.68445  24116353.733    24116352.898    24116366.331
       211.000         147.000
  -9108069.29949  -7081208.08446  22949924.552    22949924.759    22949938.348
       215.000         163.000
    -51041.91549    -37783.91647  20746881.239    20746880.407    20746889.126
       239.000         206.000
  -7502727.27049  -5824357.53547  21289236.514    21289236.351    21289245.686
       240.000         202.000
 00  5  3 15 55 29.9980000  0  7G 2G26G 4G 5G24G 7G 9
    -75174.34449    -56857.92847  21599589.660    21599588.816    21599598.736
       235.000         194.000
   2552387.50749   1983644.81945  23991805.030    23991804.433    23991816.794
       215.000         157.000
  -8635145.99749  -6702790.57847  20651023.104    20651023.322    20651032.205
       240.000         201.000
  -6242730.97949  -4841845.16545  24093167.387    24093166.707    24093180.246
       211.000         148.000
  -9250653.10049  -7192312.13546  22922791.628    22922791.852    22922805.443
       220.000         163.000
    -41666.26349    -30478.28547  20748665.355    20748664.555    20748673.336
       240.000         206.000
  -7590075.17849  -5892420.80347  21272614.764    21272614.583    21272623.896
       240.000         202.000
 00  5  3 15 55 59.9980000  0  7G 2G26G 4G 5G24G 7G 9
    -66210.56349    -49873.25447  21601295.488    21601294.634    21601304.605
       233.000         195.000
   2593405.95149   2015607.06245  23999610.708    23999610.141    23999622.474
       213.000         157.000
  -8736588.25949  -6781836.46647  20631719.266    20631719.467    20631728.322
       238.000         200.000
  -6364577.60049  -4936790.58945  24069981.023    24069980.134    24069993.794
       216.000         153.000
  -9393091.16349  -7303302.63745  22895686.575    22895686.665    22895700.212
       217.000         162.000
    -32057.78549    -22991.21947  20750493.812    20750493.018    20750501.841
       238.000         205.000
  -7676925.56649  -5960096.39847  21256087.675    21256087.499    21256096.774
       239.000         202.000
 00  5  3 15 56 29.9980000  0  7G 2G26G 4G 5G24G 7G 9
    -56961.27649    -42666.11647  21603055.658    21603054.792    21603064.804
       233.000         196.000
   2634527.74749   2047649.83945  24007436.044    24007435.480    24007447.884
       214.000         155.000
  -8837519.27549  -6860483.97847  20612512.636    20612512.883    20612521.709
       238.000         200.000
  -6486418.17049  -5031731.34245  24046795.640    24046794.836    24046808.525
       209.000         149.000
  -9535372.62449  -7414171.11246  22868611.228    22868611.297    22868624.773
       217.000         164.000
    -22210.24749    -15317.88247  20752367.741    20752366.974    20752375.786
       239.000         206.000
  -7763268.55449  -6027376.61447  21239657.144    21239656.974    21239666.238
       239.000         202.000
 00  5  3 15 56 59.9980000  0  7G 2G26G 4G 5G24G 7G 9
    -47425.47349    -35235.70847  21604870.371    21604869.485    21604879.503
       235.000         197.000
   2675750.72549   2079771.47145  24015280.460    24015280.071    24015292.520
       211.000         155.000
  -8937936.10349  -6938730.83347  20593403.839    20593404.125    20593412.955
       237.000         201.000
  -6608251.61849  -5126666.49045  24023611.355    24023610.586    24023624.246
       213.000         150.000
  -9677494.48949  -7524915.24746  22841566.089    22841566.263    22841579.668
       218.000         166.000
    -12124.49249     -7458.90347  20754287.127    20754286.320    20754295.067
       239.000         206.000
  -7849101.87749  -6094259.68747  21223323.600    21223323.419    21223332.658
       238.000         203.000
 00  5  3 15 57 29.9980000  0  7G 2G26G 4G 5G24G 7G 9
    -37616.81049    -27592.67247  21606737.059    21606736.124    21606746.147
       238.000         197.000
   2717057.72149   2111958.57245  24023140.930    24023140.599    24023153.140
       210.000         155.000
  -9037850.76049  -7016586.39447  20574390.744    20574390.988    20574399.807
       239.000         202.000
  -6730091.69249  -5221606.82345  24000425.868    24000425.185    24000438.909
       212.000         151.000
  -9819468.04449  -7635543.80546  22814549.224    22814549.411    22814562.802
       221.000         165.000
     -1816.09749       573.53847  20756248.766    20756247.978    20756256.772
       241.000         207.000
  -7934438.00049  -6160755.34347  21207084.638    21207084.479    21207093.700
       239.000         203.000
 00  5  3 15 57 59.9980000  0  7G 2G26G 4G 5G24G 7G 9
    -27516.80749    -19722.60947  21608659.172    21608658.209    21608668.207
       237.000         193.000
   2758464.13249   2144223.12445  24031020.479    24031020.088    24031032.707
       215.000         153.000
  -9137242.46649  -7094034.45047  20555477.209    20555477.383    20555486.193
       241.000         202.000
  -6851919.39149  -5316537.48045  23977242.814    23977242.228    23977255.902
       214.000         151.000
  -9961272.21549  -7746040.39746  22787564.637    22787564.849    22787578.141
       220.000         164.000
      8731.59749      8792.45647  20758256.025    20758255.211    20758263.996
       241.000         206.000
  -8019256.84149  -6226847.91847  21190944.031    21190943.929    21190953.191
       239.000         202.000
 00  5  3 15 58 29.9980000  0  7G 2G26G 4G 5G24G 7G 9
    -17136.72149    -11634.30347  21610634.496    21610633.537    21610643.534
       234.000         190.000
   2799955.24149   2176553.67745  24038916.165    24038915.733    24038928.373
       212.000         154.000
  -9236120.82549  -7171082.50647  20536661.298    20536661.448    20536670.255
       239.000         202.000
  -6973745.95549  -5411467.30945  23954060.048    23954059.428    23954073.016
       210.000         151.000
 -10102915.90149  -7856411.95846  22760610.577    22760610.822    22760624.052
       216.000         163.000
     19505.35949     17187.52547  20760306.273    20760305.436    20760314.244
       240.000         206.000
  -8103568.28949  -6292545.11547  21174900.032    21174899.952    21174909.233
       239.000         203.000
 00  5  3 15 58 59.9980000  0  7G 2G26G 4G 5G24G 7G 9
     -6483.78349     -3333.40247  21612661.686    21612660.774    21612670.781
       232.000         189.000
   2841520.62249   2208942.10145  24046825.892    24046825.516    24046838.184
       211.000         154.000
  -9334491.08349  -7247734.63747  20517942.008    20517942.196    20517951.009
       239.000         201.000
  -7095578.08549  -5506401.39745  23930876.040    23930875.455    23930889.291
       212.000         151.000
 -10244404.05149  -7966662.27246  22733686.229    22733686.389    22733699.615
       221.000         167.000
     30496.21749     25751.75847  20762397.800    20762396.974    20762405.796
       240.000         206.000
  -8187378.12949  -6357851.46047  21158951.554    21158951.457    21158960.729
       239.000         203.000
 00  5  3 15 59 29.9980000  0  7G 2G26G 4G 5G24G 7G 9
      4439.18949      5177.92347  21614740.362    21614739.424    21614749.438
       232.000         193.000
   2883154.22449   2241383.68345  24054748.654    24054748.261    24054760.983
       213.000         154.000
  -9432353.94149  -7323991.37847  20499319.282    20499319.467    20499328.284
       239.000         201.000
  -7217418.57949  -5601342.09445  23907690.338    23907689.915    23907703.710
       209.000         150.000
 -10385737.00449  -8076791.67246  22706791.364    22706791.527    22706804.656
       222.000         168.000
     41699.55149     34481.57247  20764529.865    20764528.997    20764537.780
       240.000         206.000
  -8270687.53249  -6422767.83447  21143098.287    21143098.200    21143107.457
       239.000         203.000
 00  5  3 15 59 59.9980000  0  7G 2G26G 4G 5G24G 7G 9
     15658.62549     13920.25247  21616875.452    21616874.494    21616884.541
       235.000         195.000
   2924879.22849   2273896.50045  24062688.943    24062688.381    24062701.193
       212.000         154.000
  -9529681.42049  -7399830.96147  20480798.440    20480798.626    20480807.421
       239.000         202.000
  -7339240.62249  -5696268.32445  23884508.607    23884508.019    23884521.946
       211.000         155.000
 -10526886.04049  -8186777.77946  22679931.747    22679931.728    22679944.755
       220.000         168.000
     53139.99649     43396.14547  20766706.960    20766706.098    20766714.823
       239.000         205.000
  -8353468.85749  -6487272.73047  21127345.491    21127345.394    21127354.676
       240.000         203.000
 00  5  3 16  0 29.9980000  0  7G 2G26G 4G 5G24G 7G 9
     27154.04349     22877.64647  21619063.051    21619062.079    21619072.127
       236.000         196.000
   2966671.80149   2306461.95945  24070641.800    24070641.365    24070654.197
       209.000         153.000
  -9626492.15049  -7475267.87247  20462376.035    20462376.176    20462384.914
       239.000         203.000
  -7461064.46949  -5791195.99945  23861326.398    23861325.736    23861339.608
       212.000         150.000
 -10667869.10049  -8296634.57446  22653103.726    22653103.524    22653116.424
       216.000         168.000
     64795.08149     52477.96247  20768924.916    20768924.028    20768932.793
       239.000         207.000
  -8435741.19549  -6551381.00347  21111689.622    21111689.483    21111698.732
       238.000         203.000
 00  5  3 16  0 59.9980000  0  7G 2G26G 4G 5G24G 7G 9
     38932.68849     32055.75247  21621304.524    21621303.567    21621313.632
       237.000         197.000
   3008536.02849   2339083.24345  24078608.409    24078607.930    24078620.952
       213.000         152.000
  -9722776.94849  -7550294.97147  20444053.726    20444053.825    20444062.512
       238.000         202.000
  -7582882.29049  -5886118.97445  23838145.404    23838144.705    23838158.356
       210.000         150.000
 -10808676.51349  -8406354.48946  22626309.046    22626308.726    22626321.520
       219.000         168.000
     76670.42149     61731.39247  20771184.765    20771183.879    20771192.693
       239.000         206.000
  -8517495.94149  -6615085.95647  21096132.195    21096132.045    21096141.296
       238.000         203.000
 00  5  3 16  1 29.9980000  0  7G 2G26G 4G 5G24G 7G 9
     50987.23549     41448.81947  21623598.529    21623597.577    21623607.628
       236.000         197.000
   3050461.43849   2371752.21945  24086586.889    24086586.214    24086599.319
       211.000         152.000
  -9818541.24949  -7624916.48747  20425830.364    20425830.457    20425839.179
       238.000         202.000
  -7704701.12649  -5981042.70845  23814963.654    23814963.171    23814977.140
       210.000         150.000
 -10949313.35949  -8515941.47146  22599546.548    22599546.306    22599559.117
       218.000         168.000
     88756.74349     71149.24347  20773484.805    20773483.906    20773492.663
       240.000         206.000
  -8598739.20349  -6678392.36347  21080672.163    21080671.965    21080681.194
       239.000         203.000
 00  5  3 16  1 59.9980000  0  7G 2G26G 4G 5G24G 7G 9
     63334.30549     51069.84347  21625948.235    21625947.252    21625957.287
       234.000         192.000
   3092461.24749   2404479.10145  24094579.269    24094578.693    24094591.847
       213.000         152.000
  -9913766.79849  -7699118.18947  20407709.444    20407709.582    20407718.352
       237.000         202.000
  -7826504.11049  -6075954.13645  23791785.284    23791784.790    23791798.844
       208.000         151.000
 -11089760.32949  -8625380.51946  22572820.257    22572820.041    22572832.768
       219.000         167.000
    101068.99449     80743.13947  20775827.794    20775826.907    20775835.673
       239.000         205.000
  -8679452.83449  -6741286.05047  21065312.841    21065312.635    21065321.876
       237.000         203.000
 00  5  3 16  2 29.9980000  0  7G 2G26G 4G 5G24G 7G 9
     75945.45749     60896.62447  21628348.073    21628347.118    21628357.174
       232.000         189.000
   3134503.72149   2437239.26745  24102579.821    24102579.238    24102592.440
       209.000         148.000
 -10008480.37249  -7772920.94547  20389685.965    20389686.124    20389694.941
       237.000         202.000
  -7948319.56049  -6170875.19945  23768604.520    23768604.030    23768618.205
       210.000         149.000
 -11230043.76249  -8734692.14146  22546125.230    22546124.895    22546137.542
       218.000         168.000
    113576.82749     90489.43447  20778207.977    20778207.097    20778215.888
       239.000         205.000
  -8759664.42349  -6803788.55147  21050049.028    21050048.828    21050058.106
       239.000         204.000
 00  5  3 16  2 59.9980000  0  7G 2G26G 4G 5G24G 7G 9
     88844.45049     70947.70847  21630802.672    21630801.746    21630811.814
       232.000         189.000
   3176609.51749   2470048.79845  24110592.392    24110591.833    24110605.056
       211.000         152.000
 -10102656.48749  -7846304.89447  20371764.889    20371765.011    20371773.767
       238.000         202.000
  -8070123.35049  -6265787.25145  23745426.139    23745425.589    23745439.531
       209.000         150.000
 -11370137.42549  -8843855.92046  22519465.951    22519465.808    22519478.396
       214.000         165.000
    126302.02849    100405.12347  20780629.644    20780628.692    20780637.453
       240.000         206.000
  -8839348.57649  -6865880.06447  21034885.628    21034885.425    21034894.694
       239.000         203.000
 00  5  3 16  3 29.9980000  0  7G 2G26G 4G 5G24G 7G 9
    102025.10749     81218.27747  21633310.904    21633309.983    21633320.078
       233.000         189.000
   3218769.17349   2502900.25745  24118615.284    24118614.746    24118627.948
       210.000         151.000
 -10196299.17449  -7919273.19147  20353945.320    20353945.397    20353954.103
       239.000         202.000
  -8191921.11749  -6360694.56645  23722248.878    23722248.200    23722262.211
       212.000         151.000
 -11510045.04949  -8952874.69246  22492842.079    22492842.073    22492854.633
       216.000         167.000
    139236.95549    110484.22447  20783091.163    20783090.197    20783098.970
       240.000         206.000
  -8918509.88249  -6927564.16847  21019821.764    21019821.525    21019830.769
       239.000         204.000
 00  5  3 16  3 59.9980000  0  7G 2G26G 4G 5G24G 7G 9
    115511.17149     91726.82147  21635877.219    21635876.348    21635886.437
       235.000         191.000
   3261003.44349   2535809.87645  24126652.212    24126651.773    24126664.998
       210.000         153.000
 -10289383.12449  -7991806.10347  20336232.004    20336232.113    20336240.765
       239.000         202.000
  -8313688.50149  -6455578.17545  23699077.489    23699076.740    23699090.768
       214.000         154.000
 -11649740.32649  -9061727.98146  22466258.658    22466258.756    22466271.381
       218.000         168.000
    152403.58149    120743.87547  20785596.685    20785595.748    20785604.550
       239.000         205.000
  -8997123.55749  -6988821.53947  21004862.037    21004861.809    21004871.058
       240.000         203.000
 00  5  3 16  4 29.9980000  0  7G 2G26G 4G 5G24G 7G 9
    129276.42049    102452.90847  21638496.776    21638495.854    21638505.940
       236.000         193.000
   3303282.70349   2568754.52945  24134697.728    24134697.382    24134710.626
       213.000         152.000
 -10381932.88949  -8063922.76847  20318620.369    20318620.461    20318629.100
       238.000         202.000
  -8435451.67049  -6550458.56745  23675906.772    23675906.039    23675919.893
       206.000         151.000
 -11789247.11549  -9170434.45146  22439711.237    22439711.340    22439723.910
       222.000         168.000
    165773.74349    131162.12147  20788141.013    20788140.068    20788148.875
       241.000         207.000
  -9075214.45049  -7049671.56047  20990001.885    20990001.612    20990010.805
       239.000         203.000
 00  5  3 16  4 59.9980000  0  7G 2G26G 4G 5G24G 7G 9
    143335.41849    113407.89947  21641172.227    21641171.286    21641181.371
       238.000         194.000
   3345618.24849   2601743.01045  24142754.070    24142753.722    24142767.015
       212.000         154.000
 -10473932.43449  -8135610.68547  20301113.380    20301113.489    20301122.154
       240.000         202.000
  -8557195.74049  -6645324.03545  23652739.194    23652738.652    23652752.725
       217.000         155.000
 -11928548.60049  -9278980.94146  22413202.971    22413202.998    22413215.571
       219.000         167.000
    179360.34249    141749.02647  20790726.552    20790725.579    20790734.420
       241.000         204.000
  -9152766.71749  -7110101.86347  20975244.183    20975243.893    20975253.054
       240.000         203.000
 00  5  3 16  5 29.9980000  0  7G 2G26G 4G 5G24G 7G 9
    157683.10849    124587.83047  21643902.617    21643901.651    21643911.749
       234.000         193.000
   3388002.31849   2634769.40045  24150819.823    24150819.286    24150832.563
       212.000         151.000
 -10565384.58649  -8206872.06347  20283710.605    20283710.705    20283719.363
       239.000         202.000
  -8678925.27849  -6740178.17145  23629575.011    23629574.431    23629588.477
       212.000         155.000
 -12067647.08549  -9387369.25746  22386733.118    22386733.284    22386745.858
       217.000         167.000
    193156.70549    152499.38747  20793351.853    20793350.943    20793359.770
       238.000         203.000
  -9229783.87649  -7170115.19847  20960588.259    20960587.972    20960597.147
       238.000         204.000
 00  5  3 16  5 59.9980000  0  7G 2G26G 4G 5G24G 7G 9
    172324.56549    135996.66147  21646688.751    21646687.838    21646698.013
       232.000         190.000
   3430436.63749   2667834.92045  24158895.138    24158894.418    24158907.750
       213.000         150.000
 -10656282.74449  -8277701.76347  20266413.236    20266413.326    20266421.972
       238.000         202.000
  -8800634.76349  -6835016.70845  23606414.503    23606413.911    23606427.855
       208.000         152.000
 -12206535.08049  -9495593.54346  22360303.316    22360303.652    22360316.197
       220.000         169.000
    207166.28349    163415.88747  20796017.861    20796016.940    20796025.739
       241.000         206.000
  -9306259.68849  -7229706.71947  20946035.412    20946035.090    20946044.230
       240.000         204.000
 00  5  3 16  6 29.9980000  0  7G 2G26G 4G 5G24G 7G 9
    187256.70349    147631.99746  21649530.193    21649529.328    21649539.544
       231.000         187.000
   3472914.96049   2700934.74345  24166978.711    24166977.942    24166991.326
       212.000         151.000
 -10746628.42349  -8348100.95847  20249221.024    20249221.113    20249229.703
       237.000         202.000
  -8922326.71449  -6929841.59745  23583257.317    23583256.645    23583270.640
       213.000         154.000
 -12345213.31449  -9603654.39446  22333913.732    22333913.972    22333926.483
       223.000         169.000
    221384.18549    174494.71947  20798723.534    20798722.588    20798731.446
       239.000         206.000
  -9382196.29049  -7288878.07047  20931585.218    20931584.858    20931593.941
       239.000         204.000
 00  5  3 16  6 59.9980000  0  7G 2G26G 4G 5G24G 7G 9
    202475.78649    159490.93246  21652426.297    21652425.451    21652435.696
       233.000         187.000
   3515430.47349   2734063.50745  24175069.189    24175068.539    24175081.967
       210.000         150.000
 -10836423.79049  -8418071.34047  20232133.519    20232133.577    20232142.181
       239.000         203.000
  -9044004.36949  -7024655.31545  23560102.778    23560102.164    23560116.081
       209.000         154.000
 -12483683.08149  -9711552.80246  22307563.887    22307563.948    22307576.407
       223.000         170.000
    235804.94549    185731.61047  20801467.722    20801466.801    20801475.747
       241.000         205.000
  -9457596.18049  -7347631.21147  20917237.084    20917236.725    20917245.766
       241.000         204.000
 00  5  3 16  7 29.9980000  0  7G 2G26G 4G 5G24G 7G 9
    217978.79549    171571.12047  21655376.513    21655375.652    21655385.870
       235.000         188.000
   3557976.86249   2767216.36045  24183165.488    24183165.021    24183178.514
       211.000         152.000
 -10925670.00449  -8487613.81247  20215150.468    20215150.546    20215159.180
       238.000         203.000
  -9165670.41149  -7119459.95445  23536950.420    23536949.776    23536964.081
       212.000         155.000
 -12621944.89049  -9819289.16346  22281253.502    22281253.539    22281265.926
       222.000         171.000
    250423.96349    197122.99447  20804249.615    20804248.736    20804257.699
       239.000         204.000
  -9532461.11949  -7405967.50947  20902990.734    20902990.374    20902999.384
       240.000         204.000
 00  5  3 16  7 59.9980000  0  7G 2G26G 4G 5G24G 7G 9
    233758.71049    183867.08547  21658379.433    21658378.544    21658388.741
       234.000         189.000
   3600544.06149   2800385.39345  24191265.704    24191265.445    24191278.957
       211.000         150.000
 -11014372.48849  -8556732.59747  20198270.975    20198271.000    20198279.661
       238.000         203.000
  -9287331.32849  -7214260.63945  23513798.929    23513798.303    23513812.613
       213.000         153.000
 -12760003.25049  -9926867.03846  22254981.773    22254981.831    22254994.162
       221.000         168.000
    265232.47949    208662.04347  20807067.613    20807066.726    20807075.699
       239.000         204.000
  -9606796.76049  -7463891.36147  20888844.980    20888844.723    20888853.751
       239.000         204.000
 00  5  3 16  8 29.9980000  0  7G 2G26G 4G 5G24G 7G 9
    249822.10549    196383.93947  21661436.315    21661435.373    21661445.586
       234.000         190.000
   3643135.47249   2833573.24045  24199370.738    24199370.463    24199384.039
       211.000         149.000
 -11102523.12249  -8625421.37247  20181496.481    20181496.499    20181505.141
       238.000         203.000
  -9408979.80449  -7309051.61645  23490650.128    23490649.449    23490663.707
       213.000         156.000
 -12897849.22449 -10034279.35146  22228750.470    22228750.538    22228762.872
       222.000         171.000
    280235.41849    220352.58747  20809922.659    20809921.733    20809930.714
       240.000         205.000
  -9680595.41849  -7521396.79247  20874801.598    20874801.307    20874810.317
       240.000         205.000
 00  5  3 16  8 59.9980000  0  7G 2G26G 4G 5G24G 7G 9
    266161.67449    209115.98747  21664545.696    21664544.756    21664555.035
       233.000         190.000
   3685741.01949   2866772.25445  24207478.371    24207478.154    24207491.873
       209.000         150.000
 -11190127.63749  -8693684.59447  20164825.870    20164825.896    20164834.514
       239.000         203.000
  -9530622.88249  -7403838.38245  23467502.041    23467501.490    23467515.844
       214.000         156.000
 -13035487.56449 -10141529.93046  22202558.980    22202558.776    22202571.026
       219.000         172.000
    295423.72849    232187.56647  20812812.976    20812812.046    20812821.042
       239.000         205.000
  -9753862.89349  -7578488.31647  20860859.307    20860858.981    20860867.956
       240.000         205.000
 00  5  3 16  9 29.9980000  0  7G 2G26G 4G 5G24G 7G 9
    282754.44449    222045.33447  21667703.263    21667702.320    21667712.671
       234.000         190.000
   3728334.41549   2899961.71745  24215583.653    24215583.516    24215597.405
       209.000         150.000
 -11277207.34649  -8761538.88147  20148255.076    20148255.147    20148263.728
       240.000         203.000
  -9652282.97649  -7498638.43245  23444351.021    23444350.356    23444364.607
       214.000         156.000
 -13172938.89949 -10248634.79646  22176402.803    22176402.580    22176414.774
       222.000         170.000
    310773.02449    244147.99947  20815733.884    20815732.958    20815741.974
       241.000         204.000
  -9826621.14949  -7635183.03947  20847013.891    20847013.542    20847022.511
       241.000         205.000
 00  5  3 16  9 59.9980000  0  7G 2G26G 4G 5G24G 7G 9
    299638.11349    235201.33847  21670916.186    21670915.232    21670925.618
       233.000         189.000
   3770950.28649   2933168.67045  24223693.424    24223693.218    24223707.145
       209.000         145.000
 -11363722.87349  -8828953.55647  20131791.701    20131791.784    20131800.354
       238.000         203.000
  -9773921.75249  -7593421.79645  23421203.782    23421203.131    23421217.561
       214.000         157.000
 -13310162.79449 -10355562.42146  22150289.833    22150289.673    22150301.819
       223.000         171.000
    326319.26449    256261.89247  20818692.293    20818691.372    20818700.393
       240.000         205.000
  -9898831.51849  -7691450.84547  20833272.728    20833272.375    20833281.308
       240.000         205.000
 00  5  3 16 10 29.9980000  0  7G 2G26G 4G 5G24G 7G 9
    316799.29849    248573.59947  21674181.924    21674180.968    21674191.352
       233.000         188.000
   3813572.44149   2966380.55045  24231804.390    24231804.055    24231818.140
       212.000         147.000
 -11449686.11149  -8895937.86347  20115433.586    20115433.560    20115442.077
       240.000         204.000
  -9895551.90249  -7688198.49045  23398058.647    23398057.804    23398072.072
       217.000         159.000
 -13447170.07849 -10462321.25146  22124218.226    22124217.970    22124230.067
       221.000         172.000
    342047.64449    268517.72647  20821685.304    20821684.412    20821693.454
       239.000         203.000
  -9970505.80249  -7747300.91247  20819633.501    20819633.182    20819642.146
       240.000         205.000
 00  5  3 16 10 59.9980000  0  7G 2G26G 4G 5G24G 7G 9
    334229.16349    262155.21947  21677498.803    21677497.831    21677508.217
       235.000         188.000
   3856188.70149   2999587.84245  24239914.098    24239913.812    24239927.969
       213.000         148.000
 -11535104.56949  -8962497.68347  20099178.992    20099178.976    20099187.480
       240.000         204.000
 -10017182.08749  -7782975.21645  23374913.350    23374912.401    23374926.476
       216.000         159.000
 -13583967.43949 -10568916.50146  22098186.456    22098186.236    22098198.268
       224.000         172.000
    357947.42849    280907.10847  20824710.987    20824710.075    20824719.118
       241.000         204.000
 -10041652.06849  -7802739.54847  20806094.862    20806094.502    20806103.454
       241.000         205.000
 00  5  3 16 11 29.9980000  0  7G 2G26G 4G 5G24G 7G 9
    351917.97149    275938.61947  21680864.963    21680863.975    21680874.382
       232.000         188.000
   3898786.54549   3032780.74545  24248020.473    24248020.074    24248034.242
       212.000         149.000
 -11619986.17649  -9028639.17447  20083026.471    20083026.507    20083034.992
       241.000         203.000
 -10138821.02849  -7877758.78345  23351766.264    23351765.345    23351779.282
       215.000         159.000
 -13720561.84549 -10675353.60846  22072193.321    22072193.116    22072205.092
       222.000         173.000
    374007.58649    293421.46147  20827767.239    20827766.294    20827775.324
       240.000         205.000
 -10112278.61849  -7857773.20747  20792655.066    20792654.708    20792663.667
       240.000         205.000
 00  5  3 16 11 59.9980000  0  7G 2G26G 4G 5G24G 7G 9
    369879.65049    289934.65146  21684283.050    21684282.054    21684292.469
       233.000         186.000
   3941376.89049   3065967.87845  24256125.352    24256124.933    24256139.080
       213.000         150.000
 -11704315.66649  -9094350.44547  20066979.117    20066979.130    20066987.580
       241.000         203.000
 -10260454.25749  -7972537.85445  23328619.978    23328619.200    23328633.196
       215.000         158.000
 -13856936.69149 -10781619.64546  22046241.935    22046241.752    22046253.660
       223.000         171.000
    390240.31249    306070.27947  20830856.269    20830855.340    20830864.403
       240.000         203.000
 -10182370.65849  -7912390.35747  20779316.959    20779316.614    20779325.583
       241.000         205.000
 00  5  3 16 12 29.9980000  0  7G 2G26G 4G 5G24G 7G 9
    388136.25849    304160.47746  21687757.263    21687756.250    21687766.675
       231.000         187.000
   3983978.55549   3099163.78345  24264232.254    24264231.944    24264246.091
       211.000         148.000
 -11788069.22149  -9159612.93547  20051041.358    20051041.390    20051049.788
       241.000         205.000
 -10382058.98649  -8067294.71045  23305478.966    23305478.391    23305492.511
       215.000         158.000
 -13993067.96049 -10887695.85846  22020336.886    22020336.734    22020348.617
       224.000         174.000
    406666.21549    318869.63847  20833982.119    20833981.152    20833990.200
       240.000         203.000
 -10251905.02849  -7966572.96147  20766085.004    20766084.648    20766093.641
       240.000         206.000
 00  5  3 16 12 59.9980000  0  7G 2G26G 4G 5G24G 7G 9
    406652.01549    318588.24746  21691280.776    21691279.748    21691290.234
       230.000         187.000
   4026552.97049   3132338.43945  24272334.132    24272333.719    24272347.931
       212.000         149.000
 -11871281.37149  -9224453.56047  20035206.633    20035206.636    20035215.021
       241.000         204.000
 -10503670.42249  -8162056.81245  23282337.191    23282336.509    23282350.620
       217.000         160.000
 -14128988.47449 -10993607.87246  21994472.040    21994471.843    21994483.708
       222.000         173.000
    423247.92549    331790.39647  20837137.494    20837136.567    20837145.644
       237.000         203.000
 -10320916.26049  -8020347.93547  20752952.543    20752952.221    20752961.217
       241.000         206.000
 00  5  3 16 13 29.9980000  0  7G 2G26G 4G 5G24G 7G 9
    425449.70359    333235.69557  21694857.889    21694856.898    21694867.419
       231.000         188.000
   4069120.98649   3165508.36145  24280434.776    24280434.291    24280448.590
       211.000         150.000
 -11953927.73349  -9288853.31547  20019479.478    20019479.518    20019487.902
       241.000         204.000
 -10625265.24949  -8256805.98046  23259198.448    23259197.768    23259211.901
       217.000         163.000
 -14264673.06059 -11099336.02656  21968652.014    21968651.832    21968663.706
       225.000         174.000
    440007.70149    344850.10147  20840326.748    20840325.860    20840335.049
       240.000         205.000
 -10389380.24449  -8073696.48547  20739924.291    20739923.972    20739932.903
       240.000         206.000
 00  5  3 16 13 59.9980000  0  7G 2G26G 4G 5G24G 7G 9
    444519.80249    348095.43447  21698486.874    21698485.910    21698496.460
       232.000         189.000
   4111668.00749   3198661.67145  24288531.387    24288530.850    24288545.234
       212.000         146.000
 -12036016.44449  -9352818.52947  20003858.439    20003858.519    20003866.933
       240.000         204.000
 -10746852.11149  -8351548.92145  23236061.224    23236060.554    23236074.679
       216.000         162.000
 -14400128.72349 -11204885.81146  21942875.573    21942875.395    21942887.308
       221.000         174.000
    456932.68049    358038.36147  20843547.522    20843546.627    20843555.768
       239.000         203.000
 -10457305.52949  -8126625.25847  20726998.510    20726998.212    20727007.138
       240.000         206.000
 00  5  3 16 14 29.9970000  0  7G 2G26G 4G 5G24G 7G 9
    463878.35049    363179.92147  21702170.797    21702169.793    21702180.374
       232.000         189.000
   4154207.66949   3231809.35245  24296626.473    24296626.028    24296640.466
       212.000         147.000
 -12117526.49749  -9416332.85647  19988347.581    19988347.663    19988356.058
       240.000         204.000
 -10868409.64249  -8446269.00845  23212929.753    23212928.957    23212942.962
       219.000         162.000
 -14535331.72649 -11310238.70346  21917147.223    21917147.036    21917158.980
       223.000         176.000
    474038.38049    371367.42947  20846802.574    20846801.738    20846810.887
       238.000         203.000
 -10524672.22049  -8179118.77847  20714179.035    20714178.736    20714187.639
       240.000         205.000
 00  5  3 16 14 59.9970000  0  7G 2G26G 4G 5G24G 7G 9
    483504.67049    378473.06447  21705905.627    21705904.632    21705915.245
       231.000         188.000
   4196717.51149   3264933.73545  24304715.940    24304715.518    24304730.015
       213.000         147.000
 -12198484.06949  -9479416.66947  19972941.891    19972941.971    19972950.321
       241.000         205.000
 -10989967.06949  -8540989.00746  23189798.131    23189797.326    23189811.301
       217.000         163.000
 -14670310.48749 -11415416.85146  21891461.489    21891461.353    21891473.342
       223.000         176.000
    491302.55549    384819.97347  20850087.889    20850087.034    20850096.226
       239.000         204.000
 -10591505.78549  -8231196.86647  20701460.950    20701460.696    20701469.591
       240.000         205.000
 00  5  3 16 15 29.9970000  0  7G 2G26G 4G 5G24G 7G 9
    503415.57449    393987.95646  21709694.564    21709693.593    21709704.275
       229.000         186.000
   4239210.81049   3298045.22345  24312802.320    24312801.911    24312816.360
       211.000         146.000
 -12278867.59849  -9542053.17747  19957645.470    19957645.492    19957653.820
       241.000         204.000
 -11111502.31849  -8635691.73546  23166670.822    23166670.002    23166683.873
       219.000         163.000
 -14805040.54949 -11520401.22846  21865823.200    21865823.000    21865835.013
       225.000         177.000
    508740.43049    398407.86347  20853406.276    20853405.391    20853414.605
       239.000         204.000
 -10657785.43449  -8282843.33747  20688848.359    20688848.089    20688856.949
       241.000         206.000
 00  5  3 16 15 59.9970000  0  7G 2G26G 4G 5G24G 7G 9
    523610.26749    409723.98746  21713537.584    21713536.589    21713547.314
       231.000         184.000
   4281683.86449   3331140.93645  24320884.896    24320884.369    24320898.844
       216.000         144.000
 -12358676.25149  -9604241.73847  19942458.313    19942458.375    19942466.732
       241.000         204.000
 -11233015.30249  -8730377.12346  23143547.758    23143546.914    23143560.712
       218.000         163.000
 -14939520.04749 -11625190.37646  21840232.503    21840232.333    21840244.312
       227.000         176.000
    526349.86849    412129.44747  20856757.288    20856756.392    20856765.604
       240.000         202.000
 -10723510.71249  -8334057.83747  20676341.289    20676340.990    20676349.823
       242.000         206.000
 00  5  3 16 16 29.9970000  0  7G 2G26G 4G 5G24G 7G 9
    544086.23949    425679.19546  21717434.114    21717433.127    21717443.881
       229.000         186.000
   4324131.28249   3364216.65345  24328962.548    24328961.995    24328976.410
       214.000         145.000
 -12437911.23349  -9665983.27147  19927380.371    19927380.428    19927388.827
       240.000         205.000
 -11354507.78149  -8825046.51745  23120428.442    23120427.612    23120441.322
       216.000         161.000
 -15073748.94249 -11729784.21846  21814689.558    21814689.340    21814701.307
       225.000         176.000
    544126.97149    425981.68447  20860140.134    20860139.281    20860148.496
       239.000         202.000
 -10788683.32649  -8384841.67847  20663939.395    20663939.051    20663947.852
       240.000         206.000
 00  5  3 16 16 59.9970000  0  7G 2G26G 4G 5G24G 7G 9
    564841.88449    441852.32546  21721383.881    21721382.872    21721393.676
       232.000         185.000
   4366548.72749   3397269.04145  24337034.434    24337033.892    24337048.375
       212.000         144.000
 -12516572.71749  -9727277.93847  19912411.607    19912411.647    19912420.064
       242.000         205.000
 -11475980.43149  -8919700.43245  23097312.698    23097312.017    23097325.770
       219.000         161.000
 -15207726.31949 -11834182.07746  21789194.393    21789194.222    21789206.141
       229.000         176.000
    562068.90149    439962.34747  20863554.461    20863553.582    20863562.793
       241.000         203.000
 -10853303.40449  -8435194.98947  20651642.604    20651642.255    20651651.011
       242.000         206.000
 00  5  3 16 17 29.9970000  0  7G 2G26G 4G 5G24G 7G 9
    585870.08749    458237.84746  21725385.452    21725384.454    21725395.294
       229.000         184.000
   4408926.10249   3430290.19245  24345098.639    24345098.115    24345112.716
       209.000         143.000
 -12594666.48549  -9788130.21947  19897550.919    19897550.930    19897559.299
       243.000         204.000
 -11597439.78049  -9014343.99446  23074199.851    23074199.080    23074212.665
       224.000         163.000
 -15341456.84949 -11938387.58246  21763746.281    21763746.110    21763757.952
       228.000         177.000
    580166.96949    454064.67647  20866998.440    20866997.529    20867006.785
       239.000         199.000
 -10917377.28349  -8485122.67747  20639449.780    20639449.407    20639458.123
       243.000         206.000
 00  5  3 16 17 59.9970000  0  7G 2G26G 4G 5G24G 7G 9
    607162.37949    474829.15146  21729437.355    21729436.322    21729447.170
       230.000         186.000
   4451251.99749   3463271.24345  24353152.997    24353152.570    24353167.266
       212.000         143.000
 -12672200.10249  -9848546.00647  19882796.746    19882796.765    19882805.113
       241.000         205.000
 -11718893.59949  -9108983.25846  23051088.089    23051087.242    23051100.680
       223.000         166.000
 -15474946.49449 -12042405.37646  21738344.110    21738343.827    21738355.591
       228.000         180.000
    598411.08349    468280.82047  20870470.204    20870469.295    20870478.516
       239.000         202.000
 -10980912.75949  -8534630.82547  20627359.314    20627358.992    20627367.712
       241.000         206.000
 00  5  3 16 18 29.9970000  0  7G 2G26G 4G 5G24G 7G 9
    628723.02049    491629.54446  21733540.344    21733539.280    21733550.098
       230.000         187.000
   4493527.85349   3496213.28545  24361197.820    24361197.417    24361212.243
       210.000         142.000
 -12749167.57249  -9908520.64247  19868150.331    19868150.328    19868158.669
       240.000         205.000
 -11840337.02049  -9203614.43945  23027978.021    23027977.250    23027990.715
       217.000         162.000
 -15608188.37949 -12146230.11946  21712988.854    21712988.657    21713000.406
       227.000         179.000
    616804.10249    482612.98647  20873970.403    20873969.455    20873978.647
       240.000         204.000
 -11043904.45349  -8583715.25547  20615372.467    20615372.092    20615380.776
       241.000         206.000
 00  5  3 16 18 59.9970000  0  7G 2G26G 4G 5G24G 7G 9
    650571.52949    508654.25246  21737698.086    21737697.006    21737707.813
       230.000         187.000
   4535770.52549   3529129.49345  24369236.156    24369235.982    24369250.957
       206.000         140.000
 -12825547.96449  -9968037.82147  19853615.625    19853615.619    19853623.945
       241.000         205.000
 -11961749.17949  -9298221.22846  23004873.547    23004873.066    23004886.675
       217.000         163.000
 -15741160.32249 -12249844.54446  21687685.006    21687684.848    21687696.591
       226.000         179.000
    635364.58349    497075.62947  20877502.376    20877501.430    20877510.674
       238.000         202.000
 -11106331.81849  -8632359.94147  20603492.916    20603492.543    20603501.229
       241.000         207.000
 00  5  3 16 19 29.9970000  0  7G 2G26G 4G 5G24G 7G 9
    672723.79249    525915.64946  21741913.684    21741912.544    21741923.360
       228.000         185.000
   4577992.97749   3562029.90045  24377270.777    24377270.725    24377285.768
       208.000         139.000
 -12901324.25449 -10027084.26747  19839195.927    19839195.879    19839204.210
       241.000         206.000
 -12083113.48449  -9392790.73246  22981778.728    22981778.175    22981791.844
       223.000         166.000
 -15873843.87149 -12353234.23246  21662436.054    21662435.908    21662447.689
       226.000         180.000
    654106.82549    511679.89947  20881068.929    20881068.002    20881077.273
       239.000         202.000
 -11168178.01549  -8680551.77147  20591723.951    20591723.589    20591732.273
       241.000         207.000
 00  5  3 16 19 59.9970000  0  7G 2G26G 4G 5G24G 7G 9
    695151.83149    543391.93946  21746181.639    21746180.522    21746191.359
       227.000         182.000
   4620164.44049   3594890.59045  24385295.911    24385295.799    24385310.941
       206.000         136.000
 -12976523.20149 -10085680.83247  19824886.090    19824886.020    19824894.358
       242.000         206.000
 -12204456.95849  -9487344.02046  22958688.046    22958687.359    22958700.934
       223.000         166.000
 -16006264.49849 -12456419.05346  21637237.179    21637237.037    21637248.815
       225.000         182.000
    673001.68949    526403.12547  20884664.631    20884663.652    20884672.837
       238.000         200.000
 -11229470.14049  -8728311.85247  20580060.456    20580060.081    20580068.774
       241.000         207.000
 00  5  3 16 20 29.9970000  0  7G 2G26G 4G 5G24G 7G 9
    717850.35349    561078.98746  21750500.997    21750499.964    21750510.856
       225.000         180.000
   4662277.04149   3627705.45445  24393309.903    24393309.647    24393324.887
       210.000         140.000
 -13051148.70949 -10143830.55747  19810685.199    19810685.201    19810693.589
       240.000         205.000
 -12325783.94149  -9581884.43646  22935600.331    22935599.627    22935613.013
       219.000         164.000
 -16138424.85749 -12559401.04846  21612087.837    21612087.692    21612099.449
       227.000         181.000
    692042.49049    541240.05047  20888287.868    20888286.948    20888296.201
       237.000         201.000
 -11290212.40249  -8775643.46847  20568501.576    20568501.206    20568509.923
       241.000         207.000
 00  5  3 16 20 59.9970000  0  7G 2G26G 4G 5G24G 7G 9
    740832.86049    578987.31546  21754874.510    21754873.459    21754884.352
       225.000         180.000
   4704341.23949   3660482.55245  24401314.666    24401314.355    24401329.536
       208.000         137.000
 -13125186.17849 -10201522.07447  19796596.289    19796596.307    19796604.686
       241.000         205.000
 -12447080.21949  -9676400.94146  22912518.146    22912517.561    22912530.908
       220.000         163.000
 -16270309.02249 -12662167.84346  21586991.093    21586990.909    21587002.609
       228.000         182.000
    711241.05549    556199.90147  20891941.317    20891940.377    20891949.662
       240.000         203.000
 -11350390.64649  -8822535.59047  20557050.031    20557049.659    20557058.387
       241.000         207.000
 00  5  3 16 21 29.9970000  0  7G 2G26G 4G 5G24G 7G 9
    764087.87249    597107.98946  21759299.929    21759298.842    21759309.691
       228.000         181.000
   4746343.04849   3693211.06445  24409307.622    24409307.185    24409322.342
       209.000         136.000
 -13198645.87549 -10258763.37347  19782617.424    19782617.411    19782625.733
       240.000         206.000
 -12568356.22549  -9770901.63446  22889440.022    22889439.419    22889452.828
       223.000         166.000
 -16401925.90449 -12764726.35446  21561945.166    21561944.994    21561956.646
       228.000         182.000
    730584.99449    571273.04347  20895622.435    20895621.483    20895630.773
       239.000         201.000
 -11410015.08749  -8868996.18747  20545703.937    20545703.499    20545712.188
       241.000         206.000
 00  5  3 16 21 59.9970000  0  7G 2G26G 4G 5G24G 7G 9
    787620.83849    615445.25246  21763778.227    21763777.119    21763787.967
       230.000         181.000
   4788285.02149   3725892.94945  24417289.201    24417288.691    24417303.788
       209.000         136.000
 -13271521.12349 -10315549.26047  19768749.743    19768749.727    19768757.975
       242.000         206.000
 -12689605.72949  -9865381.67146  22866367.190    22866366.475    22866379.772
       222.000         165.000
 -16533267.31149 -12867070.21346  21536951.648    21536951.488    21536963.100
       229.000         181.000
    750078.30349    586462.55947  20899331.837    20899330.948    20899340.233
       239.000         199.000
 -11469079.39249  -8915020.30547  20534464.296    20534463.901    20534472.610
       243.000         207.000
 00  5  3 16 22 29.9970000  0  7G 2G26G 4G 5G24G 7G 9
    811428.62349    633996.66846  21768308.824    21768307.689    21768318.559
       229.000         185.000
   4830161.30449   3758523.63145  24425258.353    24425257.747    24425272.789
       206.000         134.000
 -13343813.86849 -10371881.24447  19754992.898    19754992.864    19755001.155
       240.000         207.000
 -12810830.78349  -9959842.63046  22843298.623    22843298.006    22843311.346
       223.000         164.000
 -16664333.90949 -12969199.93246  21512010.416    21512010.253    21512021.879
       228.000         182.000
    769716.63949    601765.10047  20903068.926    20903068.025    20903077.269
       238.000         199.000
 -11527586.18749  -8960609.99047  20523330.826    20523330.450    20523339.117
       241.000         207.000
 00  5  3 16 22 59.9970000  0  7G 2G26G 4G 5G24G 7G 9
    835509.04049    652760.51546  21772891.333    21772890.166    21772901.007
       230.000         185.000
   4871966.72749   3791099.12945  24433213.753    24433213.276    24433228.233
       207.000         135.000
 -13415525.30549 -10427760.26947  19741346.646    19741346.622    19741354.928
       240.000         206.000
 -12932032.73049 -10054285.61746  22820234.581    22820233.965    22820247.211
       219.000         163.000
 -16795125.44749 -13071115.31146  21487121.528    21487121.380    21487133.005
       228.000         182.000
    789496.42349    617177.86747  20906832.999    20906832.050    20906841.284
       239.000         201.000
 -11585536.73849  -9005766.24847  20512303.244    20512302.817    20512311.471
       241.000         206.000
 00  5  3 16 23 29.9970000  0  7G 2G26G 4G 5G24G 7G 9
    859870.75749    671743.56146  21777527.357    21777526.170    21777537.013
       229.000         186.000
   4913707.86249   3823624.53545  24441157.005    24441156.516    24441171.595
       207.000         134.000
 -13486645.34149 -10483178.46147  19727812.937    19727812.937    19727821.223
       240.000         207.000
 -13053201.64049 -10148702.82746  22797176.527    22797176.087    22797189.432
       222.000         163.000
 -16925630.60149 -13172807.54846  21462287.243    21462287.011    21462298.629
       228.000         183.000
    809425.15149    632706.68347  20910625.438    20910624.451    20910633.699
       239.000         201.000
 -11642921.38749  -9050481.53847  20501383.274    20501382.861    20501391.509
       240.000         207.000
 00  5  3 16 23 59.9970000  0  7G 2G26G 4G 5G24G 7G 9
    884523.82549    690953.61946  21782218.789    21782217.603    21782228.448
       228.000         185.000
   4955391.58249   3856105.18045  24449089.428    24449088.732    24449103.913
       206.000         133.000
 -13557163.01349 -10538127.27747  19714393.929    19714393.892    19714402.144
       241.000         207.000
 -13174326.51449 -10243085.76646  22774127.336    22774126.789    22774139.919
       221.000         164.000
 -17055836.47649 -13274266.56146  21437509.783    21437509.577    21437521.229
       230.000         184.000
    829511.86249    648358.59147  20914447.870    20914446.865    20914456.150
       237.000         199.000
 -11699729.10849  -9094747.27747  20490573.082    20490572.689    20490581.355
       240.000         207.000
 00  5  3 16 24 29.9970000  0  7G 2G26G 4G 5G24G 7G 9
    909453.74149    710379.40846  21786962.835    21786961.682    21786972.578
       226.000         184.000
   4997000.99649   3888527.94344  24457007.711    24457006.963    24457022.069
       204.000         131.000
 -13627091.63449 -10592617.09247  19701086.955    19701086.922    19701095.139
       241.000         207.000
 -13295420.97649 -10337444.95946  22751083.718    22751083.163    22751096.344
       223.000         166.000
 -17185755.23449 -13375501.86646  21412786.988    21412786.772    21412798.452
       230.000         184.000
    849740.55749    664121.15847  20918297.348    20918296.345    20918305.560
       239.000         199.000
 -11755973.82449  -9138574.30347  20479870.006    20479869.641    20479878.332
       241.000         207.000
 00  5  3 16 24 59.9970000  0  7G 2G26G 4G 5G24G 7G 9
    934658.11449    730019.05146  21791759.073    21791757.971    21791768.980
       224.000         184.000
   5038531.02949   3920888.84444  24464910.685    24464909.951    24464925.171
       205.000         131.000
 -13696432.24349 -10646648.72747  19687891.873    19687891.840    19687900.040
       241.000         207.000
 -13416486.18849 -10431781.37646  22728045.580    22728045.130    22728058.424
       221.000         166.000
 -17315386.61149 -13476513.23246  21388118.865    21388118.674    21388130.327
       230.000         184.000
    870107.95449    679991.80847  20922173.197    20922172.170    20922181.403
       236.000         199.000
 -11811656.99349  -9181963.76747  20469273.792    20469273.472    20469282.149
       241.000         207.000
 00  5  3 16 25 29.9970000  0  7G 2G26G 4G 5G24G 7G 9
    960136.05449    749871.85546  21796607.485    21796606.349    21796617.416
       225.000         184.000
   5079978.24949   3953185.19844  24472797.885    24472797.224    24472812.502
       203.000         131.000
 -13765184.94149 -10700222.24647  19674808.636    19674808.628    19674816.833
       240.000         208.000
 -13537521.92949 -10526094.82046  22705013.348    22705012.772    22705026.041
       222.000         166.000
 -17444728.84849 -13577299.27946  21363505.793    21363505.588    21363517.198
       231.000         183.000
    890611.84849    695968.78447  20926074.907    20926073.932    20926083.270
       236.000         199.000
 -11866778.70049  -9224915.72247  20458784.434    20458784.130    20458792.809
       241.000         206.000
 00  5  3 16 25 59.9970000  0  7G 2G26G 4G 5G24G 7G 9
    985903.54149    769950.28446  21801511.065    21801509.860    21801520.937
       225.000         182.000
   5121355.69249   3985427.18944  24480671.835    24480671.181    24480686.538
       204.000         131.000
 -13833332.80349 -10753324.47047  19661840.519    19661840.511    19661848.763
       240.000         208.000
 -13658511.31249 -10620372.12946  22681989.912    22681989.239    22682002.421
       223.000         167.000
 -17573763.53849 -13677845.70046  21338951.277    21338951.044    21338962.583
       231.000         184.000
    911266.87249    712063.54947  20930005.542    20930004.530    20930013.870
       239.000         200.000
 -11921322.39849  -9267417.28447  20448405.061    20448404.779    20448413.463
       241.000         206.000
 00  5  3 16 26 29.9970000  0  7G 2G26G 4G 5G24G 7G 9
   1011957.28149    790251.75946  21806468.994    21806467.803    21806478.912
       223.000         182.000
   5162657.71849   4017610.41944  24488531.382    24488530.746    24488546.391
       203.000         131.000
 -13900877.73249 -10805956.87647  19648987.131    19648987.133    19648995.395
       240.000         208.000
 -13779456.55849 -10714615.07146  22658974.891    22658974.145    22658987.124
       226.000         169.000
 -17702491.38849 -13778153.01346  21314455.121    21314454.905    21314466.385
       232.000         184.000
    932068.77549    728272.77647  20933964.162    20933963.102    20933972.395
       238.000         200.000
 -11975290.47449  -9309470.31447  20438135.249    20438134.971    20438143.697
       242.000         207.000
 00  5  3 16 26 59.9970000  0  7G 2G26G 4G 5G24G 7G 9
   1038277.99749    810761.26946  21811477.728    21811476.566    21811487.693
       224.000         182.000
   5203862.57649   4049717.95344  24496372.465    24496371.827    24496387.413
       202.000         131.000
 -13967837.93549 -10858133.64747  19636245.029    19636245.019    19636253.255
       240.000         208.000
 -13900375.86449 -10808837.78446  22635964.618    22635963.923    22635976.882
       217.000         167.000
 -17830928.82849 -13878234.03146  21290014.291    21290014.023    21290025.429
       233.000         185.000
    952997.19549    744580.57947  20937946.708    20937945.692    20937955.026
       236.000         198.000
 -12028701.45849  -9351089.24347  20427971.468    20427971.190    20427979.926
       242.000         207.000
 00  5  3 16 27 29.9970000  0  7G 2G26G 4G 5G24G 7G 9
   1064854.00449    831469.70846  21816535.083    21816533.915    21816545.078
       224.000         179.000
   5244955.99049   4081738.64244  24504192.439    24504191.844    24504207.446
       202.000         131.000
 -14034224.20549 -10909863.21047  19623612.094    19623612.090    19623620.365
       240.000         208.000
 -14021279.64349 -10903048.37746  22612956.984    22612956.483    22612969.633
       222.000         168.000
 -17959084.93849 -13978095.84346  21265626.953    21265626.670    21265638.008
       230.000         184.000
    974039.43349    760977.06247  20941950.882    20941949.917    20941959.305
       236.000         198.000
 -12081566.21649  -9392282.54947  20417911.690    20417911.368    20417920.079
       241.000         207.000
 00  5  3 16 27 59.9970000  0  7G 2G26G 4G 5G24G 7G 9
   1091691.58249    852381.98346  21821642.178    21821640.983    21821652.211
       225.000         178.000
   5285941.62649   4113675.32044  24511992.234    24511991.357    24512006.880
       200.000         129.000
 -14100029.13349 -10961139.77847  19611089.899    19611089.851    19611098.076
       243.000         208.000
 -14142160.45849 -10997241.10046  22589954.181    22589953.599    22589966.719
       225.000         168.000
 -18086950.83749 -14077731.52546  21241294.800    21241294.504    21241305.817
       231.000         185.000
    995200.44749    777466.10547  20945977.750    20945976.764    20945986.163
       238.000         197.000
 -12133877.61849  -9433044.67047  20407957.081    20407956.803    20407965.513
       244.000         207.000
 00  5  3 16 28 29.9970000  0  7G 2G26G 4G 5G24G 7G 9
   1118824.46649    873524.36646  21826805.484    21826804.296    21826815.511
       228.000         178.000
   5326850.65449   4145552.30144  24519777.253    24519776.076    24519791.722
       201.000         127.000
 -14165218.26549 -11011936.50247  19598684.869    19598684.796    19598692.974
       242.000         208.000
 -14262983.32649 -11091388.69346  22566962.409    22566961.724    22566974.767
       221.000         167.000
 -18214490.37349 -14177112.89446  21217024.761    21217024.479    21217035.756
       233.000         185.000
   1016513.05649    794073.27747  20950033.402    20950032.443    20950041.894
       237.000         198.000
 -12185601.21649  -9473348.76147  20398114.450    20398114.134    20398122.812
       243.000         207.000
 00  5  3 16 28 59.9970000  0  7G 2G26G 4G 5G24G 7G 9
   1146218.36749    894870.14446  21832018.443    21832017.269    21832028.471
       226.000         178.000
   5367646.24549   4177340.89144  24527540.645    24527539.342    24527554.940
       198.000         129.000
 -14229824.76449 -11062279.22847  19586390.674    19586390.593    19586398.767
       240.000         208.000
 -14383781.46049 -11185516.99246  22543974.987    22543974.446    22543987.475
       223.000         168.000
 -18341735.18849 -14276264.61446  21192810.820    21192810.546    21192821.783
       230.000         186.000
   1037941.88149    810771.00247  20954111.235    20954110.263    20954119.760
       237.000         200.000
 -12236770.65549  -9513221.04647  20388377.329    20388376.941    20388385.580
       241.000         208.000
 00  5  3 16 29 29.9970000  0  7G 2G26G 4G 5G24G 7G 9
   1173876.75949    916422.02446  21837281.793    21837280.589    21837291.758
       226.000         178.000
   5408329.61349   4209042.03744  24535282.553    24535281.314    24535296.958
       199.000         130.000
 -14293844.12949 -11112164.45147  19574208.078    19574208.052    19574216.254
       239.000         207.000
 -14504550.16149 -11279622.36246  22520993.223    22520992.728    22521005.856
       220.000         168.000
 -18468679.14549 -14375181.90046  21168654.165    21168653.831    21168665.072
       230.000         186.000
   1059489.27149    827561.12347  20958211.684    20958210.677    20958220.167
       237.000         199.000
 -12287381.72649  -9552658.24347  20378746.331    20378745.966    20378754.589
       242.000         208.000
 00  5  3 16 29 59.9970000  0  7G 2G26G 4G 5G24G 7G 9
   1201824.72249    938199.53746  21842600.215    21842599.030    21842610.167
       227.000         178.000
   5448923.21149   4240673.25344  24543007.494    24543006.244    24543021.840
       200.000         129.000
 -14357250.35949 -11161571.91247  19562142.242    19562142.236    19562150.420
       240.000         208.000
 -14625263.14849 -11373684.30046  22498022.039    22498021.660    22498034.834
       222.000         168.000
 -18595294.37749 -14473843.02946  21144559.965    21144559.671    21144570.907
       231.000         186.000
   1081179.43249    844462.47847  20962339.143    20962338.176    20962347.708
       234.000         195.000
 -12337408.51549  -9591640.15047  20369226.522    20369226.165    20369234.777
       241.000         208.000
 00  5  3 16 30 29.9970000  0  7G 2G26G 4G 5G24G 7G 9
   1230040.56549    960185.79646  21847969.620    21847968.435    21847979.595
       226.000         178.000
   5489402.76049   4272215.60444  24550710.340    24550709.500    24550724.966
       198.000         128.000
 -14420064.49249 -11210517.99347  19550189.163    19550189.124    19550197.285
       242.000         208.000
 -14745941.17449 -11467719.00346  22475057.766    22475057.297    22475070.383
       225.000         169.000
 -18721600.47649 -14572263.29446  21120524.564    21120524.343    21120535.585
       232.000         187.000
   1102989.30349    861457.13047  20966489.434    20966488.486    20966497.988
       238.000         196.000
 -12386872.52649  -9630183.53047  20359813.834    20359813.466    20359822.061
       243.000         207.000
 00  5  3 16 30 59.9970000  0  7G 2G26G 4G 5G24G 7G 9
   1258531.25349    982386.21646  21853391.280    21853390.128    21853401.350
       223.000         179.000
   5529773.03749   4303672.79144  24558392.403    24558391.675    24558407.405
       197.000         129.000
 -14482278.35749 -11258996.33747  19538350.278    19538350.217    19538358.402
       240.000         208.000
 -14866575.42449 -11561719.60846  22452101.735    22452101.265    22452114.332
       221.000         170.000
 -18847587.23349 -14670434.72046  21096549.983    21096549.793    21096561.023
       232.000         187.000
   1124925.07649    878549.90647  20970663.840    20970662.820    20970672.252
       238.000         197.000
 -12435765.79549  -9668282.17947  20350509.736    20350509.367    20350517.943
       242.000         207.000
 00  5  3 16 31 29.9970000  0  7G 2G26G 4G 5G24G 7G 9
   1287305.00449   1004807.18146  21858866.864    21858865.685    21858876.958
       225.000         180.000
   5570039.59249   4335049.21944  24566054.738    24566054.177    24566069.996
       200.000         128.000
 -14543883.00149 -11306999.96647  19526627.336    19526627.267    19526635.434
       243.000         208.000
 -14987156.50249 -11655678.76346  22429155.606    22429155.274    22429168.472
       223.000         169.000
 -18973244.19349 -14768349.15447  21072638.294    21072638.038    21072649.241
       236.000         188.000
   1146993.96049    895746.38247  20974863.500    20974862.448    20974871.891
       238.000         199.000
 -12484079.64049  -9705929.33347  20341315.913    20341315.562    20341324.125
       243.000         207.000
 00  5  3 16 31 59.9970000  0  7G 2G26G 4G 5G24G 7G 9
   1316352.56649   1027441.51246  21864394.494    21864393.345    21864404.704
       223.000         181.000
   5610190.71549   4366335.61044  24573695.325    24573694.797    24573710.581
       196.000         128.000
 -14604886.88749 -11354535.46447  19515018.755    19515018.642    19515026.758
       241.000         208.000
 -15107692.64849 -11749602.92846  22406218.518    22406218.006    22406231.105
       224.000         171.000
 -19098577.96149 -14866011.77547  21048788.060    21048787.768    21048798.934
       232.000         188.000
   1169185.68249    913038.56247  20979086.448    20979085.425    20979094.922
       235.000         197.000
 -12531822.52749  -9743131.57947  20332230.729    20332230.383    20332238.939
       242.000         208.000
 00  5  3 16 32 29.9970000  0  6G 2G 4G 5G24G 7G 9
   1345667.34349   1050284.06346  21869973.017    21869971.845    21869983.302
       225.000         182.000
 -14665295.61849 -11401607.19547  19503523.380    19503523.255    19503531.352
       240.000         208.000
 -15228189.06749 -11843496.13546  22383288.798    22383288.257    22383301.282
       225.000         170.000
 -19223592.45749 -14963425.58846  21024998.552    21024998.226    21025009.394
       232.000         187.000
   1191492.96149    930420.79447  20983331.337    20983330.349    20983339.909
       234.000         193.000
 -12579000.38749  -9779893.54747  20323253.100    20323252.724    20323261.304
       242.000         207.000
 00  5  3 16 32 59.9970000  0  6G 2G 4G 5G24G 7G 9
   1375249.20949   1073334.73846  21875602.319    21875601.178    21875612.678
       225.000         184.000
 -14725108.21349 -11448214.41447  19492141.461    19492141.325    19492149.385
       240.000         208.000
 -15348644.37549 -11937357.28746  22360366.743    22360366.256    22360379.369
       225.000         171.000
 -19348284.96049 -15060588.51547  21001270.278    21001269.964    21001281.125
       231.000         188.000
   1213914.77649    947892.27647  20987598.039    20987597.090    20987606.665
       235.000         195.000
 -12625612.65549  -9816214.79347  20314383.127    20314382.735    20314391.292
       242.000         208.000
 00  5  3 16 33 29.9970000  0  6G 2G 4G 5G24G 7G 9
   1405127.86949   1096616.66746  21881288.170    21881287.011    21881298.521
       226.000         184.000
 -14784294.45549 -11494333.57247  19480878.637    19480878.539    19480886.618
       240.000         207.000
 -15469027.64649 -12031162.33646  22337458.611    22337458.074    22337471.124
       226.000         172.000
 -19472623.37249 -15157475.51846  20977609.458    20977609.115    20977620.224
       234.000         187.000
   1236479.60449    965475.21247  20991892.090    20991891.088    20991900.663
       237.000         196.000
 -12671629.39749  -9852071.99947  20305626.427    20305626.037    20305634.604
       242.000         207.000
 00  5  3 16 33 59.9970000  0  6G 2G 4G 5G24G 7G 9
   1435294.55649   1120123.05246  21887028.825    21887027.646    21887039.180
       229.000         185.000
 -14842862.34649 -11539970.89147  19469733.525    19469733.433    19469741.553
       240.000         208.000
 -15589346.36349 -12124917.07146  22314562.770    22314562.166    22314575.161
       224.000         172.000
 -19596614.04349 -15254091.56047  20954014.816    20954014.482    20954025.484
       232.000         189.000
   1259177.86749    983162.12547  20996211.536    20996210.506    20996220.058
       236.000         197.000
 -12717058.75349  -9887471.49847  20296981.561    20296981.149    20296989.668
       242.000         207.000
 00  5  3 16 34 29.9970000  0  6G 2G 4G 5G24G 7G 9
   1465724.81649   1143834.81746  21892819.634    21892818.443    21892829.989
       229.000         184.000
 -14900835.49649 -11585144.77847  19458701.633    19458701.537    19458709.627
       241.000         208.000
 -15709623.54449 -12218639.43746  22291674.591    22291674.059    22291687.044
       226.000         171.000
 -19720278.62449 -15350453.49847  20930482.230    20930481.841    20930492.812
       234.000         189.000
   1281984.21749   1000933.23947  21000551.503    21000550.461    21000560.011
       235.000         194.000
 -12761924.61149  -9922431.91447  20288443.936    20288443.480    20288451.990
       243.000         208.000
 00  5  3 16 34 59.9970000  0  6G 2G 4G 5G24G 7G 9
   1496411.57449   1167746.44846  21898659.316    21898658.086    21898669.618
       229.000         184.000
 -14958220.36749 -11629860.26547  19447781.704    19447781.587    19447789.663
       241.000         209.000
 -15829864.75549 -12312333.78646  22268793.373    22268792.854    22268805.728
       224.000         172.000
 -19843621.57449 -15446564.82447  20907010.787    20907010.400    20907021.329
       232.000         189.000
   1304890.57249   1018782.29147  21004910.506    21004909.450    21004918.982
       236.000         195.000
 -12806233.47449  -9956958.30447  20280012.206    20280011.780    20280020.320
       242.000         208.000
 00  5  3 16 35 29.9970000  0  6G 2G 4G 5G24G 7G 9
   1527373.40549   1191872.40746  21904551.272    21904550.026    21904561.597
       230.000         180.000
 -15014997.66649 -11674102.31747  19436977.335    19436977.241    19436985.295
       242.000         208.000
 -15950050.19649 -12405984.65946  22245922.697    22245922.212    22245935.016
       226.000         171.000
 -19966621.94449 -15542409.19547  20883604.372    20883604.125    20883615.039
       234.000         188.000
   1327914.68949   1036723.10447  21009291.939    21009290.845    21009300.416
       238.000         197.000
 -12849966.41549  -9991035.92247  20271690.089    20271689.662    20271698.244
       243.000         207.000
 00  5  3 16 35 59.9970000  0  6G 2G 4G 5G24G 7G 9
   1558622.78549   1216222.46946  21910497.846    21910496.669    21910508.294
       227.000         178.000
 -15071154.07549 -11717860.55447  19426291.134    19426291.028    19426299.095
       242.000         208.000
 -16070165.78449 -12499581.09046  22223065.344    22223064.876    22223077.677
       227.000         173.000
 -20089264.25949 -15637974.54747  20860266.196    20860265.986    20860276.903
       234.000         189.000
   1351068.37849   1054764.86547  21013697.961    21013696.900    21013706.539
       237.000         198.000
 -12893110.37949 -10024654.59347  20263480.055    20263479.641    20263488.226
       243.000         208.000
 00  5  3 16 36 29.9970000  0  6G 2G 4G 5G24G 7G 9
   1590137.11449   1240778.94846  21916494.894    21916493.715    21916505.393
       226.000         176.000
 -15126711.31149 -11761151.90947  19415718.963    19415718.838    19415726.910
       240.000         207.000
 -16190232.70549 -12593139.62846  22200217.425    22200216.864    22200229.611
       226.000         170.000
 -20211568.52449 -15733276.50547  20836992.327    20836992.206    20837003.117
       233.000         190.000
   1374328.15249   1072889.28147  21018124.183    21018123.114    21018132.817
       235.000         195.000
 -12935687.05149 -10057831.22847  20255378.012    20255377.584    20255386.147
       242.000         208.000
 00  5  3 16 36 59.9960000  0  6G 2G 4G 5G24G 7G 9
   1621917.41949   1265542.68546  21922542.636    21922541.436    21922553.112
       227.000         177.000
 -15181664.87349 -11803972.86547  19405261.588    19405261.510    19405269.569
       239.000         207.000
 -16310243.23249 -12686654.21746  22177380.185    22177379.587    22177392.265
       225.000         174.000
 -20333526.09349 -15828308.29847  20813784.632    20813784.433    20813795.308
       234.000         191.000
   1397694.75149   1091096.97147  21022570.749    21022569.697    21022579.340
       236.000         195.000
 -12977692.59149 -10090562.81447  20247384.641    20247384.192    20247392.743
       242.000         208.000
 00  5  3 16 37 29.9960000  0  6G 2G 4G 5G24G 7G 9
   1653988.97149   1290533.36646  21928645.774    21928644.589    21928656.241
       226.000         175.000
 -15235994.44849 -11846307.60547  19394922.997    19394922.927    19394930.961
       240.000         207.000
 -16430180.91149 -12780112.05546  22154556.753    22154556.145    22154568.814
       223.000         173.000
 -20455119.22449 -15923056.11947  20790646.333    20790646.003    20790656.856
       235.000         190.000
   1421191.66449   1109406.19947  21027042.187    21027041.091    21027050.671
       236.000         195.000
 -13019106.47249 -10122833.37547  20239503.889    20239503.408    20239511.911
       242.000         207.000
 00  5  3 16 37 59.9960000  0  6G 2G 4G 5G24G 7G 9
   1686333.62949   1315736.85046  21934800.859    21934799.684    21934811.352
       228.000         177.000
 -15289715.09649 -11888167.85847  19384700.293    19384700.204    19384708.253
       241.000         208.000
 -16550057.32549 -12873522.13046  22131744.682    22131744.216    22131756.959
       224.000         171.000
 -20576358.74549 -16017528.40247  20767575.065    20767574.836    20767585.675
       235.000         191.000
   1444800.33349   1127802.47947  21031534.809    21031533.716    21031543.323
       237.000         196.000
 -13059943.96449 -10154654.80147  20231732.792    20231732.308    20231740.779
       243.000         208.000
 00  5  3 16 38 29.9960000  0  6G 2G 4G 5G24G 7G 9
   1718932.22749   1341138.21646  21941004.276    21941003.091    21941014.800
       226.000         177.000
 -15342845.14449 -11929567.89247  19374590.043    19374589.933    19374597.970
       240.000         208.000
 -16669890.15849 -12966898.23446  22108940.918    22108940.574    22108953.412
       224.000         172.000
 -20697260.89649 -16111737.79647  20744568.103    20744567.849    20744578.681
       235.000         192.000
   1468500.95949   1146270.42447  21036044.919    21036043.833    21036053.484
       235.000         196.000
 -13100223.81649 -10186041.69447  20224067.790    20224067.313    20224075.809
       242.000         208.000
 00  5  3 16 38 59.9960000  0  6G 2G 4G 5G24G 7G 9
   1751841.01949   1366781.29246  21947266.647    21947265.484    21947277.307
       225.000         180.000
 -15395327.81749 -11970463.48447  19364602.937    19364602.817    19364610.879
       240.000         208.000
 -16789621.52549 -13060195.29446  22086156.814    22086156.401    22086169.155
       226.000         174.000
 -20817766.94549 -16205638.53847  20721636.505    20721636.279    20721647.054
       234.000         191.000
   1492348.98649   1164853.22947  21040583.073    21040582.003    21040591.681
       235.000         194.000
 -13139889.34549 -10216949.90047  20216519.676    20216519.196    20216527.703
       241.000         208.000
 00  5  3 16 39 29.9960000  0  6G 2G 4G 5G24G 7G 9
   1785026.97749   1392640.32646  21953581.838    21953580.657    21953592.554
       227.000         181.000
 -15447195.18649 -12010879.62847  19354732.890    19354732.807    19354740.826
       241.000         207.000
 -16909282.83149 -13153437.75346  22063386.063    22063385.557    22063398.265
       226.000         176.000
 -20937907.06649 -16299254.14847  20698774.651    20698774.339    20698785.052
       236.000         193.000
   1516310.84249   1183524.73447  21045142.926    21045141.853    21045151.521
       236.000         194.000
 -13178972.72349 -10247404.49647  20209082.316    20209081.871    20209090.373
       243.000         208.000
 00  5  3 16 39 59.9960000  0  6G 2G 4G 5G24G 7G 9
   1818481.58049   1418708.70546  21959948.120    21959946.954    21959958.908
       229.000         182.000
 -15498455.51649 -12050822.74447  19344978.353    19344978.264    19344986.284
       241.000         207.000
 -17028881.25049 -13246631.21746  22040627.145    22040626.642    22040639.342
       228.000         175.000
 -21057687.28449 -16392589.30547  20675981.253    20675980.902    20675991.548
       238.000         193.000
   1540377.02449   1202277.52947  21049722.663    21049721.572    21049731.248
       237.000         195.000
 -13217482.29549 -10277411.95547  20201754.156    20201753.727    20201762.244
       243.000         207.000
 00  5  3 16 40 29.9960000  0  6G 2G 4G 5G24G 7G 9
   1852227.29249   1445003.92846  21966369.802    21966368.634    21966380.668
       226.000         181.000
 -15549085.58249 -12090274.74547  19335343.762    19335343.691    19335351.731
       240.000         208.000
 -17148392.55649 -13339756.80146  22017884.923    22017884.367    22017896.954
       225.000         175.000
 -21177082.66149 -16485624.58847  20653260.966    20653260.673    20653271.283
       235.000         193.000
   1564569.46649   1221128.71347  21054326.429    21054325.309    21054335.016
       235.000         194.000
 -13255395.31749 -10306954.57447  20194539.446    20194539.089    20194547.643
       242.000         207.000
 00  5  3 16 40 59.9960000  0  6G 2G 4G 5G24G 7G 9
   1886244.93949   1471511.04046  21972843.227    21972842.066    21972854.134
       227.000         180.000
 -15599104.20849 -12129250.30447  19325825.589    19325825.459    19325833.535
       239.000         208.000
 -17267834.48449 -13432828.33446  21995155.717    21995155.202    21995167.760
       226.000         176.000
 -21296109.74849 -16578372.89447  20630610.774    20630610.498    20630621.099
       235.000         194.000
   1588868.20549   1240062.72147  21058950.367    21058949.255    21058958.959
       235.000         193.000
 -13292730.64649 -10336047.04447  20187434.751    20187434.398    20187442.956
       242.000         208.000
 00  5  3 16 41 29.9960000  0  6G 2G 4G 5G24G 7G 9
   1920517.42149   1498216.71246  21979365.117    21979363.995    21979376.099
       226.000         177.000
 -15648527.66649 -12167762.09147  19316420.561    19316420.480    19316428.557
       241.000         208.000
 -17387222.20749 -13525857.61546  21972436.855    21972436.395    21972448.985
       228.000         177.000
 -21414782.91549 -16670845.41747  20608027.907    20608027.672    20608038.260
       238.000         194.000
   1613255.67149   1259065.88547  21063591.271    21063590.112    21063599.736
       238.000         193.000
 -13329504.74749 -10364702.19547  20180436.814    20180436.497    20180445.067
       242.000         207.000
 00  5  3 16 41 59.9960000  0  6G 2G 4G 5G24G 7G 9
   1955063.04749   1525135.22546  21985939.028    21985937.892    21985950.032
       224.000         175.000
 -15697337.29449 -12205795.57447  19307132.417    19307132.307    19307140.405
       240.000         208.000
 -17506535.75249 -13618829.10146  21949732.249    21949731.704    21949744.313
       227.000         177.000
 -21533081.28649 -16763025.89547  20585516.473    20585516.218    20585526.758
       236.000         195.000
   1637749.52249   1278151.94147  21068252.405    21068251.243    21068260.781
       236.000         194.000
 -13365699.33849 -10392905.77847  20173549.210    20173548.885    20173557.469
       243.000         208.000
 00  5  3 16 42 29.9960000  0  6G 2G 4G 5G24G 7G 9
   1989899.83049   1552280.62046  21992568.368    21992567.216    21992579.410
       222.000         172.000
 -15745514.88049 -12243336.54747  19297964.541    19297964.432    19297972.501
       239.000         208.000
 -17625755.77749 -13711727.72046  21927045.277    21927044.780    21927057.419
       225.000         177.000
 -21650984.44249 -16854898.41047  20563080.323    20563079.977    20563090.462
       238.000         195.000
   1662366.90149   1297334.23247  21072936.951    21072935.809    21072945.377
       233.000         193.000
 -13401296.09049 -10420643.51247  20166775.452    20166775.063    20166783.657
       241.000         208.000
 00  5  3 16 42 59.9960000  0  6G 2G 4G 5G24G 7G 9
   2025008.10149   1579637.55946  21999249.340    21999248.201    21999260.461
       220.000         171.000
 -15793079.15249 -12280399.62147  19288913.347    19288913.246    19288921.332
       239.000         208.000
 -17744900.08749 -13804567.33846  21904372.673    21904372.237    21904384.947
       225.000         177.000
 -21768508.98649 -16946475.90847  20540716.137    20540715.754    20540726.220
       237.000         195.000
   1687087.71549   1316597.10847  21077641.133    21077640.038    21077649.679
       234.000         194.000
 -13436314.26949 -10447930.40847  20160111.743    20160111.320    20160119.917
       242.000         208.000
 00  5  3 16 43 29.9960000  0  6G 2G 4G 5G24G 7G 9
   2060384.51249   1607203.43046  22005981.377    22005980.217    22005992.487
       220.000         168.000
 -15840033.26649 -12316987.24547  19279978.264    19279978.179    19279986.256
       240.000         208.000
 -17863970.21649 -13897349.14946  21881714.287    21881713.829    21881726.572
       227.000         177.000
 -21885656.12349 -17037759.33247  20518423.671    20518423.357    20518433.796
       237.000         196.000
   1711908.02649   1335937.53347  21082364.344    21082363.244    21082372.917
       237.000         194.000
 -13470757.01249 -10474768.91847  20153557.560    20153557.098    20153565.654
       242.000         208.000
 00  5  3 16 43 59.9960000  0  6G 2G 4G 5G24G 7G 9
   2096013.49749   1634966.10946  22012761.477    22012760.272    22012772.571
       221.000         167.000
 -15886392.17249 -12353111.06647  19271156.523    19271156.398    19271164.457
       240.000         209.000
 -17982980.00949 -13990083.94346  21859067.372    21859066.913    21859079.643
       226.000         177.000
 -22002438.58749 -17128758.58447  20496200.617    20496200.331    20496210.790
       238.000         196.000
   1736811.68549   1355342.92547  21087103.408    21087102.319    21087111.980
       236.000         194.000
 -13504639.45849 -10501170.82247  20147109.952    20147109.482    20147118.052
       242.000         208.000
 00  5  3 16 44 29.9960000  0  6G 2G 4G 5G24G 7G 9
   2131914.70749   1662940.93446  22019593.378    22019592.160    22019604.502
       220.000         169.000
 -15932135.89249 -12388755.52847  19262451.764    19262451.668    19262459.722
       240.000         208.000
 -18101908.11949 -14082755.10946  21836436.096    21836435.610    21836448.199
       228.000         179.000
 -22118834.22049 -17219456.42247  20474051.164    20474050.922    20474061.392
       237.000         196.000
   1761817.89149   1374828.22147  21091861.961    21091860.886    21091870.541
       235.000         192.000
 -13537941.58449 -10527120.53347  20140772.758    20140772.305    20140780.893
       242.000         208.000
 00  5  3 16 44 59.9960000  0  6G 2G 4G 5G24G 7G 9
   2168076.29849   1691118.63446  22026474.816    22026473.590    22026485.984
       226.000         169.000
 -15977275.82349 -12423929.50047  19253861.939    19253861.832    19253869.881
       242.000         208.000
 -18220764.73349 -14175370.55046  21813818.547    21813817.933    21813830.320
       228.000         176.000
 -22234852.31349 -17309860.07447  20451973.649    20451973.363    20451983.810
       240.000         196.000
   1786914.14049   1394383.66947  21096637.636    21096636.572    21096646.249
       235.000         189.000
 -13570675.13849 -10552627.20547  20134543.781    20134543.320    20134551.899
       244.000         208.000
 00  5  3 16 45 29.9960000  0  6G 2G 4G 5G24G 7G 9
   2204516.10649   1719513.14146  22033409.184    22033407.946    22033420.413
       224.000         170.000
 -16021793.86749 -12458618.89247  19245390.400    19245390.301    19245398.405
       240.000         208.000
 -18339530.41249 -14267915.12446  21791218.075    21791217.502    21791229.796
       228.000         179.000
 -22350472.54549 -17399953.70847  20429971.806    20429971.493    20429981.952
       237.000         196.000
   1812117.71749   1414022.74147  21101433.747    21101432.689    21101442.400
       235.000         191.000
 -13602821.99549 -10577676.71047  20128426.440    20128425.978    20128434.553
       243.000         209.000
 00  5  3 16 45 59.9960000  0  6G 2G 4G 5G24G 7G 9
   2241219.98349   1748113.39646  22040393.811    22040392.561    22040405.048
       224.000         172.000
 -16065703.93549 -12492834.53247  19237034.641    19237034.521    19237042.622
       240.000         208.000
 -18458217.28349 -14360398.30246  21768632.681    21768632.097    21768644.305
       228.000         179.000
 -22465706.29449 -17489746.18347  20408043.506    20408043.186    20408053.626
       237.000         197.000
   1837413.85849   1433733.97147  21106247.514    21106246.467    21106256.141
       234.000         191.000
 -13634396.12649 -10602279.92947  20122418.125    20122417.645    20122426.217
       242.000         209.000
 00  5  3 16 46 29.9960000  0  6G 2G 4G 5G24G 7G 9
   2278207.14749   1776934.40246  22047432.317    22047431.091    22047443.619
       225.000         173.000
 -16108985.95949 -12526560.78247  19228798.341    19228798.216    19228806.317
       239.000         208.000
 -18576804.15849 -14452803.54246  21746066.205    21746065.672    21746077.818
       228.000         179.000
 -22580531.67449 -17579220.44447  20386193.008    20386192.625    20386202.999
       238.000         197.000
   1862821.58849   1453532.13847  21111082.494    21111081.457    21111091.167
       234.000         193.000
 -13665378.27649 -10626421.86047  20116522.451    20116521.950    20116530.538
       242.000         209.000
 00  5  3 16 46 59.9960000  0  6G 2G 4G 5G24G 7G 9
   2315446.20049   1805951.66646  22054518.861    22054517.568    22054530.143
       225.000         174.000
 -16151671.26349 -12559822.06347  19220675.590    19220675.492    19220683.564
       239.000         208.000
 -18695320.52749 -14545153.83946  21723513.376    21723512.757    21723524.794
       230.000         180.000
 -22694977.55449 -17668398.99247  20364414.588    20364414.254    20364424.580
       237.000         196.000
   1888309.02549   1473392.39447  21115932.671    21115931.612    21115941.398
       235.000         194.000
 -13695799.44949 -10650126.68047  20110733.502    20110733.019    20110741.573
       242.000         209.000
 00  5  3 16 47 29.9960000  0  6G 2G 4G 5G24G 7G 9
   2352957.25349   1835180.88846  22061657.122    22061655.806    22061668.427
       223.000         172.000
 -16193739.52149 -12592602.52947  19212670.239    19212670.151    19212678.245
       240.000         208.000
 -18813744.69249 -14637432.30446  21700977.962    21700977.344    21700989.283
       231.000         178.000
 -22809021.43549 -17757264.30147  20342712.667    20342712.369    20342722.664
       239.000         196.000
   1913895.57449   1493329.89447  21120801.747    21120800.649    21120810.482
       237.000         193.000
 -13725639.28149 -10673378.50147  20105055.142    20105054.687    20105063.263
       244.000         209.000
 00  5  3 16 47 59.9960000  0  6G 2G 4G 5G24G 7G 9
   2390747.22549   1864627.43246  22068848.381    22068847.104    22068859.790
       224.000         170.000
 -16235183.39549 -12624896.46347  19204783.757    19204783.652    19204791.768
       242.000         208.000
 -18932067.82349 -14729632.03646  21678461.790    21678461.149    21678473.062
       230.000         177.000
 -22922653.82649 -17845808.96047  20321089.068    20321088.779    20321099.056
       240.000         196.000
   1939587.76249   1513349.73247  21125690.871    21125689.799    21125699.631
       236.000         188.000
 -13754890.80149 -10696171.90147  20099488.790    20099488.315    20099496.894
       245.000         209.000
 00  5  3 16 48 29.9960000  0  6G 2G 4G 5G24G 7G 9
   2428804.76849   1894282.47646  22076090.574    22076089.317    22076102.071
       219.000         168.000
 -16276014.17449 -12656712.66347  19197013.925    19197013.816    19197021.946
       239.000         208.000
 -19050299.43149 -14821760.44046  21655963.005    21655962.361    21655974.217
       229.000         179.000
 -23035883.52849 -17934039.84047  20299542.066    20299541.803    20299552.087
       236.000         197.000
   1965373.81149   1533442.69646  21130597.778    21130596.750    21130606.585
       232.000         187.000
 -13783565.65449 -10718515.94947  20094032.129    20094031.676    20094040.251
       243.000         209.000
 00  5  3 16 48 59.9960000  0  6G 2G 4G 5G24G 7G 9
   2467119.83449   1924138.20046  22083381.704    22083380.528    22083393.376
       220.000         168.000
 -16316241.41449 -12688058.58247  19189358.877    19189358.800    19189366.948
       239.000         208.000
 -19168447.53349 -14913823.79646  21633480.032    21633479.447    21633491.267
       227.000         178.000
 -23148717.72849 -18021962.53847  20278070.315    20278070.080    20278080.388
       237.000         197.000
   1991243.38649   1553600.73947  21135520.649    21135519.599    21135529.461
       234.000         192.000
 -13811673.26049 -10740417.98647  20088683.479    20088682.986    20088691.519
       242.000         209.000
 00  5  3 16 49 29.9960000  0  6G 2G 4G 5G24G 7G 9
   2505707.17049   1954206.05346  22090724.820    22090723.602    22090736.471
       217.000         164.000
 -16355849.95349 -12718922.40447  19181821.663    19181821.569    19181829.685
       241.000         208.000
 -19286495.62549 -15005809.22146  21611015.883    21611015.433    21611027.295
       227.000         177.000
 -23261139.25049 -18109563.68747  20256677.212    20256676.938    20256687.212
       238.000         197.000
   2017211.01349   1573835.17547  21140462.250    21140461.158    21140471.024
       238.000         194.000
 -13839198.73149 -10761866.42647  20083445.541    20083445.059    20083453.590
       246.000         209.000
 00  5  3 16 49 59.9960000  0  6G 2G 4G 5G24G 7G 9
   2544570.26849   1984488.80046  22098120.368    22098119.130    22098132.030
       218.000         164.000
 -16394836.28349 -12749301.36747  19174402.850    19174402.727    19174410.834
       241.000         208.000
 -19404438.16649 -15097712.39146  21588572.156    21588571.631    21588583.447
       229.000         180.000
 -23373141.89749 -18196838.40247  20235363.732    20235363.504    20235373.765
       239.000         197.000
   2043279.65949   1594148.36047  21145423.070    21145421.948    21145431.794
       238.000         193.000
 -13866138.52449 -10782858.46847  20078319.033    20078318.568    20078327.134
       246.000         209.000
 00  5  3 16 50 29.9960000  0  6G 2G 4G 5G24G 7G 9
   2583705.92849   2014983.95245  22105567.823    22105566.541    22105579.456
       214.000         162.000
 -16433203.33149 -12779197.78247  19167101.857    19167101.733    19167109.835
       239.000         208.000
 -19522276.43749 -15189534.31146  21566148.233    21566147.714    21566159.484
       228.000         180.000
 -23484726.46249 -18283787.35647  20214129.930    20214129.631    20214139.853
       238.000         197.000
   2069445.74849   1614537.46147  21150402.403    21150401.264    21150411.074
       234.000         192.000
 -13892495.68049 -10803396.52147  20073303.490    20073302.989    20073311.520
       244.000         209.000
 00  5  3 16 50 59.9960000  0  6G 2G 4G 5G24G 7G 9
   2623090.37349   2045672.94746  22113062.543    22113061.291    22113074.243
       219.000         164.000
 -16470974.66649 -12808630.01447  19159914.203    19159914.094    19159922.223
       239.000         208.000
 -19640032.20549 -15281291.94246  21543739.901    21543739.407    21543751.274
       231.000         181.000
 -23595914.21249 -18370427.10547  20192971.563    20192971.271    20192981.460
       238.000         197.000
   2095685.24149   1634983.76947  21155395.626    21155394.500    21155404.327
       234.000         191.000
 -13918294.11849 -10823499.21447  20068394.266    20068393.739    20068402.240
       244.000         209.000
 00  5  3 16 51 29.9960000  0  6G 2G 4G 5G24G 7G 9
   2662749.78649   2076576.16845  22120609.708    22120608.398    22120621.365
       218.000         160.000
 -16508123.73349 -12837577.35647  19152844.990    19152844.871    19152852.985
       239.000         208.000
 -19757677.19649 -15372963.26746  21521352.894    21521352.301    21521364.126
       230.000         182.000
 -23706676.26449 -18456735.14847  20171894.197    20171893.868    20171904.102
       237.000         197.000
   2122024.08249   1655507.49347  21160407.723    21160406.634    21160416.483
       232.000         190.000
 -13943507.37149 -10843145.91947  20063596.353    20063595.809    20063604.333
       244.000         209.000
 00  5  3 16 51 59.9960000  0  6G 2G 4G 5G24G 7G 9
   2702654.18149   2107670.30845  22128203.435    22128202.122    22128215.066
       217.000         160.000
 -16544680.49849 -12866063.16847  19145888.486    19145888.355    19145896.438
       239.000         207.000
 -19875239.41549 -15464570.08546  21498981.380    21498980.864    21498992.756
       230.000         180.000
 -23817040.12149 -18542732.91047  20150892.452    20150892.255    20150902.537
       237.000         196.000
   2148432.01749   1676085.03347  21165432.966    21165431.917    21165441.812
       233.000         189.000
 -13968165.55649 -10862360.10547  20058904.056    20058903.513    20058912.058
       244.000         210.000
 00  5  3 16 52 29.9960000  0  6G 2G 4G 5G24G 7G 9
   2742798.09949   2138951.10745  22135842.703    22135841.396    22135854.391
       219.000         161.000
 -16580650.31449 -12894091.61947  19139043.626    19139043.534    19139051.617
       239.000         208.000
 -19992722.23549 -15556115.04246  21476625.065    21476624.525    21476636.425
       230.000         181.000
 -23927008.72749 -18628422.68847  20129966.113    20129965.865    20129976.146
       238.000         198.000
   2174903.21649   1696711.88147  21170470.293    21170469.241    21170479.174
       234.000         192.000
 -13992274.03049 -10881145.94647  20054316.350    20054315.827    20054324.362
       244.000         209.000
 00  5  3 16 52 59.9960000  0  6G 2G 4G 5G24G 7G 9
   2783197.57549   2170431.04645  22143530.559    22143529.273    22143542.362
       217.000         160.000
 -16616016.83149 -12921649.97047  19132313.651    19132313.521    19132321.618
       239.000         209.000
 -20110107.55049 -15647584.02946  21454287.321    21454286.768    21454298.616
       230.000         181.000
 -24036563.45749 -18713789.95947  20109118.552    20109118.261    20109128.484
       238.000         197.000
   2201453.38349   1717400.27747  21175522.689    21175521.641    21175531.572
       234.000         192.000
 -14015816.65349 -10899490.86347  20049836.405    20049835.851    20049844.374
       244.000         209.000
 00  5  3 16 53 29.9960000  0  6G 2G 4G 5G24G 7G 9
   2823849.56549   2202107.75045  22151266.550    22151265.237    22151278.342
       218.000         161.000
 -16650783.44649 -12948740.86647  19125697.821    19125697.681    19125705.789
       239.000         209.000
 -20227396.53149 -15738977.93446  21431967.930    21431967.361    21431979.118
       231.000         182.000
 -24145705.19549 -18798835.42247  20088349.590    20088349.254    20088359.405
       238.000         198.000
   2228079.07449   1738147.52547  21180589.419    21180588.372    21180598.347
       233.000         190.000
 -14038796.85349 -10917397.53347  20045463.446    20045462.883    20045471.408
       244.000         210.000
 00  5  3 16 53 59.9960000  0  6G 2G 4G 5G24G 7G 9
   2864763.68249   2233988.68245  22159052.503    22159051.077    22159064.217
       220.000         161.000
 -16684940.20349 -12975356.54447  19119198.117    19119197.914    19119206.007
       242.000         209.000
 -20344577.33449 -15830287.56446  21409669.188    21409668.558    21409680.167
       233.000         182.000
 -24254421.41849 -18883549.31447  20067661.550    20067661.218    20067671.284
       241.000         197.000
   2254789.88049   1758961.08547  21185672.301    21185671.278    21185681.313
       235.000         190.000
 -14061204.74749 -10934858.25047  20041199.365    20041198.810    20041207.335
       246.000         209.000
 00  5  3 16 54 29.9960000  0  6G 2G 4G 5G24G 7G 9
   2905952.59749   2266083.74845  22166890.658    22166889.254    22166902.344
       220.000         162.000
 -16718474.22049 -13001486.97447  19112816.843    19112816.632    19112824.659
       241.000         208.000
 -20461635.30249 -15921501.46646  21387393.632    21387393.069    21387404.632
       231.000         181.000
 -24362697.04849 -18967919.89947  20047057.359    20047057.010    20047067.035
       241.000         197.000
   2281598.18549   1779850.61147  21190773.806    21190772.764    21190782.848
       235.000         190.000
 -14083027.55249 -10951863.06047  20037046.645    20037046.087    20037054.613
       245.000         209.000
 00  5  3 16 54 59.9960000  0  6G 2G 4G 5G24G 7G 9
   2947414.11849   2298391.22645  22174780.664    22174779.307    22174792.401
       217.000         162.000
 -16751387.69049 -13027133.85247  19106553.582    19106553.397    19106561.433
       241.000         208.000
 -20578570.60649 -16012619.79146  21365141.363    21365140.888    21365152.527
       231.000         183.000
 -24470532.00049 -19051947.08647  20026536.930    20026536.639    20026546.691
       241.000         198.000
   2308501.47249   1800814.16047  21195893.380    21195892.339    21195902.466
       234.000         190.000
 -14104267.97149 -10968414.05047  20033004.695    20033004.165    20033012.718
       245.000         209.000
 00  5  3 16 55 29.9960000  0  6G 2G 4G 5G24G 7G 9
   2989134.47949   2330900.37845  22182720.000    22182718.589    22182731.688
       215.000         162.000
 -16783694.35249 -13052307.90647  19100405.822    19100405.666    19100413.716
       240.000         209.000
 -20695394.53649 -16103651.31746  21342910.371    21342909.914    21342921.618
       230.000         183.000
 -24577937.11749 -19135639.35247  20006098.420    20006098.086    20006108.183
       240.000         198.000
   2335486.09149   1821841.07747  21201028.439    21201027.390    21201037.553
       235.000         191.000
 -14124939.32649 -10984521.62247  20029071.072    20029070.551    20029079.106
       245.000         210.000
 00  5  3 16 55 59.9960000  0  6G 2G 4G 5G24G 7G 9
   3031132.11749   2363625.56745  22190711.965    22190710.653    22190723.763
       212.000         160.000
 -16815375.85349 -13076994.82147  19094377.044    19094376.890    19094384.956
       240.000         208.000
 -20812086.79149 -16194580.27046  21320704.443    21320704.011    21320715.706
       232.000         184.000
 -24684891.78549 -19218980.61247  19985745.581    19985745.253    19985755.401
       240.000         198.000
   2362570.00849   1842945.37447  21206182.464    21206181.365    21206191.514
       235.000         191.000
 -14145023.80049 -11000171.88347  20025249.204    20025248.645    20025257.178
       244.000         209.000
 00  5  3 16 56 29.9960000  0  6G 2G 4G 5G24G 7G 9
   3073380.67149   2396546.29245  22198751.809    22198750.495    22198763.573
       210.000         159.000
 -16846458.49149 -13101215.08847  19088462.196    19088462.054    19088470.146
       240.000         208.000
 -20928671.55549 -16285425.45046  21298519.218    21298518.657    21298530.261
       232.000         184.000
 -24791419.73249 -19301989.36447  19965474.024    19965473.650    19965483.794
       240.000         198.000
   2389726.79149   1864106.45847  21211350.320    21211349.205    21211359.312
       235.000         190.000
 -14164547.51949 -11015385.19047  20021533.906    20021533.402    20021541.951
       244.000         209.000
 00  5  3 16 56 59.9960000  0  6G 2G 4G 5G24G 7G 9
   3115902.18749   2429679.71945  22206843.489    22206842.165    22206855.377
       209.000         157.000
 -16876919.97049 -13124951.33547  19082665.582    19082665.452    19082673.524
       241.000         208.000
 -21045124.50149 -16376167.90846  21276358.871    21276358.335    21276369.976
       232.000         183.000
 -24897496.34049 -19384646.42947  19945288.283    19945287.921    19945298.043
       241.000         198.000
   2416978.58449   1885341.56846  21216536.166    21216535.086    21216545.190
       233.000         186.000
 -14183488.17149 -11030144.16247  20017929.683    20017929.146    20017937.676
       247.000         209.000
 00  5  3 16 57 29.9960000  0  6G 2G 4G 5G24G 7G 9
   3158690.67249   2463021.18545  22214985.958    22214984.673    22214997.979
       202.000         156.000
 -16906766.61349 -13148208.49047  19076985.981    19076985.838    19076993.915
       239.000         209.000
 -21161449.45349 -16466810.63146  21254222.938    21254222.376    21254234.044
       229.000         184.000
 -25003125.40549 -19466954.75847  19925187.714    19925187.337    19925197.452
       239.000         198.000
   2444318.96649   1906645.68046  21221738.812    21221737.752    21221747.927
       229.000         186.000
 -14201852.55549 -11044454.09947  20014435.105    20014434.555    20014443.048
       244.000         209.000
 00  5  3 16 57 59.9960000  0  6G 2G 4G 5G24G 7G 9
   3201746.23949   2496570.75645  22223179.392    22223178.106    22223191.372
       203.000         156.000
 -16935997.93749 -13170986.16647  19071423.572    19071423.362    19071431.422
       240.000         209.000
 -21277643.72249 -16557351.54346  21232111.698    21232111.213    21232122.934
       228.000         184.000
 -25108303.91249 -19548911.99847  19905172.844    19905172.474    19905182.579
       239.000         197.000
   2471748.27049   1928019.08647  21226958.450    21226957.407    21226967.599
       231.000         188.000
 -14219640.11449 -11058314.55947  20011050.243    20011049.707    20011058.209
       244.000         209.000
 00  5  3 16 58 29.9960000  0  6G 2G 4G 5G24G 7G 9
   3245071.08949   2530330.16545  22231424.014    22231422.713    22231435.982
       205.000         156.000
 -16964611.86749 -13193282.76947  19065978.502    19065978.318    19065986.407
       239.000         208.000
 -21393703.09449 -16647787.32946  21210026.237    21210025.758    21210037.483
       230.000         184.000
 -25213027.31749 -19630514.61547  19885244.523    19885244.201    19885254.317
       239.000         198.000
   2499268.62249   1949463.45547  21232195.469    21232194.407    21232204.624
       234.000         190.000
 -14236848.94649 -11071724.06747  20007775.563    20007775.010    20007783.489
       244.000         209.000
 00  5  3 16 58 59.9950000  0  6G 2G 4G 5G24G 7G 9
   3288654.73149   2564291.20045  22239717.884    22239716.545    22239729.874
       206.000         157.000
 -16992616.93349 -13215104.92447  19060649.339    19060649.150    19060657.252
       240.000         208.000
 -21509630.80949 -16738120.52446  21187965.847    21187965.365    21187977.084
       231.000         183.000
 -25317298.96449 -19711765.22047  19865402.213    19865401.903    19865412.017
       240.000         198.000
   2526869.80549   1970970.81747  21237447.851    21237446.777    21237457.002
       235.000         188.000
 -14253488.02049 -11084689.61047  20004609.284    20004608.714    20004617.198
       245.000         209.000
 00  5  3 16 59 29.9950000  0  6G 2G 4G 5G24G 7G 9
   3332488.49849   2598447.16445  22248059.425    22248057.986    22248071.353
       209.000         158.000
 -17020026.61049 -13236463.13647  19055433.516    19055433.292    19055441.398
       241.000         208.000
 -21625443.58549 -16828364.15546  21165927.299    21165926.835    21165938.574
       232.000         184.000
 -25421134.72249 -19792676.16547  19845642.997    19845642.621    19845652.686
       241.000         198.000
   2554541.97449   1992533.49646  21242713.767    21242712.680    21242722.880
       233.000         187.000
 -14269569.95849 -11097221.02047  20001548.955    20001548.430    20001556.930
       246.000         209.000
 00  5  3 16 59 59.9950000  0  6G 2G 4G 5G24G 7G 9
   3376577.86849   2632802.29045  22256449.552    22256448.155    22256461.469
       211.000         161.000
 -17046832.78149 -13257351.09047  19050332.461    19050332.262    19050340.374
       239.000         208.000
 -21741128.44249 -16918508.13146  21143913.307    21143912.713    21143924.360
       230.000         184.000
 -25524521.48149 -19873237.24747  19825969.168    19825968.759    19825978.825
       239.000         199.000
   2582291.27949   2014156.26646  21247994.342    21247993.246    21248003.434
       231.000         185.000
 -14285087.45749 -11109312.61747  19998596.140    19998595.574    19998604.083
       245.000         209.000
 00  5  3 17  0 29.9950000  0  6G 2G 4G 5G24G 7G 9
   3420908.76549   2667345.62745  22264885.604    22264884.166    22264897.564
       212.000         162.000
 -17073049.84049 -13277779.99747  19045343.479    19045343.310    19045351.486
       239.000         208.000
 -21856697.08449 -17008561.51746  21121921.183    21121920.651    21121932.244
       231.000         184.000
 -25627471.32849 -19953457.86947  19806378.440    19806378.033    19806388.133
       239.000         199.000
   2610103.56649   2035828.10046  21253286.914    21253285.793    21253295.984
       230.000         186.000
 -14300055.02849 -11120975.69647  19995747.945    19995747.367    19995755.869
       244.000         209.000
 00  5  3 17  0 59.9950000  0  6G 2G 4G 5G24G 7G 9
   3465497.08249   2702089.56245  22273370.547    22273369.171    22273382.638
       214.000         162.000
 -17098661.79949 -13297737.39247  19040469.720    19040469.533    19040477.712
       239.000         208.000
 -21972131.05349 -17098509.97946  21099954.821    21099954.237    21099965.765
       230.000         184.000
 -25729965.62849 -20033323.52647  19786874.374    19786873.981    19786884.102
       238.000         199.000
   2637994.90549   2057561.53746  21258594.485    21258593.391    21258603.584
       230.000         187.000
 -14314456.47749 -11132197.63247  19993007.387    19993006.868    19993015.387
       243.000         209.000
 00  5  3 17  1 29.9950000  0  6G 2G 4G 5G24G 7G 9
   3510328.25149   2737022.72546  22281901.870    22281900.426    22281913.939
       216.000         163.000
 -17123683.56749 -13317234.91147  19035708.231    19035708.071    19035716.254
       240.000         207.000
 -22087442.71149 -17188363.14346  21078011.614    21078011.043    21078022.615
       231.000         183.000
 -25832016.41149 -20112843.59347  19767454.752    19767454.365    19767464.451
       240.000         198.000
   2665950.74849   2079345.22847  21263914.334    21263913.255    21263923.498
       233.000         188.000
 -14328306.73449 -11142990.08447  19990371.784    19990371.274    19990379.777
       245.000         209.000
 00  5  3 17  1 59.9950000  0  6G 2G 4G 5G24G 7G 9
   3555417.72649   2772157.17346  22290482.251    22290480.809    22290494.419
       218.000         164.000
 -17148099.79049 -13336260.55847  19031062.032    19031061.856    19031070.027
       239.000         207.000
 -22202614.33649 -17278107.17546  21056094.948    21056094.468    21056106.136
       230.000         184.000
 -25933605.94149 -20192004.22847  19748122.823    19748122.501    19748132.528
       240.000         199.000
   2693986.34449   2101191.06247  21269249.447    21269248.329    21269258.597
       233.000         191.000
 -14341590.77349 -11153341.31447  19987843.951    19987843.432    19987851.939
       245.000         209.000
 00  5  3 17  2 29.9950000  0  6G 2G 4G 5G24G 7G 9
   3600764.38049   2807492.02446  22299111.663    22299110.190    22299123.812
       217.000         163.000
 -17171911.74249 -13354815.35447  19026530.742    19026530.575    19026538.767
       238.000         207.000
 -22317644.56749 -17367741.05146  21034205.457    21034204.924    21034216.510
       230.000         185.000
 -26034733.05749 -20270804.53947  19728879.059    19728878.648    19728888.590
       239.000         199.000
   2722100.83549   2123098.36647  21274599.627    21274598.457    21274608.717
       232.000         190.000
 -14354309.77249 -11163252.25947  19985423.613    19985423.072    19985431.647
       243.000         209.000
 00  5  3 17  2 59.9950000  0  6G 2G 4G 5G24G 7G 9
   3646364.76749   2843024.58345  22307789.309    22307787.819    22307801.489
       213.000         160.000
 -17195123.05749 -13372902.12147  19022113.768    19022113.613    19022121.849
       238.000         207.000
 -22432534.47049 -17457265.56346  21012342.641    21012342.049    21012353.564
       231.000         185.000
 -26135398.61049 -20349245.19547  19709722.986    19709722.606    19709732.524
       238.000         199.000
   2750290.76749   2145064.46346  21279964.096    21279962.903    21279973.162
       231.000         186.000
 -14366467.38249 -11172725.75747  19983110.115    19983109.579    19983118.168
       245.000         209.000
 00  5  3 17  3 29.9950000  0  6G 2G 4G 5G24G 7G 9
   3692204.20349   2878743.40745  22316512.374    22316510.902    22316524.643
       213.000         159.000
 -17217748.52649 -13390532.38647  19017808.311    19017808.139    19017816.390
       239.000         207.000
 -22547296.34049 -17546690.30146  20990504.005    20990503.488    20990514.999
       231.000         185.000
 -26235614.81949 -20427335.71147  19690652.476    19690652.090    19690661.989
       240.000         200.000
   2778541.74149   2167078.14646  21285340.059    21285338.944    21285349.191
       230.000         183.000
 -14378078.60549 -11181773.49647  19980900.634    19980900.075    19980908.648
       244.000         209.000
 00  5  3 17  3 59.9950000  0  6G 2G 4G 5G24G 7G 9
   3738285.24449   2914650.48445  22325281.443    22325280.014    22325293.784
       214.000         160.000
 -17239785.99249 -13407704.46947  19013614.683    19013614.543    19013622.827
       239.000         207.000
 -22661925.25449 -17636011.43746  20968690.729    20968690.255    20968701.771
       231.000         185.000
 -26335376.85349 -20505072.32647  19671668.412    19671667.986    19671677.869
       239.000         199.000
   2806856.25049   2189141.33646  21290728.128    21290727.030    21290737.295
       231.000         182.000
 -14389141.48949 -11190393.95947  19978795.435    19978794.876    19978803.448
       244.000         208.000
 00  5  3 17  4 29.9950000  0  6G 2G 4G 5G24G 7G 9
   3784609.15049   2950746.81945  22334096.720    22334095.295    22334109.178
       213.000         157.000
 -17261234.33749 -13424417.49747  19009533.231    19009533.081    19009541.364
       239.000         207.000
 -22776417.51349 -17725226.08846  20946903.581    20946903.063    20946914.525
       232.000         185.000
 -26434681.16149 -20582452.27347  19652771.412    19652770.989    19652780.840
       239.000         199.000
   2835235.42349   2211254.89546  21296128.570    21296127.462    21296137.718
       230.000         185.000
 -14399655.19549 -11198586.49547  19976794.767    19976794.205    19976802.776
       244.000         208.000
 00  5  3 17  4 59.9950000  0  6G 2G 4G 5G24G 7G 9
   3831188.66349   2987042.38645  22342960.654    22342959.233    22342973.169
       210.000         159.000
 -17282081.11849 -13440661.76447  19005566.325    19005566.120    19005574.368
       240.000         208.000
 -22890757.77449 -17814322.30746  20925145.325    20925144.756    20925156.163
       231.000         184.000
 -26533512.45749 -20659463.63547  19633964.410    19633963.998    19633973.823
       240.000         200.000
   2863692.46949   2233429.12846  21301543.764    21301542.677    21301553.012
       230.000         185.000
 -14409606.98549 -11206341.17147  19974901.052    19974900.484    19974909.040
       244.000         208.000
 00  5  3 17  5 29.9950000  0  6G 2G 4G 5G24G 7G 9
   3878003.36149   3023521.13545  22351869.397    22351867.974    22351881.918
       209.000         155.000
 -17302347.10449 -13456453.46047  19001709.932    19001709.691    19001717.914
       240.000         208.000
 -23004964.19249 -17903314.21646  20903412.524    20903411.957    20903423.273
       232.000         186.000
 -26631888.86049 -20736120.53247  19615244.002    19615243.564    19615253.414
       239.000         200.000
   2892207.10549   2255648.22947  21306969.958    21306968.884    21306979.261
       232.000         189.000
 -14419017.57049 -11213674.12747  19973110.293    19973109.730    19973118.275
       244.000         208.000
 00  5  3 17  5 59.9950000  0  6G 2G 4G 5G24G 7G 9
   3925085.88949   3060208.61445  22360829.081    22360827.685    22360841.649
       212.000         158.000
 -17321999.67649 -13471767.17947  18997970.182    18997969.932    18997978.163
       239.000         207.000
 -23119001.61749 -17992174.44746  20881711.970    20881711.326    20881722.590
       232.000         186.000
 -26729775.31549 -20812395.66247  19596616.797    19596616.361    19596626.246
       240.000         200.000
   2920812.03749   2277937.70547  21312413.403    21312412.296    21312422.710
       233.000         188.000
 -14427854.75349 -11220560.28047  19971428.664    19971428.091    19971436.611
       244.000         208.000
 00  5  3 17  6 29.9950000  0  6G 2G 4G 5G24G 7G 9
   3972429.32749   3097099.39345  22369838.492    22369837.009    22369850.958
       209.000         157.000
 -17341046.08349 -13486608.55947  18994345.784    18994345.546    18994353.766
       240.000         207.000
 -23232874.42449 -18080906.40646  20860042.609    20860041.984    20860053.224
       232.000         186.000
 -26827176.37649 -20888292.55847  19578081.956    19578081.520    19578091.417
       240.000         201.000
   2949500.63149   2300292.38746  21317872.774    21317871.635    21317882.059
       234.000         186.000
 -14436125.69749 -11227005.20647  19969854.849    19969854.236    19969862.733
       244.000         208.000
 00  5  3 17  6 59.9950000  0  6G 2G 4G 5G24G 7G 9
   4020017.41049   3134180.80045  22378894.363    22378892.906    22378906.909
       209.000         158.000
 -17359502.89649 -13500990.51547  18990833.574    18990833.341    18990841.539
       238.000         207.000
 -23346596.05549 -18169520.57046  20838402.088    20838401.445    20838412.608
       231.000         187.000
 -26924105.82149 -20963821.95747  19559636.850    19559636.433    19559646.296
       240.000         201.000
   2978256.91049   2322699.81046  21323345.008    21323343.850    21323354.246
       231.000         183.000
 -14443846.89049 -11233021.75447  19968385.553    19968384.950    19968393.458
       244.000         207.000
 00  5  3 17  7 29.9950000  0  6G 2G 4G 5G24G 7G 9
   4067830.66949   3171437.67245  22387993.059    22387991.637    22388005.674
       208.000         157.000
 -17377389.87349 -13514928.44047  18987429.807    18987429.580    18987437.799
       239.000         207.000
 -23460183.53549 -18258030.19546  20816787.062    20816786.420    20816797.577
       232.000         187.000
 -27020580.87649 -21038997.29247  19541278.223    19541277.811    19541287.653
       240.000         201.000
   3007061.56049   2345144.92846  21328826.370    21328825.236    21328835.629
       228.000         180.000
 -14451038.26449 -11238625.45247  19967017.089    19967016.498    19967025.021
       243.000         207.000
 00  5  3 17  7 59.9950000  0  6G 2G 4G 5G24G 7G 9
   4115888.30749   3208884.94345  22397138.350    22397136.899    22397150.934
       208.000         158.000
 -17394688.12249 -13528407.62847  18984138.017    18984137.814    18984146.055
       238.000         207.000
 -23573615.03849 -18346418.29346  20795201.704    20795201.073    20795212.194
       232.000         187.000
 -27116580.04949 -21113801.81747  19523010.160    19523009.746    19523019.595
       240.000         202.000
   3035934.10149   2367642.92446  21334320.644    21334319.525    21334329.957
       228.000         182.000
 -14457681.17349 -11243801.78447  19965752.982    19965752.393    19965760.950
       243.000         207.000
 00  5  3 17  8 29.9950000  0  6G 2G 4G 5G24G 7G 9
   4164188.70949   3246521.46645  22406329.730    22406328.305    22406342.418
       206.000         159.000
 -17411399.92049 -13541429.82647  18980957.845    18980957.663    18980965.899
       238.000         206.000
 -23686889.84049 -18434684.28546  20773646.130    20773645.509    20773656.620
       232.000         187.000
 -27212102.66149 -21188234.99347  19504832.801    19504832.390    19504842.211
       240.000         202.000
   3064872.97049   2390192.61646  21339827.599    21339826.458    21339836.929
       229.000         183.000
 -14463777.93149 -11248552.53947  19964592.813    19964592.233    19964600.805
       243.000         208.000
 00  5  3 17  8 59.9950000  0  6G 2G 4G 5G24G 7G 9
   4212731.99749   3284347.15645  22415567.386    22415565.911    22415580.093
       210.000         161.000
 -17427525.20049 -13553994.99847  18977889.337    18977889.147    18977897.354
       239.000         207.000
 -23800005.27949 -18522826.09847  20752120.932    20752120.304    20752131.386
       234.000         188.000
 -27307146.24449 -21262294.90647  19486746.627    19486746.182    19486755.986
       241.000         202.000
   3093878.61649   2412794.33946  21345347.270    21345346.121    21345356.605
       232.000         183.000
 -14469328.64949 -11252877.81047  19963536.561    19963535.987    19963544.589
       244.000         208.000
 00  5  3 17  9 29.9950000  0  6G 2G 4G 5G24G 7G 9
   4261522.46149   3322365.52245  22424852.031    22424850.574    22424864.806
       206.000         158.000
 -17443060.12049 -13566100.14347  18974933.112    18974932.928    18974941.178
       239.000         206.000
 -23912954.41449 -18610838.29647  20730627.424    20730626.746    20730637.818
       234.000         188.000
 -27401704.24149 -21335976.43147  19468752.859    19468752.375    19468762.170
       240.000         203.000
   3122955.80549   2435451.84246  21350880.587    21350879.404    21350889.878
       231.000         182.000
 -14474329.23649 -11256774.39947  19962584.984    19962584.440    19962593.042
       243.000         207.000
 00  5  3 17  9 59.9950000  0  6G 2G 4G 5G24G 7G 9
   4310537.71149   3360558.96146  22434179.447    22434178.038    22434192.330
       215.000         171.000
 -17458027.35249 -13577762.94847  18972084.924    18972084.779    18972093.029
       241.000         207.000
 -24025756.75149 -18698736.14347  20709161.986    20709161.191    20709172.146
       235.000         188.000
 -27495796.60049 -21409295.13247  19450847.680    19450847.195    19450856.993
       242.000         202.000
   3152082.30849   2458147.75746  21356423.232    21356422.056    21356432.552
       230.000         180.000
 -14478802.73149 -11260260.28147  19961733.750    19961733.187    19961741.795
       246.000         207.000
 00  5  3 17 10 29.9950000  0  6G 2G 4G 5G24G 7G 9
   4359790.77849   3398937.78346  22443552.142    22443550.727    22443565.098
       213.000         172.000
 -17472414.33949 -13588973.60447  18969347.195    18969347.034    18969355.313
       239.000         207.000
 -24138396.69349 -18786507.43946  20687727.125    20687726.427    20687737.323
       232.000         187.000
 -27589408.01049 -21482239.05947  19433033.928    19433033.501    19433043.308
       241.000         203.000
   3181271.48149   2480892.51046  21361977.728    21361976.579    21361987.138
       227.000         177.000
 -14482736.16649 -11263325.32547  19960985.294    19960984.703    19960993.329
       244.000         207.000
 00  5  3 17 10 59.9950000  0  6G 2G 4G 5G24G 7G 9
   4409287.58049   3437506.50246  22452971.160    22452969.790    22452984.241
       214.000         166.000
 -17486215.61349 -13599727.86047  18966720.892    18966720.752    18966729.010
       240.000         206.000
 -24250865.70249 -18874145.54747  20666324.806    20666324.192    20666335.131
       235.000         188.000
 -27682530.31849 -21554801.87547  19415313.314    19415312.896    19415322.693
       242.000         202.000
   3210529.70349   2503691.05246  21367545.484    21367544.288    21367554.864
       229.000         179.000
 -14486124.45849 -11265965.58847  19960340.423    19960339.939    19960348.571
       245.000         207.000
 00  5  3 17 11 29.9950000  0  6G 2G 4G 5G24G 7G 9
   4459026.49349   3476263.92445  22462436.337    22462434.899    22462449.420
       206.000         154.000
 -17499433.41749 -13610027.46447  18964205.644    18964205.495    18964213.780
       239.000         207.000
 -24363163.02449 -18961649.86647  20644955.297    20644954.655    20644965.602
       233.000         188.000
 -27775163.09649 -21626983.23247  19397685.810    19397685.414    19397695.205
       239.000         203.000
   3239855.37649   2526542.16246  21373126.047    21373124.861    21373135.445
       228.000         182.000
 -14488969.98449 -11268182.91947  19959799.005    19959798.481    19959807.107
       243.000         207.000
 00  5  3 17 11 59.9950000  0  6G 2G 4G 5G24G 7G 9
   4509022.43749   3515221.58945  22471950.366    22471948.948    22471963.525
       204.000         149.000
 -17512052.98049 -13619860.91347  18961804.217    18961804.085    18961812.386
       240.000         208.000
 -24475270.81349 -19049006.50547  20623621.802    20623621.165    20623632.058
       233.000         188.000
 -27867288.95049 -21698769.58547  19380154.824    19380154.412    19380164.205
       240.000         203.000
   3269263.99549   2549457.90746  21378722.313    21378721.177    21378731.798
       230.000         186.000
 -14491258.11849 -11269965.91747  19959363.573    19959363.074    19959371.725
       243.000         207.000
 00  5  3 17 12 29.9950000  0  6G 2G 4G 5G24G 7G 9
   4559253.93049   3554362.80745  22481509.249    22481507.829    22481522.431
       196.000         136.000
 -17524096.34449 -13629245.37547  18959512.542    18959512.363    18959520.658
       239.000         208.000
 -24587207.92049 -19136230.13247  20602320.779    20602320.164    20602331.030
       233.000         189.000
 -27958927.10149 -21770175.91547  19362716.672    19362716.243    19362726.014
       241.000         204.000
   3298734.46749   2572421.83747  21384330.405    21384329.277    21384339.914
       232.000         188.000
 -14493010.69849 -11271331.60547  19959030.110    19959029.579    19959038.273
       243.000         207.000
 00  5  3 17 12 59.9950000  0  6G 2G 4G 5G24G 7G 9
   4609724.11048   3593690.01844  22491113.481    22491112.102    22491126.777
       184.000         117.000
 -17535560.99049 -13638178.89447  18957330.919    18957330.725    18957339.016
       240.000         207.000
 -24698968.21949 -19223316.00547  20581053.485    20581052.833    20581063.676
       232.000         188.000
 -28050072.28449 -21841198.11547  19345372.266    19345371.866    19345381.671
       239.000         204.000
   3328270.22149   2595436.65246  21389950.959    21389949.810    21389960.473
       231.000         186.000
 -14494225.13249 -11272277.95547  19958798.959    19958798.486    19958807.222
       243.000         207.000
 00  5  3 17 13 29.9950000  0  6G 2G 4G 5G24G 7G 9
                   3633217.27954  22500766.696
       182.000         106.000
 -17546429.29249 -13646647.72147  18955262.731    18955262.562    18955270.830
       239.000         207.000
 -24810530.99349 -19310247.95947  20559823.591    20559823.032    20559833.904
       232.000         189.000
 -28140704.35549 -21911820.48747  19328125.514    19328125.133    19328134.948
       241.000         204.000
   3357889.78849   2618516.76846  21395587.344    21395586.257    21395596.965
       229.000         181.000
 -14494884.57649 -11272791.85147  19958673.558    19958673.029    19958681.786
       245.000         207.000
 00  5  3 17 13 59.9950000  0  6G 2G 4G 5G24G 7G 9
                   3672919.21753  22510462.320
       176.000          93.000
 -17556732.64349 -13654676.33547  18953302.076    18953301.912    18953310.158
       240.000         207.000
 -24921924.58849 -19397048.07447  20538626.064    20538625.478    20538636.330
       233.000         189.000
 -28230852.03549 -21982065.40547  19310971.005    19310970.600    19310980.390
       241.000         204.000
   3387562.40649   2641638.23846  21401233.798    21401232.766    21401243.528
       226.000         176.000
 -14495020.12449 -11272897.51747  19958647.837    19958647.262    19958656.034
       244.000         207.000
 00  5  3 17 14 29.9950000  0  6G30G 4G 5G24G 7G 9
  -2066533.83359  -1258350.61655  23687398.248    23687398.214    23687414.396
       209.000         134.000
 -17566472.38149 -13662265.76147  18951448.752    18951448.554    18951456.763
       241.000         208.000
 -25033146.95849 -19483714.75747  20517461.045    20517460.475    20517471.310
       232.000         189.000
 -28320513.72449 -22051931.62847  19293908.957    19293908.567    19293918.288
       240.000         204.000
   3417287.92749   2664800.90946  21406890.369    21406889.355    21406900.139
       225.000         175.000
 -14494633.09049 -11272595.98047  19958721.595    19958720.964    19958729.719
       243.000         207.000
 00  5  3 17 14 59.9950000  0  6G30G 4G 5G24G 7G 9
  -2201437.13649  -1363470.04645  23661726.905    23661726.984    23661743.309
       209.000         145.000
 -17575637.79949 -13669407.68147  18949704.632    18949704.443    18949712.679
       240.000         207.000
 -25144184.27949 -19570237.27147  20496331.245    20496330.695    20496341.513
       234.000         190.000
 -28409676.02149 -22121408.72247  19276941.970    19276941.521    19276951.225
       240.000         204.000
   3447078.05849   2688013.93646  21412559.225    21412558.253    21412569.062
       227.000         176.000
 -14493712.57249 -11271878.74147  19958896.819    19958896.172    19958904.923
       243.000         207.000
 00  5  3 17 15 29.9950000  0  6G30G 4G 5G24G 7G 9
  -2336375.93349  -1468617.12045  23636049.128    23636049.028    23636065.491
       203.000         139.000
 -17584231.30949 -13676103.96047  18948069.327    18948069.165    18948077.412
       240.000         208.000
 -25255035.51249 -19656614.77447  20475236.794    20475236.307    20475247.164
       231.000         190.000
 -28498338.64849 -22190496.46447  19260069.993    19260069.576    19260079.271
       241.000         204.000
   3476931.53349   2711276.32846  21418240.239    21418239.217    21418250.058
       229.000         180.000
 -14492261.20849 -11270747.85947  19959172.922    19959172.353    19959181.124
       243.000         206.000
 00  5  3 17 15 59.9950000  0  6G30G 4G 5G24G 7G 9
  -2471338.44349  -1573782.68245  23610366.757    23610366.524    23610383.017
       217.000         144.000
 -17592243.60349 -13682347.34147  18946544.734    18946544.521    18946552.741
       240.000         208.000
 -25365688.31549 -19742837.64447  20454180.093    20454179.671    20454190.595
       234.000         191.000
 -28586489.79549 -22259185.64647  19243295.372    19243294.948    19243304.669
       241.000         204.000
   3506858.21349   2734595.76746  21423935.205    21423934.141    21423944.995
       232.000         184.000
 -14490269.99649 -11269196.31747  19959551.828    19959551.271    19959560.088
       244.000         206.000
 00  5  3 17 16 29.9950000  0  6G30G 4G 5G24G 7G 9
  -2606336.14449  -1678975.68245  23584677.804    23584677.472    23584693.921
       211.000         142.000
 -17599689.57349 -13688149.43647  18945127.837    18945127.628    18945135.838
       241.000         208.000
 -25476153.63149 -19828914.44447  20433159.305    20433158.798    20433169.665
       234.000         190.000
 -28674141.32249 -22327485.51647  19226615.811    19226615.392    19226625.140
       240.000         204.000
   3536844.70549   2757961.80746  21429641.563    21429640.461    21429651.326
       232.000         186.000
 -14487753.65449 -11267235.58647  19960030.702    19960030.140    19960038.971
       243.000         206.000
 00  5  3 17 16 59.9950000  0  6G30G 4G 5G24G 7G 9
  -2741369.27849  -1784196.32745  23558981.714    23558981.412    23558997.832
       209.000         138.000
 -17606571.49049 -13693512.00247  18943818.319    18943818.094    18943826.247
       240.000         207.000
 -25586430.86649 -19914844.66747  20412174.221    20412173.675    20412184.545
       234.000         190.000
 -28761293.08549 -22395395.95947  19210031.305    19210030.927    19210040.681
       239.000         204.000
   3566889.51249   2781373.28846  21435358.993    21435357.875    21435368.781
       230.000         186.000
 -14484714.73649 -11264867.65347  19960609.019    19960608.465    19960617.276
       244.000         205.000
 00  5  3 17 17 29.9950000  0  6G30G 4G 5G24G 7G 9
  -2876434.40249  -1889441.84245  23533279.570    23533279.314    23533295.879
       209.000         141.000
 -17612889.40649 -13698435.10347  18942616.008    18942615.820    18942624.031
       240.000         207.000
 -25696516.18549 -20000625.36547  20391225.666    20391225.085    20391235.908
       234.000         191.000
 -28847942.08349 -22462914.63747  19193542.580    19193542.157    19193551.893
       241.000         204.000
   3596993.96949   2804831.21746  21441087.702    21441086.601    21441097.590
       228.000         184.000
 -14481153.19949 -11262092.49347  19961286.884    19961286.260    19961295.038
       244.000         205.000
 00  5  3 17 17 59.9950000  0  6G30G 4G 5G24G 7G 9
  -3011532.60149  -1994713.08845  23507570.935    23507570.737    23507587.699
       204.000         139.000
 -17618646.48649 -13702921.18847  18941520.468    18941520.289    18941528.523
       241.000         208.000
 -25806409.83649 -20086256.70747  20370313.619    20370312.983    20370323.737
       235.000         191.000
 -28934089.05749 -22530042.12547  19177149.388    19177148.935    19177158.629
       241.000         205.000
   3627155.89149   2828333.91946  21446827.359    21446826.245    21446837.322
       224.000         182.000
 -14477072.33449 -11258912.65247  19962063.482    19962062.864    19962071.634
       243.000         205.000
 00  5  3 17 18 29.9950000  0  6G30G 4G 5G24G 7G 9
  -3146659.26549  -2100006.59845  23481857.138    23481857.009    23481873.929
       208.000         142.000
 -17623841.31349 -13706969.13847  18940531.978    18940531.777    18940539.999
       241.000         207.000
 -25916106.76549 -20171734.75647  20349438.884    20349438.268    20349449.049
       233.000         191.000
 -29019729.85949 -22596775.19347  19160852.467    19160852.017    19160861.682
       240.000         204.000
   3657377.76249   2851883.33446  21452578.386    21452577.296    21452588.444
       224.000         179.000
 -14472470.87549 -11255327.15747  19962939.106    19962938.501    19962947.294
       243.000         205.000
 00  5  3 17 18 59.9950000  0  6G30G 4G 5G24G 7G 9
  -3281814.38949  -2205322.23745  23456137.809    23456137.789    23456154.627
       206.000         137.000
 -17628476.93349 -13710581.35247  18939649.896    18939649.673    18939657.858
       241.000         206.000
 -26025606.24449 -20257058.95847  20328601.672    20328601.110    20328611.915
       235.000         191.000
 -29104864.41049 -22663113.78247  19144651.822    19144651.401    19144661.076
       240.000         204.000
   3687658.06049   2875478.28146  21458340.473    21458339.458    21458350.650
       226.000         174.000
 -14467351.67849 -11251338.23347  19963913.361    19963912.706    19963921.491
       244.000         205.000
 00  5  3 17 19 29.9950000  0  6G30G 4G 5G24G 7G 9
  -3416987.92549  -2310652.28645  23430415.280    23430415.119    23430431.905
       211.000         139.000
 -17632545.80149 -13713751.94747  18938875.609    18938875.401    18938883.599
       240.000         208.000
 -26134897.22349 -20342220.69547  20307804.291    20307803.681    20307814.425
       234.000         191.000
 -29189482.82549 -22729050.18747  19128549.382    19128549.010    19128558.699
       239.000         204.000
   3718005.30249   2899125.43646  21464115.391    21464114.371    21464125.570
       226.000         172.000
 -14461707.46249 -11246940.20547  19964987.454    19964986.807    19964995.617
       243.000         205.000
 00  5  3 17 19 59.9950000  0  6G30G 4G 5G24G 7G 9
  -3552202.99649  -2416014.62245  23404684.676    23404684.502    23404701.311
       207.000         141.000
 -17636074.33949 -13716501.51347  18938204.231    18938203.989    18938212.201
       243.000         208.000
 -26244002.65349 -20427237.85647  20287042.105    20287041.535    20287052.220
       235.000         191.000
 -29273608.69149 -22794602.80447  19112540.722    19112540.369    19112550.089
       241.000         203.000
   3748394.38249   2922805.19546  21469898.375    21469897.296    21469908.452
       229.000         172.000
 -14455564.36649 -11242153.44447  19966156.450    19966155.840    19966164.696
       244.000         205.000
 00  5  3 17 20 29.9950000  0  6G30G 4G 5G24G 7G 9
  -3687434.65049  -2521389.89545  23378950.854    23378950.658    23378967.483
       212.000         140.000
 -17639040.81449 -13718813.09047  18937639.812    18937639.539    18937647.742
       241.000         208.000
 -26352897.07349 -20512090.57947  20266320.126    20266319.540    20266330.218
       235.000         192.000
 -29357217.58349 -22859752.55947  19096630.566    19096630.117    19096639.846
       240.000         204.000
   3778848.39849   2946535.56746  21475693.735    21475692.601    21475703.743
       228.000         176.000
 -14448900.99049 -11236961.25747  19967424.405    19967423.863    19967432.748
       243.000         204.000
 00  5  3 17 20 59.9950000  0  6G30G 4G 5G24G 7G 9
  -3822680.73349  -2626776.43145  23353214.227    23353214.158    23353230.946
       208.000         142.000
 -17641446.02949 -13720687.31947  18937182.179    18937181.884    18937190.086
       242.000         206.000
 -26461577.85649 -20596776.83347  20245638.792    20245638.216    20245648.889
       236.000         192.000
 -29440307.51449 -22924497.93847  19080819.079    19080818.636    19080828.348
       241.000         204.000
   3809367.77249   2970316.86046  21481501.448    21481500.298    21481511.477
       227.000         176.000
 -14441718.12849 -11231364.28247  19968791.277    19968790.735    19968799.640
       243.000         204.000
 00  5  3 17 21 29.9940000  0  6G30G 4G 5G24G 7G 9
  -3957948.77349  -2732180.04745  23327473.751    23327473.587    23327490.384
       211.000         143.000
 -17643304.62249 -13722135.61947  18936828.432    18936828.195    18936836.435
       240.000         207.000
 -26570052.28149 -20681302.29847  20224996.775    20224996.173    20225006.780
       235.000         192.000
 -29522887.79449 -22988846.18747  19065104.547    19065104.102    19065113.785
       239.000         203.000
   3839938.19449   2994137.88446  21487318.796    21487317.693    21487328.907
       224.000         174.000
 -14434030.81049 -11225374.22647  19970254.172    19970253.624    19970262.517
       243.000         204.000
 00  5  3 17 21 59.9940000  0  6G30G 4G 5G24G 7G 9
  -4093234.57849  -2837597.48645  23301729.831    23301729.524    23301746.379
       207.000         139.000
 -17644606.66849 -13723150.24947  18936580.730    18936580.464    18936588.696
       243.000         207.000
 -26678314.04949 -20765662.06447  20204395.234    20204394.610    20204405.181
       238.000         193.000
 -29604951.18149 -23052791.67247  19049488.267    19049487.913    19049497.583
       241.000         203.000
   3870572.99849   3018009.06746  21493148.395    21493147.339    21493158.579
       224.000         176.000
 -14425828.79649 -11218983.12147  19971815.120    19971814.492    19971823.364
       245.000         204.000
 00  5  3 17 22 29.9940000  0  6G30G 4G 5G24G 7G 9
  -4228547.94349  -2943036.42645  23275980.283    23275980.205    23275997.003
       208.000         139.000
 -17645369.53349 -13723744.72547  18936435.606    18936435.338    18936443.583
       240.000         208.000
 -26786373.38349 -20849864.06747  20183832.234    20183831.559    20183842.142
       235.000         194.000
 -29686509.73949 -23116343.76547  19033968.142    19033967.793    19033977.470
       238.000         204.000
   3901255.04749   3041917.07546  21498987.017    21498985.924    21498997.250
       223.000         177.000
 -14417129.61849 -11212204.59947  19973470.596    19973469.954    19973478.807
       243.000         204.000
 00  5  3 17 22 59.9940000  0  6G30G 4G 5G24G 7G 9
  -4363877.44149  -3048487.94445  23250228.100    23250227.911    23250244.558
       215.000         148.000
 -17645584.92249 -13723912.61747  18936394.614    18936394.372    18936402.642
       241.000         207.000
 -26894218.11049 -20933898.87247  20163310.055    20163309.362    20163319.902
       236.000         194.000
 -29767552.24649 -23179493.76147  19018546.290    19018545.903    19018555.576
       239.000         204.000
   3931994.06349   3065869.47946  21504836.506    21504835.429    21504846.762
       228.000         181.000
 -14407924.67749 -11205031.98947  19975222.320    19975221.643    19975230.496
       243.000         204.000
 00  5  3 17 23 29.9940000  0  6G30G 4G 5G24G 7G 9
  -4499218.07549  -3153948.12045  23224473.938    23224473.573    23224490.118
       213.000         150.000
 -17645251.28549 -13723652.68047  18936458.024    18936457.836    18936466.161
       240.000         206.000
 -27001842.98549 -21017762.34747  20142829.700    20142828.964    20142839.491
       235.000         195.000
 -29848074.45649 -23242238.31447  19003223.472    19003223.029    19003232.700
       239.000         204.000
   3962792.94749   3089868.55846  21510697.451    21510696.341    21510707.666
       229.000         182.000
 -14398213.13649 -11197464.61047  19977070.350    19977069.733    19977078.578
       242.000         204.000
 00  5  3 17 23 59.9940000  0  6G30G 4G 5G24G 7G 9
  -4634580.21349  -3259425.03645  23198715.219    23198714.991    23198731.448
       209.000         143.000
 -17644381.69749 -13722975.11547  18936623.544    18936623.352    18936631.663
       242.000         206.000
 -27109257.31849 -21101461.76247  20122389.266    20122388.630    20122399.154
       236.000         194.000
 -29928086.73249 -23304585.51847  18987997.613    18987997.193    18988006.855
       240.000         203.000
   3993640.27449   3113905.41546  21516567.622    21516566.477    21516577.765
       232.000         179.000
 -14388007.95149 -11189512.57147  19979012.362    19979011.727    19979020.617
       244.000         204.000
 00  5  3 17 24 29.9940000  0  6G30G 4G 5G24G 7G 9
  -4769966.66549  -3364920.85145  23172951.963    23172951.680    23172968.264
       204.000         146.000
 -17642982.72449 -13721885.05947  18936889.836    18936889.607    18936897.926
       241.000         207.000
 -27216463.78649 -21184999.21847  20101988.508    20101987.864    20101998.355
       236.000         195.000
 -30007593.03049 -23366538.47347  18972868.060    18972867.615    18972877.287
       238.000         203.000
   4024530.97749   3137976.05446  21522446.016    21522444.857    21522456.109
       229.000         176.000
 -14377315.37949 -11181180.77147  19981047.130    19981046.486    19981055.413
       242.000         203.000
 00  5  3 17 24 59.9940000  0  6G30G 4G 5G24G 7G 9
  -4905375.70649  -3470434.31145  23147184.490    23147184.208    23147200.697
       215.000         148.000
 -17641055.58449 -13720383.43147  18937256.630    18937256.382    18937264.729
       243.000         207.000
 -27323459.94749 -21268372.77347  20081627.805    20081627.141    20081637.617
       238.000         196.000
 -30086591.98049 -23428096.06747  18957835.010    18957834.595    18957844.240
       240.000         203.000
   4055465.25649   3162080.66646  21528332.665    21528331.505    21528342.773
       228.000         176.000
 -14366136.85149 -11172470.28247  19983174.376    19983173.739    19983182.692
       244.000         203.000
 00  5  3 17 25 29.9940000  0  6G30G 4G 5G24G 7G 9
  -5040792.83049  -3575954.05045  23121415.575    23121415.328    23121431.709
       215.000         151.000
 -17638589.21149 -13718461.62347  18937726.023    18937725.764    18937734.101
       241.000         206.000
 -27430230.97049 -21351570.90447  20061310.004    20061309.298    20061319.680
       238.000         196.000
 -30165069.58949 -23489247.42147  18942901.181    18942900.775    18942910.408
       238.000         203.000
   4086455.68949   3186229.02046  21534229.998    21534228.828    21534240.098
       223.000         174.000
 -14354461.30549 -11163372.50647  19985396.154    19985395.557    19985404.564
       242.000         203.000
 00  5  3 17 25 59.9940000  0  6G30G 4G 5G24G 7G 9
  -5176227.31049  -3681487.27745  23095643.238    23095643.012    23095659.403
       212.000         149.000
 -17635595.69749 -13716129.06147  18938295.737    18938295.460    18938303.748
       242.000         207.000
 -27536785.10649 -21434600.04447  20041033.360    20041032.657    20041043.044
       238.000         195.000
 -30243035.34849 -23549999.95247  18928064.828    18928064.397    18928074.033
       240.000         203.000
   4117491.52149   3210412.70946  21540135.857    21540134.784    21540146.082
       222.000         173.000
 -14342301.42249 -11153897.34147  19987710.124    19987709.533    19987718.582
       243.000         203.000
 00  5  3 17 26 29.9940000  0  6G30G 4G 5G24G 7G 9
  -5311686.27749  -3787039.61845  23069866.245    23069865.988    23069882.345
       216.000         151.000
 -17632085.82349 -13713394.12647  18938963.714    18938963.420    18938971.679
       241.000         207.000
 -27643129.25849 -21517465.54847  20020796.620    20020795.970    20020806.361
       236.000         196.000
 -30320497.50449 -23610360.05047  18913324.238    18913323.821    18913333.504
       238.000         204.000
   4148563.77149   3234624.79846  21546048.676    21546047.648    21546058.977
       221.000         176.000
 -14329667.75849 -11144052.97647  19990114.278    19990113.691    19990122.756
       241.000         203.000
 00  5  3 17 26 59.9940000  0  6G30G 4G 5G24G 7G 9
  -5447140.45549  -3892588.24045  23044090.277    23044089.915    23044106.070
       213.000         149.000
 -17628033.52649 -13710236.52847  18939734.847    18939734.569    18939742.824
       242.000         206.000
 -27749233.50749 -21600144.11547  20000605.615    20000604.946    20000615.365
       236.000         196.000
 -30397427.12749 -23670305.19347  18898685.063    18898684.606    18898694.284
       239.000         204.000
   4179700.05949   3258886.77446  21551973.744    21551972.705    21551984.103
       224.000         179.000
 -14316534.28049 -11133819.15347  19992613.525    19992612.952    19992622.042
       242.000         203.000
 00  5  3 17 27 29.9940000  0  6G30G 4G 5G24G 7G 9
  -5582602.29449  -3998142.81245  23018312.585    23018312.358    23018328.541
       214.000         152.000
 -17623455.10349 -13706668.97047  18940606.001    18940605.778    18940614.099
       240.000         206.000
 -27855110.05549 -21682645.25547  19980457.898    19980457.243    19980467.679
       238.000         197.000
 -30473837.68949 -23729845.87447  18884144.533    18884144.130    18884153.784
       239.000         203.000
   4210885.76449   3283187.26046  21557908.230    21557907.201    21557918.611
       227.000         182.000
 -14302917.18949 -11123208.49447  19995204.809    19995204.218    19995213.333
       243.000         202.000
 00  5  3 17 27 59.9940000  0  6G30G 4G 5G24G 7G 9
  -5718098.82849  -4103724.32745  22992528.103    22992528.012    22992544.460
       220.000         154.000
 -17618380.44349 -13702714.72947  18941571.613    18941571.438    18941579.846
       241.000         206.000
 -27960785.24849 -21764989.49547  19960348.590    19960347.898    19960358.295
       238.000         196.000
 -30549756.66449 -23789003.49247  18869697.656    18869697.210    18869706.850
       239.000         203.000
   4242092.47949   3307504.14046  21563846.743    21563845.679    21563857.101
       229.000         181.000
 -14288846.66649 -11112244.50647  19997882.360    19997881.803    19997890.908
       243.000         202.000
 00  5  3 17 28 29.9940000  0  6G30G 4G 5G24G 7G 9
  -5853595.72949  -4209306.23145  22966743.996    22966743.884    22966760.246
       219.000         153.000
 -17612778.91649 -13698349.94647  18942637.553    18942637.389    18942645.835
       242.000         206.000
 -28066224.32749 -21847149.74047  19940284.087    19940283.429    19940293.826
       237.000         196.000
 -30625150.66949 -23847752.05147  18855350.645    18855350.206    18855359.837
       239.000         203.000
   4273352.63349   3331862.65946  21569795.436    21569794.349    21569805.768
       229.000         180.000
 -14274292.13149 -11100903.36847  20000652.052    20000651.486    20000660.566
       243.000         202.000
 00  5  3 17 28 59.9940000  0  6G30G 4G 5G24G 7G 9
  -5989103.60049  -4314896.66845  22940957.709    22940957.539    22940973.775
       218.000         149.000
 -17606664.44249 -13693585.45947  18943801.133    18943800.951    18943809.429
       242.000         206.000
 -28171437.30349 -21929133.82047  19920262.679    19920262.016    19920272.419
       239.000         197.000
 -30700031.14149 -23906100.45347  18841101.337    18841100.902    18841110.542
       239.000         203.000
   4304653.75249   3356253.10646  21575751.940    21575750.810    21575762.206
       227.000         176.000
 -14259267.64849 -11089196.04047  20003511.168    20003510.594    20003519.664
       242.000         202.000
 00  5  3 17 29 29.9940000  0  6G30G 4G 5G24G 7G 9
  -6124605.19849  -4420482.14845  22915172.282    22915172.276    22915188.656
       213.000         150.000
 -17600023.46949 -13688410.70747  18945064.909    18945064.704    18945073.193
       241.000         207.000
 -28276406.34349 -22010927.80747  19900287.747    19900287.043    19900297.463
       237.000         197.000
 -30774381.52149 -23964035.79347  18826952.915    18826952.481    18826962.134
       238.000         203.000
   4336011.35749   3380687.58146  21581719.135    21581718.030    21581729.438
       222.000         172.000
 -14243759.43149 -11077111.76447  20006462.329    20006461.747    20006470.830
       241.000         202.000
 00  5  3 17 29 59.9940000  0  6G30G 4G 5G24G 7G 9
  -6260134.57949  -4526089.32345  22889381.431    22889381.639    22889398.144
       211.000         148.000
 -17592893.58949 -13682854.99747  18946421.723    18946421.518    18946430.014
       242.000         208.000
 -28381165.12249 -22092557.97147  19880352.713    19880352.046    19880362.486
       235.000         197.000
 -30848236.83949 -24021585.37647  18812898.658    18812898.242    18812907.925
       237.000         203.000
   4367389.50549   3405138.03646  21587690.165    21587689.112    21587700.552
       217.000         169.000
 -14227805.29149 -11064680.02147  20009498.354    20009497.758    20009506.867
       241.000         202.000
 00  5  3 17 30 29.9940000  0  6G30G 4G 5G24G 7G 9
  -6395646.73249  -4631683.07045  22863594.256    22863594.443    22863610.827
       220.000         150.000
 -17585233.04549 -13676885.77447  18947879.594    18947879.338    18947887.823
       241.000         207.000
 -28485668.08549 -22173988.79647  19860466.257    19860465.671    19860476.166
       236.000         197.000
 -30921552.82749 -24078714.70347  18798947.089    18798946.665    18798956.350
       238.000         203.000
   4398831.61349   3429638.31546  21593673.364    21593672.317    21593683.865
       216.000         169.000
 -14211363.55549 -11051868.33647  20012627.210    20012626.577    20012635.680
       241.000         201.000
 00  5  3 17 30 59.9940000  0  6G30G 4G 5G24G 7G 9
  -6531157.75049  -4737275.95945  22837807.513    22837807.595    22837823.676
       216.000         152.000
 -17577061.34749 -13670518.24847  18949434.632    18949434.389    18949442.865
       241.000         206.000
 -28589930.47249 -22255232.15647  19840625.680    19840625.113    19840635.609
       236.000         197.000
 -30994346.44149 -24135436.98247  18785094.962    18785094.503    18785104.146
       238.000         203.000
   4430319.87649   3454174.57346  21599665.403    21599664.388    21599675.924
       220.000         172.000
 -14194453.97049 -11038692.09447  20015845.035    20015844.391    20015853.535
       241.000         202.000
 00  5  3 17 31 29.9940000  0  6G30G 4G 5G24G 7G 9
  -6666663.27749  -4842864.49345  22812021.557    22812021.707    22812037.828
       214.000         153.000
 -17568377.79949 -13663751.87647  18951087.065    18951086.831    18951095.303
       241.000         207.000
 -28693947.71249 -22336284.49547  19820831.868    19820831.230    19820841.710
       236.000         197.000
 -31066614.14549 -24191749.45947  18771342.782    18771342.391    18771352.012
       237.000         203.000
   4461856.79649   3478748.75046  21605666.756    21605665.690    21605677.246
       222.000         173.000
 -14177075.69549 -11025150.64047  20019151.992    20019151.406    20019160.560
       242.000         201.000
 00  5  3 17 31 59.9940000  0  6G30G 4G 5G24G 7G 9
  -6802145.81649  -4948435.09745  22786239.966    22786240.081    22786256.265
       216.000         152.000
 -17559168.98949 -13656576.20747  18952839.529    18952839.270    18952847.713
       242.000         208.000
 -28797702.15249 -22417132.06147  19801088.146    19801087.427    19801097.772
       237.000         197.000
 -31138339.80749 -24247639.57047  18757693.839    18757693.427    18757703.048
       237.000         203.000
   4493457.87749   3503372.92846  21611680.274    21611679.204    21611690.762
       223.000         172.000
 -14159215.49949 -11011233.66247  20022550.720    20022550.136    20022559.293
       240.000         201.000
 00  5  3 17 32 29.9940000  0  6G30G 4G 5G24G 7G 9
  -6937615.39249  -5053995.65645  22760461.069    22760461.110    22760477.082
       216.000         153.000
 -17549448.25249 -13649001.63347  18954689.406    18954689.120    18954697.541
       242.000         207.000
 -28901202.97749 -22497781.99047  19781392.569    19781391.834    19781402.149
       235.000         197.000
 -31209534.30249 -24303115.78647  18744145.942    18744145.556    18744155.188
       237.000         203.000
   4525111.45449   3528038.02146  21617703.776    21617702.728    21617714.266
       225.000         173.000
 -14140886.78149 -10996951.60447  20026038.610    20026038.018    20026047.201
       241.000         201.000
 00  5  3 17 32 59.9940000  0  6G30G 4G 5G24G 7G 9
  -7073077.58349  -5159550.42145  22734683.369    22734683.420    22734699.362
       219.000         153.000
 -17539224.86149 -13641035.37647  18956634.873    18956634.613    18956643.008
       245.000         207.000
 -29004455.63249 -22578238.55547  19761744.154    19761743.452    19761753.742
       237.000         197.000
 -31280204.27249 -24358183.28347  18730697.912    18730697.498    18730707.153
       239.000         202.000
   4556809.99849   3552738.15546  21623735.829    21623734.805    21623746.305
       227.000         171.000
 -14122098.78549 -10982311.66547  20029613.944    20029613.296    20029622.502
       243.000         200.000
 00  5  3 17 33 29.9940000  0  6G30G 4G 5G24G 7G 9
  -7208532.25649  -5265099.32045  22708906.947    22708907.111    22708923.069
       215.000         154.000
 -17528502.41449 -13632680.24347  18958675.257    18958675.018    18958683.449
       244.000         207.000
 -29107459.22849 -22658501.03247  19742143.020    19742142.421    19742152.744
       236.000         198.000
 -31350350.72749 -24412842.84047  18717349.484    18717349.080    18717358.710
       239.000         203.000
   4588551.89849   3577472.08246  21629776.146    21629775.126    21629786.583
       227.000         173.000
 -14102854.93649 -10967316.51847  20033275.981    20033275.333    20033284.545
       243.000         200.000
 00  5  3 17 33 59.9940000  0  6G30G 4G 5G24G 7G 9
  -7343996.46549  -5370655.60745  22683128.801    22683128.989    22683145.054
       218.000         156.000
 -17517301.34949 -13623952.16347  18960806.663    18960806.491    18960814.951
       242.000         207.000
 -29210230.45449 -22738582.45447  19722586.298    19722585.669    19722595.985
       236.000         198.000
 -31419991.43649 -24467108.31147  18704097.333    18704096.881    18704106.475
       236.000         202.000
   4620318.30349   3602225.10646  21635821.113    21635820.098    21635831.537
       225.000         173.000
 -14083176.29049 -10951982.56647  20037020.741    20037020.096    20037029.323
       240.000         200.000
 00  5  3 17 34 29.9940000  0  6G30G 4G 5G24G 7G 9
  -7479428.00349  -5476186.48345  22657357.138    22657357.249    22657373.004
       217.000         152.000
 -17505583.55749 -13614821.43147  18963036.501    18963036.332    18963044.786
       241.000         206.000
 -29312726.96549 -22818449.79747  19703081.844    19703081.184    19703091.495
       236.000         198.000
 -31489085.74249 -24520948.01647  18690948.993    18690948.637    18690958.243
       236.000         202.000
   4652149.64649   3627028.72546  21641878.428    21641877.405    21641888.896
       223.000         172.000
 -14063024.57549 -10936279.99647  20040855.482    20040854.883    20040864.125
       241.000         201.000
 00  5  3 17 34 59.9940000  0  6G30G 4G 5G24G 7G 9
  -7614836.27749  -5581699.21945  22631589.649    22631589.812    22631605.411
       214.000         152.000
 -17493361.95249 -13605298.13147  18965362.156    18965362.005    18965370.501
       241.000         207.000
 -29414957.35449 -22898109.77947  19683628.102    19683627.383    19683637.639
       235.000         198.000
 -31557643.86849 -24574369.91347  18677902.886    18677902.469    18677912.060
       236.000         203.000
   4684034.86249   3651874.30646  21647946.017    21647944.979    21647956.482
       221.000         174.000
 -14042413.05549 -10920219.12847  20044777.658    20044777.141    20044786.419
       240.000         200.000
 00  5  3 17 35 29.9940000  0  6G30G 4G 5G24G 7G 9
  -7750214.28849  -5687188.33845  22605827.686    22605827.948    22605843.630
       217.000         153.000
 -17480633.33149 -13595379.76447  18967784.345    18967784.202    18967792.733
       242.000         209.000
 -29516914.38049 -22977556.75347  19664226.243    19664225.556    19664235.789
       236.000         198.000
 -31625660.22549 -24627369.65547  18664959.808    18664959.384    18664968.980
       236.000         203.000
   4715978.92849   3676765.73346  21654024.807    21654023.777    21654035.323
       222.000         175.000
 -14021338.50949 -10903797.46447  20048788.068    20048787.524    20048796.805
       240.000         200.000
 00  5  3 17 35 59.9940000  0  6G30G 4G 5G24G 7G 9
  -7885569.44149  -5792659.70045  22580070.406    22580070.633    22580086.125
       217.000         151.000
 -17467409.19949 -13585075.26947  18970300.895    18970300.702    18970309.255
       242.000         208.000
 -29618605.07149 -23056796.19047  19644875.020    19644874.398    19644884.633
       236.000         197.000
 -31693143.55949 -24679954.05047  18652118.182    18652117.736    18652127.333
       236.000         201.000
   4747972.44549   3701695.70646  21660113.032    21660111.980    21660123.539
       223.000         177.000
 -13999812.35449 -10887023.89447  20052884.451    20052883.870    20052893.124
       241.000         200.000
 00  5  3 17 36 29.9940000  0  6G30G 4G 5G24G 7G 9
  -8020899.26049  -5898111.29145  22554317.534    22554317.908    22554333.395
       212.000         152.000
 -17453690.40649 -13574385.33447  18972911.538    18972911.337    18972919.847
       242.000         207.000
 -29720025.94749 -23135825.38347  19625575.216    19625574.587    19625584.830
       236.000         199.000
 -31760092.21349 -24732121.81547  18639378.256    18639377.823    18639387.375
       236.000         201.000
   4780016.44849   3726665.02446  21666210.887    21666209.810    21666221.389
       222.000         178.000
 -13977835.24349 -10869898.94047  20057066.623    20057066.014    20057075.288
       240.000         200.000
 00  5  3 17 36 59.9940000  0  6G30G 4G 5G24G 7G 9
  -8156195.01249  -6003536.33045  22528571.407    22528571.805    22528587.448
       219.000         157.000
 -17439472.18449 -13563306.22747  18975617.263    18975617.021    18975625.509
       242.000         207.000
 -29821168.38149 -23214637.60647  19606328.526    19606327.822    19606337.980
       236.000         199.000
 -31826499.11249 -24783867.43247  18626741.429    18626740.991    18626750.511
       235.000         202.000
   4812117.73549   3751678.97146  21672319.585    21672318.509    21672330.124
       220.000         177.000
 -13955403.09449 -10852419.40447  20061335.314    20061334.747    20061344.063
       240.000         200.000
 00  5  3 17 37 29.9940000  0  6G30G 4G 5G24G 7G 9
  -8291463.79449  -6108940.36545  22502830.424    22502830.860    22502846.626
       213.000         155.000
 -17424765.67149 -13551846.63847  18978415.821    18978415.606    18978424.072
       242.000         206.000
 -29922039.00349 -23293238.02847  19587133.436    19587132.753    19587142.876
       237.000         199.000
 -31892372.56049 -24835197.37547  18614206.119    18614205.686    18614215.202
       236.000         201.000
   4844267.20549   3776730.44146  21678437.426    21678436.392    21678448.029
       218.000         175.000
 -13932526.78449 -10834593.76947  20065688.690    20065688.036    20065697.357
       241.000         200.000
 00  5  3 17 37 59.9940000  0  6G30G 4G 5G24G 7G 9
  -8426693.19549  -6214313.73745  22477096.916    22477097.364    22477113.087
       216.000         152.000
 -17409562.31449 -13539999.89847  18981308.929    18981308.697    18981317.181
       242.000         207.000
 -30022625.00549 -23371616.66447  19567992.563    19567991.846    19568001.943
       237.000         199.000
 -31957701.33749 -24886102.89247  18601774.490    18601774.055    18601783.525
       236.000         202.000
   4876475.50549   3801827.76846  21684566.459    21684565.453    21684577.127
       218.000         174.000
 -13909197.93149 -10816415.50447  20070128.056    20070127.420    20070136.771
       240.000         200.000
 00  5  3 17 38 29.9940000  0  6G30G 4G 5G24G 7G 9
  -8561889.45649  -6319661.29245  22451369.674    22451370.117    22451385.854
       215.000         152.000
 -17393872.18049 -13527773.85847  18984294.710    18984294.479    18984302.957
       242.000         207.000
 -30122932.32249 -23449778.15547  19548904.715    19548903.990    19548914.034
       237.000         200.000
 -32022493.24249 -24936590.07847  18589444.967    18589444.538    18589454.022
       235.000         202.000
   4908734.61649   3826964.69046  21690705.135    21690704.157    21690715.865
       217.000         172.000
 -13885426.68449 -10797892.53047  20074651.627    20074650.990    20074660.339
       241.000         200.000
 00  5  3 17 38 59.9940000  0  6G30G 4G 5G24G 7G 9
  -8697055.09349  -6424984.99145  22425648.370    22425648.793    22425664.544
       215.000         158.000
 -17377701.69849 -13515173.51747  18987371.856    18987371.630    18987380.115
       241.000         206.000
 -30222962.93149 -23527724.01947  19529869.498    19529868.772    19529878.809
       237.000         200.000
 -32086752.23549 -24986662.00147  18577216.817    18577216.431    18577225.940
       236.000         201.000
   4941040.06749   3852137.71946  21696852.651    21696851.715    21696863.417
       219.000         171.000
 -13861219.76749 -10779030.06547  20079258.076    20079257.449    20079266.812
       240.000         199.000
 00  5  3 17 39 29.9940000  0  6G30G 4G 5G24G 7G 9
  -8832203.13549  -6530294.93645  22399930.439    22399930.807    22399946.609
       218.000         157.000
 -17361068.21749 -13502212.40347  18990537.089    18990536.887    18990545.398
       242.000         207.000
 -30322729.80649 -23605464.37947  19510884.445    19510883.732    19510893.749
       237.000         200.000
 -32150492.91149 -25036330.04647  18565087.422    18565086.987    18565096.486
       237.000         201.000
   4973376.72349   3877335.06946  21703006.108    21703005.204    21703016.922
       218.000         168.000
 -13836594.51049 -10759841.62347  20083944.128    20083943.518    20083952.904
       240.000         199.000
 00  5  3 17 39 59.9940000  0  6G30G 4G 5G24G 7G 9
  -8967316.78949  -6635578.10745  22374219.030    22374219.361    22374235.143
       213.000         156.000
 -17343958.51249 -13488880.20747  18993792.989    18993792.787    18993801.317
       242.000         207.000
 -30422215.78049 -23682985.85147  19491952.858    19491952.135    19491962.153
       238.000         200.000
 -32213699.85949 -25085582.19447  18553059.513    18553059.083    18553068.593
       237.000         201.000
   5005759.54949   3902568.39946  21709168.381    21709167.488    21709179.166
       218.000         163.000
 -13811537.98149 -10740317.13147  20088712.336    20088711.688    20088721.083
       239.000         199.000
 00  5  3 17 40 29.9940000  0  6G30G 4G 5G24G 7G 9
  -9102399.79749  -6740837.44345  22348513.296    22348513.750    22348529.445
       214.000         156.000
 -17326380.42349 -13475183.04147  18997137.991    18997137.807    18997146.351
       242.000         207.000
 -30521423.93949 -23760290.84847  19473074.109    19473073.410    19473083.419
       237.000         201.000
 -32276378.19849 -25134422.44247  18541132.252    18541131.797    18541141.286
       237.000         201.000
   5038183.41349   3927833.71745  21715338.465    21715337.545    21715349.228
       219.000         162.000
 -13786057.96449 -10720462.65147  20093561.086    20093560.427    20093569.827
       239.000         198.000
 00  5  3 17 40 59.9940000  0  6G30G 4G 5G24G 7G 9
  -9237445.70349  -6846067.82745  22322814.776    22322815.190    22322830.947
       216.000         157.000
 -17308331.50849 -13461118.99347  19000572.612    19000572.427    19000580.996
       242.000         207.000
 -30620347.63549 -23837374.18447  19454249.461    19454248.803    19454258.819
       238.000         201.000
 -32338523.16949 -25182847.08047  18529306.409    18529305.971    18529315.468
       235.000         200.000
   5070652.45549   3953134.24145  21721517.121    21721516.204    21721527.855
       219.000         160.000
 -13760152.22549 -10700276.44147  20098490.776    20098490.159    20098499.571
       239.000         198.000
 00  5  3 17 41 29.9940000  0  6G30G 4G 5G24G 7G 9
  -9372434.69949  -6951253.89745  22297127.270    22297127.537    22297143.266
       219.000         160.000
 -17289796.04649 -13446675.82747  19004099.766    19004099.597    19004108.203
       241.000         206.000
 -30718966.83749 -23914220.25547  19435482.824    19435482.157    19435492.124
       238.000         201.000
 -32400116.56649 -25230841.91847  18517585.496    18517585.103    18517594.620
       236.000         200.000
   5103184.63049   3978483.98145  21727707.860    21727706.924    21727718.510
       219.000         162.000
 -13733804.99449 -10679746.20347  20103504.435    20103503.901    20103513.341
       238.000         198.000
 00  5  3 17 41 59.9940000  0  6G30G 4G 5G24G 7G 9
  -9507375.09449  -7056402.07446  22271449.184    22271449.254    22271464.897
       224.000         163.000
 -17270786.39349 -13431863.14647  19007717.255    19007717.055    19007725.613
       244.000         205.000
 -30817289.34449 -23990835.13147  19416772.563    19416771.941    19416781.891
       240.000         200.000
 -32461168.05149 -25278414.49047  18505967.768    18505967.387    18505976.887
       238.000         200.000
   5135769.96849   4003875.12646  21733908.677    21733907.741    21733919.280
       222.000         165.000
 -13707028.43349 -10658881.43047  20108599.920    20108599.354    20108608.816
       241.000         198.000
 00  5  3 17 42 29.9940000  0  6G30G 4G 5G24G 7G 9
  -9642255.98149  -7161503.88145  22245782.053    22245782.166    22245797.696
       215.000         159.000
 -17251295.74149 -13416675.66047  19011426.234    19011426.034    19011434.570
       243.000         206.000
 -30915304.14949 -24067210.24247  19398120.870    19398120.289    19398130.182
       238.000         200.000
 -32521668.49649 -25325557.67547  18494454.952    18494454.541    18494464.021
       237.000         200.000
   5168417.35149   4029314.61846  21740121.300    21740120.369    21740131.901
       220.000         167.000
 -13679816.39849 -10637677.32147  20113778.204    20113777.661    20113787.171
       239.000         198.000
 00  5  3 17 42 59.9940000  0  6G30G 4G 5G24G 7G 9
  -9777067.50949  -7266551.62845  22220127.902    22220128.190    22220143.597
       216.000         157.000
 -17231318.36849 -13401108.91947  19015227.842    19015227.641    19015236.159
       242.000         206.000
 -31013001.11349 -24143337.68647  19379529.797    19379529.151    19379538.994
       239.000         201.000
 -32581609.99449 -25372265.32447  18483048.410    18483048.031    18483057.501
       235.000         199.000
   5201134.48649   4054808.42646  21746347.151    21746346.243    21746357.795
       217.000         168.000
 -13652163.31949 -10616129.54647  20119040.373    20119039.888    20119049.445
       238.000         198.000
 00  5  3 17 43 29.9940000  0  6G30G 4G 5G24G 7G 9
  -9911836.73349  -7371566.40745  22194481.961    22194482.300    22194497.623
       222.000         160.000
 -17210885.40449 -13385187.17747  19019116.100    19019115.907    19019124.488
       241.000         206.000
 -31110406.82049 -24219238.17747  19360994.087    19360993.426    19361003.232
       238.000         201.000
 -32641020.89649 -25418559.51147  18471742.867    18471742.483    18471751.982
       235.000         200.000
   5233892.79649   4080334.32546  21752580.868    21752579.912    21752591.559
       216.000         171.000
 -13624100.05749 -10594262.14947  20124380.742    20124380.202    20124389.762
       239.000         198.000
 00  5  3 17 43 59.9930000  0  6G30G 4G 5G24G 7G 9
 -10046557.86249  -7476543.74045  22168845.350    22168845.670    22168860.831
       220.000         161.000
 -17190000.31449 -13368913.12647  19023090.424    19023090.236    19023098.822
       242.000         205.000
 -31207516.47549 -24294907.98247  19342514.642    19342514.026    19342523.820
       239.000         201.000
 -32699899.83949 -25464439.19247  18460538.531    18460538.160    18460547.692
       235.000         199.000
   5266690.40749   4105890.82246  21758822.031    21758821.106    21758832.785
       215.000         171.000
 -13595630.46349 -10572078.13247  20129798.457    20129797.863    20129807.418
       239.000         199.000
 00  5  3 17 44 29.9930000  0  6G30G 4G 5G24G 7G 9
 -10181235.27049  -7581486.97445  22143216.934    22143217.219    22143232.476
       214.000         161.000
 -17168660.99349 -13352285.11247  19027151.208    19027151.015    19027159.573
       242.000         206.000
 -31304331.30549 -24370348.05547  19324091.387    19324090.744    19324100.506
       238.000         201.000
 -32758247.55749 -25509904.92847  18449435.301    18449434.942    18449444.444
       235.000         199.000
   5299532.60849   4131482.08446  21765071.687    21765070.772    21765082.520
       216.000         172.000
 -13566752.33549 -10549575.77747  20135293.819    20135293.259    20135302.819
       239.000         198.000
 00  5  3 17 44 59.9930000  0  6G30G 4G 5G24G 7G 9
 -10315844.73949  -7686377.25545  22117601.317    22117601.707    22117617.004
       223.000         159.000
 -17146853.13849 -13335292.03247  19031301.099    19031300.926    19031309.516
       241.000         205.000
 -31400828.62649 -24445540.72647  19305728.498    19305727.856    19305737.609
       239.000         200.000
 -32816044.60749 -25554941.58147  18438436.829    18438436.499    18438445.983
       235.000         198.000
   5332435.59549   4157120.68246  21771332.951    21771332.032    21771343.816
       218.000         174.000
 -13537451.47649 -10526744.03347  20140869.780    20140869.110    20140878.652
       240.000         197.000
 00  5  3 17 45 29.9930000  0  6G30G 4G 5G24G 7G 9
 -10450379.23649  -7791209.15945  22092000.342    22092000.585    22092015.742
       219.000         162.000
 -17124573.25849 -13317931.13647  19035540.848    19035540.659    19035549.286
       244.000         205.000
 -31497000.84849 -24520480.07347  19287427.428    19287426.844    19287436.574
       240.000         200.000
 -32873285.42649 -25599544.79747  18427544.310    18427543.944    18427553.393
       237.000         198.000
   5365404.72849   4182810.83746  21777606.833    21777605.878    21777617.707
       220.000         176.000
 -13507724.95649 -10503580.60247  20146526.607    20146525.934    20146535.487
       240.000         197.000
 00  5  3 17 45 59.9930000  0  6G30G 4G 5G24G 7G 9
 -10584852.42849  -7895993.27545  22066410.597    22066410.987    22066426.063
       217.000         161.000
 -17101839.86749 -13300216.84047  19039866.947    19039866.733    19039875.355
       243.000         207.000
 -31592861.52849 -24595176.65347  19269185.618    19269185.082    19269194.812
       238.000         201.000
 -32929985.72249 -25643726.83147  18416754.627    18416754.246    18416763.670
       235.000         199.000
   5398424.40549   4208540.39346  21783890.274    21783889.331    21783901.213
       219.000         175.000
 -13477590.77849 -10480099.51747  20152260.974    20152260.321    20152269.893
       239.000         197.000
 00  5  3 17 46 29.9930000  0  6G30G 4G 5G24G 7G 9
 -10719244.49049  -8000714.15845  22040836.303    22040836.850    22040851.962
       220.000         161.000
 -17078636.96849 -13282136.70647  19044282.347    19044282.140    19044290.794
       242.000         204.000
 -31688390.54949 -24669614.80747  19251007.072    19251006.485    19251016.192
       240.000         201.000
 -32986127.46649 -25687473.62847  18406071.251    18406070.838    18406080.240
       237.000         198.000
   5431512.56649   4234323.29546  21790186.762    21790185.811    21790197.730
       222.000         175.000
 -13447033.40349 -10456288.66547  20158075.845    20158075.246    20158084.827
       240.000         197.000
 00  5  3 17 46 59.9930000  0  6G30G 4G 5G24G 7G 9
 -10853572.04349  -8105384.78745  22015274.580    22015274.968    22015290.135
       219.000         159.000
 -17054985.45949 -13263706.99047  19048783.074    19048782.897    19048791.547
       243.000         204.000
 -31783604.09149 -24743807.13347  19232888.533    19232887.916    19232897.616
       240.000         201.000
 -33041729.22449 -25730799.65647  18395490.545    18395490.161    18395499.578
       236.000         199.000
   5464650.51349   4260144.98946  21796492.778    21796491.794    21796503.743
       224.000         175.000
 -13416073.85349 -10432164.43247  20163967.342    20163966.712    20163976.309
       240.000         197.000
 00  5  3 17 47 29.9930000  0  6G30G 4G 5G24G 7G 9
 -10987865.72849  -8210029.00946  21989719.150    21989719.545    21989734.734
       220.000         163.000
 -17030920.57449 -13244955.15947  19053362.531    19053362.333    19053370.962
       240.000         204.000
 -31878532.97349 -24817777.64947  19214824.119    19214823.504    19214833.216
       239.000         202.000
 -33096823.95549 -25773730.60347  18385006.441    18385006.002    18385015.399
       235.000         200.000
   5497805.59949   4285980.05146  21802802.054    21802801.048    21802813.004
       224.000         175.000
 -13384747.61649 -10407754.47147  20169928.603    20169927.968    20169937.586
       239.000         198.000
 00  5  3 17 47 59.9930000  0  6G30G 4G 5G24G 7G 9
 -11122108.89049  -8314633.89346  21964173.510    21964173.876    21964188.961
       220.000         163.000
 -17006429.70949 -13225871.41847  19058022.952    19058022.782    19058031.472
       241.000         205.000
 -31973159.92849 -24891512.89847  19196817.240    19196816.571    19196826.254
       238.000         202.000
 -33151396.61449 -25816254.74047  18374621.606    18374621.153    18374630.549
       235.000         199.000
   5530992.64549   4311840.03146  21809117.433    21809116.405    21809128.322
       226.000         174.000
 -13353041.99549 -10383048.89747  20175962.114    20175961.433    20175971.049
       239.000         198.000
 00  5  3 17 48 29.9930000  0  6G30G 4G 5G24G 7G 9
 -11256266.58349  -8419172.18546  21938644.055    21938644.418    21938659.400
       221.000         163.000
 -16981482.27649 -13206431.90547  19062770.277    19062770.148    19062778.870
       241.000         205.000
 -32067449.87849 -24964985.55247  19178874.365    19178873.735    19178883.434
       238.000         202.000
 -33205414.30949 -25858346.43847  18364342.318    18364341.923    18364351.297
       235.000         199.000
   5564244.67549   4337750.63046  21815445.178    21815444.136    21815456.031
       227.000         170.000
 -13320926.53749 -10358023.95847  20182073.568    20182072.895    20182082.512
       239.000         197.000
 00  5  3 17 48 59.9930000  0  6G30G 4G 5G24G 7G 9
 -11390361.06249  -8523661.22346  21913126.502    21913126.898    21913141.861
       223.000         163.000
 -16956104.68949 -13186657.19947  19067599.587    19067599.384    19067608.120
       242.000         205.000
 -32161424.86449 -25038212.77447  19160991.376    19160990.817    19161000.554
       239.000         202.000
 -33258901.11949 -25900024.46747  18354164.119    18354163.695    18354173.085
       234.000         199.000
   5597537.58149   4363693.10446  21821780.723    21821779.629    21821791.536
       228.000         168.000
 -13288428.06449 -10332700.57747  20188257.932    20188257.238    20188266.850
       238.000         197.000
 00  5  3 17 49 29.9930000  0  6G30G 4G 5G24G 7G 9
 -11524372.70849  -8628085.71846  21887624.857    21887625.226    21887640.109
       220.000         164.000
 -16930281.59249 -13166535.35947  19072513.564    19072513.370    19072522.140
       240.000         204.000
 -32255064.99849 -25111179.07347  19143172.210    19143171.645    19143181.378
       239.000         202.000
 -33311839.50149 -25941275.14847  18344090.276    18344089.856    18344099.221
       235.000         200.000
   5630889.07949   4389681.20346  21828127.409    21828126.261    21828138.184
       228.000         164.000
 -13255531.29049 -10307066.83847  20194518.056    20194517.363    20194526.988
       238.000         197.000
 00  5  3 17 49 59.9930000  0  6G30G 4G 5G24G 7G 9
 -11658295.88549  -8732441.25345  21862139.802    21862140.299    21862155.176
       220.000         162.000
 -16904011.96549 -13146065.55447  19077512.553    19077512.353    19077521.076
       242.000         204.000
 -32348365.02849 -25183880.35247  19125417.830    19125417.218    19125426.917
       239.000         202.000
 -33364226.21649 -25982095.95947  18334121.444    18334121.027    18334130.378
       235.000         200.000
   5664302.58749   4415717.67845  21834485.869    21834484.696    21834496.577
       227.000         159.000
 -13222235.49749 -10281122.17047  20200854.084    20200853.406    20200863.053
       238.000         197.000
 00  5  3 17 50 29.9930000  0  7G30G 4G 5G24G 7G 9G 6
 -11792135.59249  -8836731.80945  21836670.805    21836671.282    21836686.025
       219.000         159.000
 -16877305.07549 -13125255.01447  19082594.767    19082594.566    19082603.246
       243.000         204.000
 -32441329.49449 -25256320.15247  19107727.277    19107726.640    19107736.320
       240.000         201.000
 -33416068.23749 -26022492.32847  18324256.237    18324255.820    18324265.190
       235.000         199.000
                   4441797.23045  21840854.841
       226.000         149.000
 -13188549.92749 -10254873.78047  20207264.355    20207263.621    20207273.303
       239.000         196.000
  -2480805.24659  -1918990.02855  23494372.300    23494371.979    23494389.804
       210.000         144.000
 00  5  3 17 50 59.9930000  0  7G30G 4G 5G24G 7G 9G 6
 -11925888.08749  -8940954.38146  21811218.428    21811218.915    21811233.528
       223.000         164.000
 -16850161.52749 -13104104.24247  19087760.034    19087759.842    19087768.493
       241.000         204.000
 -32533954.12449 -25328495.15347  19090101.416    19090100.757    19090110.370
       238.000         202.000
 -33467363.84849 -26062462.93647  18314494.999    18314494.583    18314503.947
       234.000         199.000
                   4467921.24645  21847234.683
       223.000         149.000
 -13154475.27949 -10228322.21847  20213748.591    20213747.894    20213757.578
       238.000         197.000
  -2590888.04149  -2004768.76945  23473424.369    23473423.957    23473441.589
       209.000         144.000
 00  5  3 17 51 29.9930000  0  7G30G 4G 5G24G 7G 9G 6
 -12059555.43749  -9045110.59446  21785782.299    21785782.752    21785797.347
       222.000         165.000
 -16822587.71949 -13082618.20447  19093007.182    19093006.995    19093015.626
       241.000         204.000
 -32626240.99049 -25400406.95947  19072539.787    19072539.126    19072548.702
       240.000         202.000
 -33518117.36649 -26102011.13047  18304836.935    18304836.502    18304845.886
       234.000         199.000
   5764876.06049   4494086.55245  21853624.572    21853623.397    21853635.301
       220.000         149.000
 -13120018.08949 -10201472.58547  20220305.743    20220304.978    20220314.646
       238.000         197.000
  -2700923.30549  -2090510.55345  23452485.385    23452485.063    23452502.527
       211.000         145.000
 00  5  3 17 51 59.9930000  0  7G30G 4G 5G24G 7G 9G 6
 -12193145.04659  -9149206.23056  21760361.056    21760361.384    21760375.842
       225.000         163.000
 -16794595.51849 -13060806.14047  19098333.891    19098333.743    19098342.369
       241.000         203.000
 -32718197.48349 -25472061.32947  19055041.049    19055040.368    19055049.924
       239.000         203.000
 -33568337.40849 -26141143.40547  18295280.290    18295279.911    18295289.329
       233.000         198.000
   5798498.47159   4520285.75355  21860022.722    21860021.592    21860033.547
       218.000         153.000
 -13085190.36149 -10174334.21147  20226933.320    20226932.566    20226942.253
       238.000         196.000
  -2810919.50349  -2176221.59445  23431553.657    23431553.333    23431571.038
       201.000         144.000
 00  5  3 17 52 29.9930000  0  7G30G 4G 5G24G 7G 9G 6
 -12326682.71649  -9253261.43846  21734949.756    21734949.938    21734964.211
       222.000         163.000
 -16766215.63649 -13038691.99147  19103734.418    19103734.271    19103742.885
       239.000         202.000
 -32809849.59149 -25543478.51747  19037600.223    19037599.530    19037609.089
       238.000         202.000
 -33618054.50749 -26179884.00147  18285819.340    18285819.016    18285828.433
       232.000         198.000
   5832136.33349   4546497.00645  21866423.848    21866422.778    21866434.710
       215.000         153.000
 -13050022.65849 -10146930.92847  20233625.635    20233624.854    20233634.562
       238.000         196.000
  -2920906.88349  -2261926.05745  23410623.701    23410623.463    23410641.187
       204.000         144.000
 00  5  3 17 52 59.9930000  0  7G30G 4G 5G24G 7G 9G 6
 -12460125.36649  -9357242.58946  21709556.220    21709556.498    21709570.712
       222.000         164.000
 -16737408.57749 -13016244.99247  19109216.199    19109216.070    19109224.697
       241.000         201.000
 -32901153.50349 -25614624.40047  19020225.624    19020224.947    19020234.511
       239.000         203.000
 -33667226.09149 -26218199.53747  18276462.317    18276461.963    18276471.368
       232.000         199.000
   5865831.19349   4572752.63545  21872835.801    21872834.764    21872846.742
       215.000         153.000
 -13014476.23849 -10119232.55647  20240389.939    20240389.189    20240398.915
       237.000         196.000
  -3030842.97349  -2347590.53145  23389703.716    23389703.344    23389721.017
       209.000         146.000
 00  5  3 17 53 29.9930000  0  7G30G 4G 5G24G 7G 9G 6
 -12593482.16549  -9461156.82746  21684179.267    21684179.507    21684193.643
       226.000         166.000
 -16708188.65749 -12993476.25847  19114776.598    19114776.448    19114785.085
       243.000         202.000
 -32992118.70049 -25685506.33147  19002915.421    19002914.785    19002924.386
       242.000         201.000
 -33715864.31249 -26256099.44247  18267206.726    18267206.391    18267215.822
       234.000         197.000
   5899571.48649   4599043.68845  21879256.421    21879255.396    21879267.411
       214.000         153.000
 -12978565.52449 -10091250.29647  20247223.441    20247222.822    20247232.595
       239.000         194.000
  -3140739.11649  -2433223.84345  23368791.212    23368790.830    23368808.450
       209.000         145.000
 00  5  3 17 53 59.9930000  0  7G30G 4G 5G24G 7G 9G 6
 -12726725.18949  -9564982.41146  21658823.994    21658824.122    21658838.234
       222.000         164.000
 -16678532.20749 -12970367.39047  19120420.045    19120419.879    19120428.605
       241.000         204.000
 -33082716.86249 -25756102.26347  18985675.111    18985674.484    18985684.084
       240.000         203.000
 -33763943.09849 -26293563.43147  18258057.640    18258057.291    18258066.696
       233.000         199.000
   5933383.52749   4625390.60545  21885690.647    21885689.665    21885701.657
       213.000         158.000
 -12942266.85249 -10062965.74847  20254130.892    20254130.277    20254140.099
       239.000         196.000
  -3250569.46249  -2518805.91445  23347891.114    23347890.702    23347908.372
       210.000         146.000
 00  5  3 17 54 29.9930000  0  7G30G 4G 5G24G 7G 9G 6
 -12859890.66749  -9668747.55246  21633483.319    21633483.449    21633497.482
       224.000         164.000
 -16648479.94949 -12946950.09747  19126138.823    19126138.671    19126147.432
       240.000         203.000
 -33172984.50049 -25826440.64647  18968497.704    18968497.072    18968506.694
       238.000         202.000
 -33811501.30249 -26330621.76747  18249007.607    18249007.250    18249016.631
       231.000         198.000
   5967228.78949   4651763.43445  21892131.288    21892130.264    21892142.301
       211.000         160.000
 -12905621.26149 -10034410.86247  20261104.388    20261103.763    20261113.605
       237.000         195.000
  -3360372.35849  -2604366.56945  23326996.191    23326995.790    23327013.548
       203.000         146.000
 00  5  3 17 54 59.9930000  0  7G30G 4G 5G24G 7G 9G 6
 -12992993.94349  -9772464.26746  21608154.456    21608154.628    21608168.622
       220.000         165.000
 -16618051.85649 -12923239.94247  19131929.167    19131928.994    19131937.770
       240.000         203.000
 -33262936.52449 -25896533.09747  18951380.303    18951379.706    18951389.348
       239.000         202.000
 -33858556.57849 -26367288.21747  18240053.252    18240052.921    18240062.274
       231.000         198.000
   6001090.08149   4678148.71945  21898574.947    21898573.908    21898586.011
       210.000         158.000
 -12868648.84749 -10005601.31647  20268140.058    20268139.456    20268149.322
       237.000         195.000
  -3470165.18049  -2689919.39045  23306103.535    23306102.956    23306120.596
       209.000         145.000
 00  5  3 17 55 29.9930000  0  7G30G 4G 5G24G 7G 9G 6
 -13126004.01549  -9876108.33646  21582842.922    21582843.361    21582857.453
       221.000         164.000
 -16587221.18349 -12899216.09747  19137796.067    19137795.894    19137804.705
       240.000         202.000
 -33352542.04549 -25966355.55447  18934328.915    18934328.304    18934337.927
       238.000         202.000
 -33905080.36649 -26403540.52147  18231200.120    18231199.735    18231209.106
       231.000         198.000
   6034996.38449   4704569.07345  21905027.194    21905026.139    21905038.220
       210.000         160.000
 -12831323.04149  -9976516.41147  20275243.011    20275242.393    20275252.316
       238.000         195.000
  -3579919.23749  -2775442.00245  23285217.973    23285217.393    23285235.038
       205.000         145.000
 00  5  3 17 55 59.9930000  0  8G30G 4G 5G24G 7G10G 9G 6
 -13258925.65849  -9979683.48246  21557548.593    21557549.074    21557563.103
       226.000         168.000
 -16555997.54749 -12874886.05247  19143737.739    19143737.579    19143746.430
       239.000         202.000
 -33441805.97449 -26035911.83947  18917342.499    18917341.903    18917351.527
       239.000         202.000
 -33951079.99049 -26439384.38347  18222446.663    18222446.270    18222455.652
       231.000         198.000
   6068940.56249   4731018.92945  21911486.672    21911485.581    21911497.678
       210.000         160.000
   -318776.64759   -217020.10655  22101055.747    22101055.969    22101073.241
       210.000         149.000
 -12793653.79249  -9947163.88747  20282411.434    20282410.713    20282420.672
       238.000         196.000
  -3689641.40149  -2860939.76945  23264338.557    23264337.939    23264355.549
       213.000         148.000
 00  5  3 17 56 29.9930000  0  8G30G 4G 5G24G 7G10G 9G 6
 -13391752.66749 -10083184.89346  21532272.548    21532272.902    21532286.859
       225.000         166.000
 -16524379.11749 -12850248.36647  19149754.608    19149754.418    19149763.254
       241.000         203.000
 -33530721.84849 -26105196.90747  18900422.401    18900421.749    18900431.359
       240.000         202.000
 -33996551.55949 -26474816.77947  18213793.653    18213793.286    18213802.708
       231.000         198.000
   6102927.24149   4757501.90945  21917954.207    21917953.108    21917965.275
       210.000         162.000
   -453889.14349   -322302.36345  22075344.722    22075343.454    22075359.977
       208.000         141.000
 -12755639.06949  -9917542.16547  20289645.489    20289644.777    20289654.771
       237.000         196.000
  -3799327.44449  -2946409.35845  23243465.915    23243465.338    23243482.978
       211.000         147.000
 00  5  3 17 56 59.9930000  0  8G30G 4G 5G24G 7G10G 9G 6
 -13524489.09949 -10186615.73446  21507013.753    21507013.937    21507027.762
       223.000         165.000
 -16492374.48949 -12825309.75347  19155844.937    19155844.738    19155853.581
       240.000         201.000
 -33619293.67449 -26174213.88647  18883567.755    18883567.082    18883576.659
       239.000         202.000
 -34041501.68349 -26509842.84947  18205239.935    18205239.568    18205248.972
       232.000         198.000
   6136950.24649   4784013.18946  21924428.644    21924427.530    21924439.729
       210.000         164.000
   -588997.25859   -427581.28355  22049634.585    22049633.437    22049649.947
       203.000         139.000
 -12717287.81149  -9887658.20647  20296943.609    20296942.871    20296952.931
       238.000         195.000
  -3908983.21749  -3031855.38345  23222598.892    23222598.511    23222616.076
       213.000         148.000
 00  5  3 17 57 29.9930000  0  8G30G 4G 5G24G 7G10G 9G 6
 -13657116.77249 -10289961.80046  21481775.318    21481775.565    21481789.349
       225.000         166.000
 -16459969.98449 -12800059.54247  19162011.390    19162011.167    19162019.970
       240.000         202.000
 -33707503.15349 -26242948.51447  18866782.033    18866781.353    18866790.922
       239.000         203.000
 -34085914.63849 -26544450.35547  18196788.414    18196788.050    18196797.444
       230.000         198.000
   6171025.84349   4810565.47746  21930913.110    21930912.003    21930924.200
       211.000         165.000
   -724081.75548   -532841.70944  22023928.809    22023927.467    22023943.939
       194.000         129.000
 -12678586.61549  -9857501.57647  20304308.289    20304307.566    20304317.657
       237.000         195.000
  -4018592.97649  -3117265.56945  23201740.897    23201740.444    23201757.940
       218.000         147.000
 00  5  3 17 57 59.9930000  0  8G30G 4G 5G24G 7G10G 9G 6
 -13789630.04749 -10393218.75346  21456558.766    21456559.044    21456572.831
       224.000         169.000
 -16427164.80749 -12774497.13947  19168254.061    19168253.827    19168262.657
       240.000         203.000
 -33795345.01949 -26311396.69247  18850066.281    18850065.603    18850075.148
       239.000         203.000
 -34129787.69849 -26578637.15347  18188439.673    18188439.287    18188448.648
       231.000         198.000
   6205157.24249   4837161.21846  21937408.220    21937407.099    21937419.321
       212.000         165.000
   -859136.73349   -638079.17045  21998228.486    21998226.888    21998243.819
       201.000         141.000
 -12639534.88249  -9827071.80147  20311739.724    20311738.971    20311749.084
       237.000         195.000
  -4128153.54049  -3202637.39045  23180892.305    23180891.740    23180909.251
       216.000         149.000
 00  5  3 17 58 29.9930000  0  8G30G 4G 5G24G 7G10G 9G 6
 -13922044.67449 -10496398.81446  21431360.847    21431361.200    21431375.113
       223.000         168.000
 -16393979.12649 -12748638.23047  19174569.161    19174568.918    19174577.727
       241.000         202.000
 -33882834.66349 -26379570.41547  18833417.584    18833416.865    18833426.379
       239.000         203.000
 -34173138.86549 -26612417.29147  18180190.184    18180189.827    18180199.184
       230.000         197.000
   6239326.96749   4863786.83146  21943910.608    21943909.470    21943921.697
       212.000         169.000
   -994175.95749   -743304.38545  21972531.194    21972530.008    21972546.649
       206.000         139.000
 -12600153.17449  -9796384.90647  20319233.842    20319233.160    20319243.300
       236.000         195.000
  -4237682.59749  -3287984.67045  23160049.680    23160049.131    23160066.534
       216.000         149.000
 00  5  3 17 58 59.9930000  0  8G30G 4G 5G24G 7G10G 9G 6
 -14054361.35649 -10599502.57946  21406181.579    21406181.999    21406195.941
       224.000         167.000
 -16360418.40249 -12722487.07247  19180955.634    19180955.374    19180964.159
       243.000         200.000
 -33969972.94549 -26447470.35147  18816835.746    18816835.012    18816844.511
       242.000         202.000
 -34215971.67849 -26645793.53047  18172039.386    18172039.016    18172048.373
       231.000         197.000
   6273532.10949   4890440.03746  21950419.733    21950418.593    21950430.852
       216.000         169.000
  -1129199.29749   -848517.14145  21946836.954    21946835.764    21946852.584
       209.000         143.000
 -12560446.76549  -9765445.00147  20326789.850    20326789.135    20326799.305
       238.000         194.000
  -4347183.01149  -3373309.60645  23139212.443    23139211.861    23139229.284
       210.000         148.000
 00  5  3 17 59 29.9930000  0  8G30G 4G 5G24G 7G10G 9G 6
 -14186554.17149 -10702509.80346  21381025.940    21381026.390    21381040.365
       224.000         170.000
 -16326461.13849 -12696026.93147  19187417.465    19187417.241    19187426.056
       240.000         200.000
 -34056734.07349 -26515076.39747  18800325.645    18800324.906    18800334.369
       240.000         203.000
 -34258262.66949 -26678747.55747  18163991.613    18163991.264    18164000.680
       231.000         197.000
   6307796.62549   4917139.50746  21956940.199    21956939.031    21956951.290
       215.000         170.000
  -1264179.84149   -953696.65945  21921150.852    21921149.704    21921166.676
       211.000         150.000
 -12520394.67749  -9734235.72647  20334411.626    20334410.893    20334421.093
       238.000         194.000
  -4456630.94649  -3458593.64945  23118385.086    23118384.503    23118402.023
       212.000         149.000
 00  5  3 17 59 59.9930000  0  8G30G 4G 5G24G 7G10G 9G 6
 -14318657.96749 -10805447.65746  21355887.493    21355887.868    21355901.774
       226.000         171.000
 -16292146.77849 -12669288.55947  19193947.220    19193947.051    19193955.949
       240.000         202.000
 -34143152.66649 -26582415.53647  18783880.690    18783879.976    18783889.419
       240.000         203.000
 -34300049.30649 -26711308.58647  18156039.905    18156039.530    18156048.928
       230.000         197.000
   6342083.67949   4943856.55446  21963464.915    21963463.727    21963476.031
       218.000         170.000
  -1399151.37549  -1058869.08545  21895466.646    21895465.473    21895482.382
       214.000         154.000
 -12480036.69249  -9702788.09147  20342091.598    20342090.873    20342101.093
       236.000         194.000
  -4566063.45349  -3543865.68545  23097560.580    23097560.148    23097577.643
       212.000         149.000
 00  5  3 18  0 29.9930000  0  8G30G 4G 5G24G 7G10G 9G 6
 -14450629.50749 -10908282.45446  21330774.073    21330774.383    21330788.222
       225.000         166.000
 -16257437.01049 -12642242.05447  19200552.344    19200552.157    19200561.076
       240.000         202.000
 -34229185.81749 -26649454.32547  18767509.075    18767508.389    18767517.809
       239.000         202.000
 -34341291.20449 -26743445.14347  18148191.799    18148191.431    18148200.850
       230.000         196.000
   6376434.35149   4970623.18346  21970001.737    21970000.542    21970012.878
       213.000         165.000
  -1534069.76349  -1164000.12245  21869792.542    21869791.372    21869808.176
       214.000         159.000
 -12439334.24349  -9671072.04147  20349837.073    20349836.372    20349846.614
       236.000         193.000
  -4675439.66649  -3629093.83345  23076746.948    23076746.563    23076764.022
       214.000         151.000
 00  5  3 18  0 59.9930000  0  8G30G 4G 5G24G 7G10G 9G 6
 -14582472.86749 -11011017.38646  21305685.120    21305685.356    21305699.011
       228.000         171.000
 -16222340.43949 -12614894.15347  19207231.042    19207230.849    19207239.795
       239.000         200.000
 -34314837.52549 -26716195.89047  18751210.059    18751209.385    18751218.772
       239.000         203.000
 -34381995.45549 -26775162.76447  18140446.024    18140445.651    18140455.113
       230.000         197.000
   6410842.33749   4997434.43546  21976549.444    21976548.264    21976560.616
       218.000         172.000
  -1668938.09249  -1269092.15645  21844127.604    21844126.648    21844143.510
       214.000         157.000
 -12398296.36349  -9639094.62047  20357646.410    20357645.711    20357655.968
       235.000         193.000
  -4784765.84349  -3714283.02245  23055942.960    23055942.529    23055959.892
       209.000         151.000
 00  5  3 18  1 29.9930000  0  8G30G 4G 5G24G 7G10G 9G 6
 -14714194.39449 -11113657.38346  21280619.147    21280619.421    21280633.071
       225.000         169.000
 -16186867.89149 -12587253.29147  19213981.233    19213981.067    19213990.059
       241.000         199.000
 -34400113.98349 -26782645.05747  18734982.503    18734981.810    18734991.170
       242.000         203.000
 -34422170.64849 -26806468.12247  18132800.963    18132800.593    18132810.024
       232.000         196.000
   6445299.65249   5024284.15046  21983106.587    21983105.383    21983117.752
       221.000         171.000
  -1803761.61649  -1374149.24845  21818471.499    21818470.526    21818487.417
       217.000         156.000
 -12356933.83049  -9606864.23047  20365517.499    20365516.821    20365527.107
       238.000         193.000
  -4894050.16749  -3799439.58945  23035146.644    23035146.231    23035163.796
       206.000         150.000
 00  5  3 18  1 59.9930000  0  8G30G 4G 5G24G 7G10G 9G 6
 -14845770.53449 -11216184.08846  21255580.870    21255581.172    21255594.799
       226.000         171.000
 -16151000.71449 -12559304.90747  19220806.641    19220806.438    19220815.384
       239.000         199.000
 -34484991.98449 -26848783.73347  18718830.718    18718830.018    18718839.387
       240.000         203.000
 -34461796.38249 -26837345.33547  18125260.467    18125260.061    18125269.498
       230.000         197.000
   6479827.53049   5051188.84645  21989677.124    21989675.914    21989688.330
       215.000         160.000
  -1938516.08749  -1479152.55045  21792828.663    21792827.578    21792844.413
       214.000         155.000
 -12315228.62849  -9574366.82147  20373453.801    20373453.140    20373463.461
       236.000         192.000
  -5003271.47149  -3884547.01745  23014362.354    23014361.993    23014379.680
       213.000         152.000
 00  5  3 18  2 29.9930000  0  8G30G 4G 5G24G 7G10G 9G 6
 -14977229.62849 -11318619.60946  21230564.822    21230565.208    21230578.779
       224.000         171.000
 -16114772.15049 -12531074.92447  19227700.737    19227700.522    19227709.472
       240.000         198.000
 -34569500.04649 -26914634.14947  18702749.373    18702748.670    18702758.006
       241.000         204.000
 -34500903.83749 -26867818.69947  18117818.555    18117818.157    18117827.615
       229.000         197.000
   6514395.35649   5078124.68145  21996255.316    21996254.079    21996266.515
       207.000         143.000
  -2073228.64649  -1584123.21445  21767193.377    21767192.493    21767209.414
       208.000         149.000
 -12273214.01249  -9541628.31247  20381448.993    20381448.347    20381458.729
       236.000         192.000
  -5112460.55449  -3969629.34245  22993584.529    22993584.031    22993601.621
       217.000         150.000
 00  5  3 18  2 59.9930000  0  8G30G 4G 5G24G 7G10G 9G 6
 -15108572.73749 -11420964.72446  21205570.752    21205571.227    21205584.874
       225.000         171.000
 -16078187.54349 -12502567.52547  19234662.557    19234662.363    19234671.332
       241.000         200.000
 -34653639.06749 -26980197.00547  18686738.185    18686737.519    18686746.849
       242.000         203.000
 -34539496.73749 -26897891.11047  18110474.659    18110474.212    18110483.648
       233.000         197.000
   6549000.28149   5105089.41644  22002840.555    22002839.365    22002851.755
       198.000         127.000
  -2207899.27349  -1689061.15845  21741566.351    21741565.403    21741582.260
       208.000         142.000
 -12230895.90949  -9508653.33347  20389501.980    20389501.304    20389511.734
       237.000         191.000
  -5221620.26349  -4054688.77345  22972812.206    22972811.673    22972829.222
       216.000         153.000
 00  5  3 18  3 29.9930000  0  8G30G 4G 5G24G 7G10G 9G 6
 -15239792.58849 -11523213.82546  21180600.479    21180600.838    21180614.388
       228.000         173.000
 -16041244.79949 -12473781.04147  19241692.687    19241692.441    19241701.391
       241.000         201.000
 -34737402.44149 -27045467.14847  18670798.543    18670797.873    18670807.199
       240.000         204.000
 -34577571.01649 -26927559.40347  18103229.325    18103228.920    18103238.362
       230.000         197.000
   6583647.22148   5132086.82944  22009433.748                    22009432.176
       188.000         112.000
  -2342520.06249  -1793960.25345  21715948.663    21715947.779    21715964.690
       211.000         143.000
 -12188272.17449  -9475440.19347  20397613.192    20397612.463    20397622.900
       236.000         191.000
  -5330746.10649  -4139721.81445  22952046.146    22952045.679    22952063.120
       216.000         151.000
 00  5  3 18  3 59.9930000  0  8G30G 4G 5G24G 7G10G 9G 6
 -15370857.05749 -11625341.82146  21155659.528    21155659.985    21155673.521
       223.000         172.000
 -16003916.10849 -12444693.80947  19248796.180    19248795.913    19248804.847
       238.000         198.000
 -34820757.46749 -27110419.09947  18654936.648    18654935.930    18654945.228
       240.000         204.000
 -34615096.97749 -26956800.42347  18096088.436    18096088.001    18096097.390
       230.000         197.000
                   5159140.70454  22016040.702
       179.000         104.000
  -2477057.43749  -1898794.39745  21690346.868    21690346.058    21690362.919
       213.000         145.000
 -12145315.19849  -9441967.38847  20405787.855    20405787.044    20405797.486
       235.000         191.000
  -5439807.81549  -4224704.88845  22931292.367    22931291.944    22931309.372
       211.000         151.000
 00  5  3 18  4 29.9930000  0  8G30G 4G 5G24G 7G10G 9G 6
 -15501796.28849 -11727372.25046  21130742.559    21130742.945    21130756.487
       229.000         173.000
 -15966236.22049 -12415332.94747  19255966.394    19255966.164    19255975.141
       238.000         196.000
 -34903734.65249 -27175076.63247  18639146.558    18639145.874    18639155.184
       241.000         204.000
 -34652107.90149 -26985640.13047  18089045.460    18089045.044    18089054.446
       231.000         196.000
                   5186225.26453  22022655.181
       172.000          94.000
  -2611540.38149  -2003586.12345  21664755.507    21664754.712    21664771.476
       218.000         151.000
 -12102060.00249  -9408262.22247  20414019.231    20414018.388    20414028.816
       237.000         189.000
  -5548837.93749  -4309663.35045  22910544.639    22910544.148    22910561.694
       217.000         153.000
 00  5  3 18  4 59.9930000  0  8G30G 4G 5G24G 7G10G 9G 6
 -15632619.30449 -11829312.11446  21105847.818    21105848.064    21105861.495
       224.000         171.000
 -15928219.29249 -12385709.43547  19263200.827    19263200.595    19263209.576
       239.000         199.000
 -34986343.66749 -27239447.27447  18623426.583    18623425.914    18623435.212
       240.000         204.000
 -34688615.85149 -27014087.89247  18082098.316    18082097.845    18082107.205
       230.000         197.000
                   5213333.41754  22029275.384
       172.000          96.000
  -2745977.41749  -2108342.07745  21639172.917    21639172.137    21639188.752
       218.000         156.000
 -12058521.18149  -9374336.03547  20422304.550    20422303.695    20422314.121
       234.000         189.000
  -5657847.79249  -4394606.01745  22889800.642    22889800.203    22889817.849
       214.000         153.000
 00  5  3 18  5 29.9930000  0  7G30G 4G 5G24G10G 9G 6
 -15763316.14349 -11931153.65546  21080976.935    21080977.204    21080990.548
       229.000         174.000
 -15889860.12049 -12355819.24447  19270500.443    19270500.191    19270509.182
       240.000         198.000
 -35068574.43549 -27303523.18647  18607778.646    18607777.923    18607787.212
       242.000         204.000
 -34724613.69649 -27042138.17947  18075248.116    18075247.702    18075257.056
       231.000         197.000
  -2880357.58049  -2213053.70745  21613601.180    21613600.344    21613616.895
       220.000         162.000
 -12014693.43449  -9340184.72647  20430644.851    20430643.978    20430654.403
       235.000         189.000
  -5766829.53249  -4479526.80145  22869062.115    22869061.679    22869079.266
       208.000         151.000
 00  5  3 18  5 59.9930000  0  7G30G 4G 5G24G10G 9G 6
 -15893877.51349 -12032889.64746  21056131.811    21056132.108    21056145.410
       225.000         174.000
 -15851154.06049 -12325658.73847  19277866.051    19277865.771    19277874.739
       239.000         198.000
 -35150417.99849 -27367297.37747  18592204.214    18592203.566    18592212.874
       239.000         204.000
 -34760095.51149 -27069786.36647  18068496.187    18068495.765    18068505.104
       230.000         198.000
  -3014670.70249  -2317713.08545  21588041.941    21588041.285    21588057.833
       216.000         162.000
 -11970572.32149  -9305804.84147  20439040.882    20439040.063    20439050.540
       233.000         189.000
  -5875776.36149  -4564420.36245  22848329.977    22848329.686    22848347.252
       213.000         153.000
 00  5  3 18  6 29.9930000  0  7G30G 4G 5G24G10G 9G 6
 -16024304.30049 -12134520.73646  21031312.191    21031312.538    21031325.889
       228.000         175.000
 -15812106.77649 -12295232.34847  19285296.555    19285296.283    19285305.273
       239.000         199.000
 -35231875.15749 -27430770.47647  18576703.404    18576702.748    18576712.060
       242.000         204.000
 -34795064.87649 -27097035.23247  18061841.850    18061841.354    18061850.659
       231.000         196.000
  -3148916.12649  -2422319.69645  21562495.801    21562495.085    21562511.626
       217.000         159.000
 -11926163.95749  -9271201.10347  20447491.648    20447490.820    20447501.334
       234.000         188.000
  -5984691.12549  -4649288.91945  22827603.840    22827603.762    22827621.221
       213.000         149.000
 00  5  3 18  6 59.9920000  0  7G30G 4G 5G24G10G 9G 6
 -16154563.55849 -12236021.32246  21006524.626    21006524.949    21006538.222
       227.000         175.000
 -15772696.01449 -12264522.74147  19292796.187    19292795.926    19292805.007
       237.000         197.000
 -35312915.22649 -27493918.56947  18561281.954    18561281.312    18561290.621
       241.000         205.000
 -34829495.36949 -27123864.20947  18055289.907    18055289.462    18055298.784
       229.000         197.000
  -3283060.24449  -2526847.33245  21536968.755    21536968.105    21536984.681
       214.000         156.000
 -11881446.49849  -9236356.51247  20456001.207    20456000.391    20456010.946
       233.000         189.000
  -6093544.48349  -4734109.64545  22806889.872    22806889.610    22806907.086
       213.000         153.000
 00  5  3 18  7 29.9920000  0  7G30G 4G 5G24G10G 9G 6
 -16284686.73349 -12337415.85546  20981762.858    20981763.220    20981776.392
       229.000         174.000
 -15732946.26749 -12233548.98247  19300360.284    19300360.067    19300369.162
       238.000         196.000
 -35393566.27449 -27556763.52647  18545934.561    18545933.919    18545943.252
       242.000         204.000
 -34863414.87249 -27150295.00347  18048835.257    18048834.795    18048844.098
       229.000         196.000
  -3417133.52449  -2631319.79445  21511455.337    21511454.649    21511471.203
       214.000         157.000
 -11836444.47349  -9201290.16747  20464564.970    20464564.119    20464574.700
       234.000         188.000
  -6202368.42049  -4818907.43845  22786181.388    22786181.115    22786198.517
       217.000         153.000
 00  5  3 18  7 59.9920000  0  7G30G 4G 5G24G10G 9G 6
 -16414679.42349 -12438708.71746  20957026.057    20957026.345    20957039.447
       228.000         176.000
 -15692873.97249 -12202323.86647  19307985.860    19307985.636    19307994.714
       238.000         197.000
 -35473835.88749 -27619311.25947  18530659.767    18530659.120    18530668.452
       241.000         204.000
 -34896835.47049 -27176337.04647  18042475.481    18042475.063    18042484.400
       230.000         196.000
  -3551140.60849  -2735740.66545  21485954.600    21485953.831    21485970.354
       215.000         157.000
 -11791174.75349  -9166015.23746  20473179.609    20473178.775    20473189.395
       233.000         187.000
  -6311171.47949  -4903688.95345  22765477.170    22765476.660    22765493.895
       210.000         152.000
 00  5  3 18  8 29.9920000  0  7G30G 4G 5G24G10G 9G 6
 -16544538.87649 -12539897.74646  20932314.566    20932314.812    20932327.892
       228.000         176.000
 -15652480.95849 -12170848.85147  19315672.445    19315672.227    19315681.338
       238.000         198.000
 -35553721.62549 -27681559.86547  18515457.992    18515457.361    18515466.693
       241.000         204.000
 -34929757.39749 -27201990.51247  18036210.775    18036210.295    18036219.594
       230.000         196.000
  -3685078.16949  -2840107.36345  21460466.884    21460466.158    21460482.718
       218.000         158.000
 -11745639.53349  -9130533.41646  20481844.781    20481843.964    20481854.625
       233.000         186.000
  -6419953.16149  -4988453.82345  22744776.470    22744776.136    22744793.316
       210.000         150.000
 00  5  3 18  8 59.9920000  0  7G30G 4G 5G24G10G 9G 6
 -16674238.30549 -12640962.10146  20907633.385    20907633.728    20907646.696
       227.000         175.000
 -15611745.27849 -12139106.84747  19323424.249    19323424.017    19323433.187
       238.000         199.000
 -35633196.82549 -27743488.57547  18500334.454    18500333.744    18500343.057
       241.000         204.000
 -34962157.05849 -27227237.01847  18030045.358    18030044.882    18030054.158
       229.000         197.000
  -3818918.00149  -2944397.94945  21434997.779    21434997.121    21435013.690
       219.000         159.000
 -11699817.02449  -9094827.73746  20490564.653    20490563.824    20490574.508
       233.000         187.000
  -6528689.04649  -5073182.99145  22724084.291    22724084.246    22724101.521
       213.000         153.000
 00  5  3 18  9 29.9920000  0  7G30G 4G 5G24G10G 9G 6
 -16803782.70649 -12741905.63646  20882981.572    20882982.060    20882995.074
       228.000         178.000
 -15570676.99149 -12107105.64647  19331239.368    19331239.138    19331248.301
       236.000         197.000
 -35712266.82649 -27805101.54747  18485287.957    18485287.234    18485296.506
       241.000         205.000
 -34994042.92549 -27252083.17247  18023977.626    18023977.178    18023986.497
       230.000         196.000
  -3952664.21849  -3048615.61145  21409546.684    21409546.020    21409562.445
       223.000         161.000
 -11653717.31349  -9058906.04846  20499337.189    20499336.443    20499347.144
       233.000         186.000
  -6637386.67349  -5157882.36845  22703399.871    22703399.721    22703417.051
       209.000         153.000
 00  5  3 18  9 59.9920000  0  7G30G 4G 5G24G10G 9G 6
 -16933169.91049 -12842726.70246  20858360.219    20858360.519    20858373.374
       231.000         178.000
 -15529278.14149 -12074846.88747  19339117.298    19339117.085    19339126.295
       237.000         196.000
 -35790929.52549 -27866397.14647  18470318.924    18470318.225    18470327.470
       242.000         205.000
 -35025415.62549 -27276529.45947  18018007.566    18018007.147    18018016.476
       232.000         197.000
  -4086313.50749  -3152757.74145  21384114.078    21384113.355    21384129.609
       223.000         159.000
 -11607343.23849  -9022770.57246  20508162.094    20508161.273    20508171.997
       235.000         186.000
  -6746045.75149  -5242551.69145  22682722.732    22682722.470    22682739.764
       214.000         152.000
 00  5  3 18 10 29.9920000  0  7G30G 4G 5G24G10G 9G 6
 -17062393.63549 -12943420.37546  20833769.738    20833769.979    20833782.762
       228.000         179.000
 -15487547.79149 -12042329.80447  19347058.407    19347058.177    19347067.373
       239.000         197.000
 -35869179.11449 -27927370.82747  18455428.555    18455427.805    18455437.029
       241.000         205.000
 -35056272.34049 -27300573.66547  18012135.784    18012135.324    18012144.646
       229.000         197.000
  -4219858.61449  -3256818.69445  21358700.938    21358700.338    21358716.509
       217.000         160.000
 -11560693.63649  -8986420.40746  20517039.297    20517038.526    20517049.289
       231.000         187.000
  -6854662.76649  -5327188.17345  22662053.349    22662053.248    22662070.609
       208.000         152.000
 00  5  3 18 10 59.9920000  0  7G30G 4G 5G24G10G 9G 6
 -17191454.08549 -13043986.81446  20809210.330    20809210.547    20809223.304
       229.000         180.000
 -15445491.26949 -12009558.54047  19355061.645    19355061.368    19355070.500
       240.000         197.000
 -35947016.45749 -27988023.28847  18440616.578    18440615.837    18440625.054
       242.000         204.000
 -35086616.79949 -27324218.72547  18006361.469    18006360.998    18006370.283
       232.000         197.000
  -4353299.32249  -3360798.25445  21333307.957    21333307.291    21333323.385
       218.000         162.000
 -11513774.22849  -8949860.00946  20525967.806    20525967.104    20525977.915
       233.000         185.000
  -6963240.38249  -5411793.97945  22641391.793    22641391.527    22641408.848
       214.000         153.000
 00  5  3 18 11 29.9920000  0  7G30G 4G 5G24G10G 9G 6
 -17320361.17749 -13144433.75046  20784679.833    20784680.181    20784693.058
       230.000         181.000
 -15403122.78449 -11976544.20447  19363124.145    19363123.876    19363133.012
       235.000         195.000
 -36024451.13649 -28048361.98047  18425881.173    18425880.467    18425889.705
       240.000         205.000
 -35116461.84149 -27347474.63247  18000682.079    18000681.665    18000691.003
       229.000         197.000
  -4486644.10949  -3464703.06246  21307933.209    21307932.494    21307948.544
       216.000         163.000
 -11466599.96249  -8913101.01246  20534944.913    20534944.190    20534955.062
       231.000         186.000
  -7071790.55849  -5496378.40745  22620735.471    22620735.105    22620752.333
       215.000         153.000
 00  5  3 18 11 59.9920000  0  7G30G 4G 5G24G10G 9G 6
 -17449108.33149 -13244756.08446  20760180.035    20760180.338    20760193.151
       229.000         180.000
 -15360440.75249 -11943285.56647  19371246.224    19371246.008    19371255.193
       234.000         193.000
 -36101477.31349 -28108382.36447  18411223.493    18411222.845    18411232.094
       240.000         204.000
 -35145804.18849 -27370338.82447  17995098.436    17995098.002    17995107.371
       229.000         196.000
  -4619885.40549  -3568527.25545  21282577.930    21282577.359    21282593.371
       218.000         161.000
 -11419169.25249  -8876142.20746  20543970.851    20543970.099    20543981.018
       232.000         185.000
  -7180309.05549  -5580938.13145  22600084.944    22600084.682    22600101.838
       213.000         153.000
 00  5  3 18 12 29.9920000  0  7G30G 4G 5G24G10G 9G 6
 -17577701.33249 -13344958.27946  20735709.439    20735709.755    20735722.638
       231.000         181.000
 -15317456.03349 -11909791.06147  19379425.937    19379425.760    19379434.972
       236.000         196.000
 -36178101.15449 -28168089.24247  18396642.417    18396641.779    18396651.051
       241.000         204.000
 -35174653.19049 -27392818.59547  17989608.695    17989608.261    17989617.622
       230.000         197.000
  -4753028.24949  -3672274.76346  21257241.473    21257240.967    21257256.940
       218.000         164.000
 -11371493.21249  -8838992.23946  20553043.353    20553042.657    20553053.656
       231.000         185.000
  -7288804.13949  -5665479.59845  22579438.804    22579438.575    22579455.835
       215.000         154.000
 00  5  3 18 12 59.9920000  0  7G30G 4G 5G24G10G 9G 6
 -17706122.47949 -13445026.59046  20711271.806    20711271.998    20711284.753
       231.000         182.000
 -15274155.64249 -11876050.58347  19387665.753    19387665.585    19387674.868
       236.000         195.000
 -36254305.64949 -28227469.35647  18382141.158    18382140.536    18382149.780
       240.000         204.000
 -35202994.39849 -27414902.68147  17984215.544    17984215.116    17984224.483
       230.000         197.000
  -4886053.94349  -3775930.97646  21231927.495    21231926.936    21231942.832
       221.000         167.000
 -11323559.27149  -8801641.31246  20562164.999    20562164.305    20562175.359
       231.000         185.000
  -7397260.49949  -5749990.92545  22558800.039    22558799.901    22558817.195
       214.000         155.000
 00  5  3 18 13 29.9920000  0  7G30G 4G 5G24G10G 9G 6
 -17834369.29949 -13544959.02046  20686866.976    20686867.276    20686880.093
       230.000         182.000
 -15230542.10749 -11842066.09447  19395965.222    19395965.048    19395974.339
       238.000         197.000
 -36330088.56049 -28286520.96247  18367720.249    18367719.550    18367728.744
       240.000         204.000
 -35230828.85449 -27436591.88547  17978918.825    17978918.417    17978927.771
       230.000         196.000
  -5018958.99649  -3879493.19245  21206636.328    21206635.804    21206651.675
       220.000         162.000
 -11275370.32049  -8764091.67546  20571335.202    20571334.496    20571345.583
       232.000         183.000
  -7505678.00049  -5834471.94845  22538168.818    22538168.757    22538185.849
       212.000         154.000
 00  5  3 18 13 59.9920000  0  7G30G 4G 5G24G10G 9G 6
 -17962453.30249 -13644764.60646  20662493.241    20662493.584    20662506.363
       231.000         180.000
 -15186631.88349 -11807850.40647  19404321.247    19404320.995    19404330.238
       239.000         195.000
 -36405461.54749 -28345253.15947  18353377.245    18353376.537    18353385.705
       242.000         204.000
 -35258171.48549 -27457897.86047  17973715.767    17973715.314    17973724.632
       233.000         197.000
  -5151754.12049  -3982969.76645  21181366.046    21181365.576    21181381.362
       220.000         161.000
 -11226942.69949  -8726356.06546  20580550.830    20580550.102    20580561.209
       234.000         183.000
  -7614070.58549  -5918933.58845  22517542.453    22517542.293    22517559.380
       217.000         154.000
 00  5  3 18 14 29.9920000  0  7G30G 4G 5G24G10G 9G 6
 -18090375.63949 -13744444.20446  20638150.111    20638150.590    20638163.397
       231.000         182.000
 -15142430.83149 -11773408.09447  19412732.525    19412732.249    19412741.449
       234.000         192.000
 -36480426.33149 -28403667.26247  18339111.889    18339111.192    18339120.370
       241.000         204.000
 -35285026.70249 -27478824.01447  17968605.444    17968604.983    17968614.272
       231.000         198.000
  -5284439.51249  -4086360.82345  21156116.673    21156116.232    21156131.914
       218.000         161.000
 -11178282.93549  -8688439.55546  20589810.659    20589809.894    20589821.023
       231.000         184.000
  -7722441.70449  -6003378.49145  22496920.125    22496919.855    22496937.024
       216.000         154.000
 00  5  3 18 14 59.9920000  0  7G30G 4G 5G24G10G 9G 6
 -18218114.36449 -13843980.72446  20613842.117    20613842.636    20613855.405
       230.000         183.000
 -15097921.85549 -11738725.87847  19421202.282    19421202.044    19421211.315
       235.000         196.000
 -36554961.47349 -28461746.58747  18324928.330    18324927.620    18324936.775
       240.000         204.000
 -35311376.16249 -27499356.09247  17963591.296    17963590.859    17963600.204
       230.000         197.000
  -5416992.33849  -4189648.57146  21130892.699    21130892.154    21130907.767
       219.000         163.000
 -11129374.14249  -8650329.00646  20599117.881    20599117.094    20599128.221
       231.000         183.000
  -7830771.89049  -6087791.48745  22476305.440    22476305.238    22476322.379
       214.000         153.000
 00  5  3 18 15 29.9920000  0  7G30G 4G 5G24G10G 9G 6
 -18345668.87549 -13943373.70646  20589569.143    20589569.668    20589582.378
       232.000         184.000
 -15053109.51849 -11703807.26747  19429729.889    19429729.628    19429738.964
       238.000         199.000
 -36629066.82449 -28519491.00047  18310826.492    18310825.817    18310834.976
       240.000         203.000
 -35337222.71949 -27519496.28347  17958672.864    17958672.445    17958681.777
       230.000         197.000
  -5549411.15149  -4292831.91346  21105694.079    21105693.573    21105709.162
       220.000         164.000
 -11080221.22649  -8612028.23546  20608471.435    20608470.701    20608481.875
       231.000         182.000
  -7939062.89249  -6172173.95645  22455697.976    22455698.011    22455715.101
       214.000         154.000
 00  5  3 18 15 59.9920000  0  7G30G 4G 5G24G10G 9G 6
 -18473023.39949 -14042610.85646  20565334.369    20565334.820    20565347.472
       230.000         184.000
 -15007983.06149 -11668643.88547  19438317.288    19438316.990    19438326.377
       237.000         197.000
 -36702727.20649 -28576888.69247  18296809.322    18296808.686    18296817.846
       239.000         203.000
 -35362554.41349 -27539235.28047  17953852.480    17953852.019    17953861.313
       231.000         197.000
  -5681679.20649  -4395897.77246  21080524.148    21080523.650    21080539.286
       222.000         167.000
 -11030813.87849  -8573529.19946  20617873.541    20617872.728    20617883.946
       231.000         182.000
  -8047301.62849  -6256515.71445  22435100.878    22435100.802    22435117.651
       216.000         154.000
 00  5  3 18 16 29.9920000  0  7G30G 4G 5G24G10G 9G 6
 -18600172.54249 -14141687.97546  20541138.539    20541139.003    20541151.658
       234.000         184.000
 -14962541.86249 -11633235.23547  19446964.539    19446964.242    19446973.615
       237.000         193.000
 -36775937.66349 -28633935.79347  18282877.854    18282877.191    18282886.357
       240.000         203.000
 -35387368.93249 -27558571.29447  17949130.464    17949130.008    17949139.285
       232.000         197.000
  -5813790.22449  -4498841.31046  21055384.205    21055383.654    21055399.221
       223.000         169.000
 -10981151.60549  -8534831.53546  20627324.136    20627323.279    20627334.550
       232.000         181.000
  -8155484.89249  -6340814.24845  22414514.253    22414514.122    22414530.918
       213.000         153.000
 00  5  3 18 16 59.9920000  0  7G30G 4G 5G24G10G 9G 6
 -18727149.19249 -14240630.68046  20516975.547    20516976.027    20516988.661
       230.000         184.000
 -14916823.42349 -11597610.56747  19455664.474    19455664.212    19455673.585
       235.000         193.000
 -36848731.42949 -28690658.19947  18269025.697    18269025.003    18269034.114
       239.000         204.000
 -35411702.83449 -27577532.79447  17944499.882    17944499.434    17944508.722
       230.000         197.000
  -5945775.88349  -4601687.12946  21030268.165    21030267.546    21030283.054
       222.000         166.000
 -10931272.32849  -8495964.77646  20636816.005    20636815.141    20636826.464
       230.000         181.000
  -8263647.85749  -6425096.99445  22393931.202    22393931.219    22393948.066
       214.000         154.000
 00  5  3 18 17 29.9920000  0  7G30G 4G 5G24G10G 9G 6
 -18853953.10049 -14339438.78346  20492845.553    20492845.970    20492858.525
       234.000         186.000
 -14870832.67849 -11561773.72247  19464416.249    19464416.006    19464425.422
       236.000         197.000
 -36921108.66049 -28747056.02547  18255252.809    18255252.096    18255261.174
       239.000         204.000
 -35435559.40249 -27596122.35147  17939960.149    17939959.698    17939968.992
       231.000         198.000
  -6077634.99249  -4704434.34946  21005176.172    21005175.509    21005190.920
       219.000         165.000
 -10881181.13249  -8456932.88946  20646348.193    20646347.343    20646358.714
       230.000         181.000
  -8371792.62849  -6509365.55645  22373351.805    22373351.841    22373368.630
       213.000         154.000
 00  5  3 18 17 59.9920000  0  7G30G 4G 5G24G10G 9G 6
 -18980554.10949 -14438088.77746  20468754.123    20468754.509    20468766.953
       233.000         184.000
 -14824544.27349 -11525704.94547  19473224.743    19473224.485    19473233.939
       238.000         199.000
 -36993039.81349 -28803106.26047  18241564.821    18241564.056    18241573.105
       239.000         203.000
 -35458912.01949 -27614319.22147  17935516.315    17935515.881    17935525.167
       232.000         198.000
  -6209336.78649  -4807058.97845  20980113.989    20980113.343    20980128.721
       219.000         162.000
 -10830853.24949  -8417716.58246  20655925.447    20655924.568    20655935.992
       231.000         180.000
  -8479891.45949  -6593598.32945  22352781.116    22352781.145    22352797.941
       214.000         154.000
 00  5  3 18 18 29.9920000  0  7G30G 4G 5G24G10G 9G 6
 -19106936.81049 -14536568.67446  20444704.248    20444704.628    20444716.966
       235.000         187.000
 -14777947.87749 -11489396.17347  19482091.857    19482091.588    19482101.076
       239.000         196.000
 -37064510.12549 -28858797.40447  18227964.433    18227963.690    18227972.714
       240.000         203.000
 -35481749.14449 -27632114.40547  17931170.625    17931170.159    17931179.427
       232.000         198.000
  -6340864.83049  -4909548.22946  20955084.837    20955084.253    20955099.556
       219.000         165.000
 -10780278.74549  -8378308.09846  20665549.610    20665548.713    20665560.235
       231.000         180.000
  -8587931.71749  -6677785.44845  22332221.626    22332221.603    22332238.441
       214.000         153.000
 00  5  3 18 18 59.9920000  0  7G30G 4G 5G24G10G 9G 6
 -19233132.64849 -14634902.96746  20420689.850    20420690.253    20420702.610
       234.000         185.000
 -14731079.84949 -11452875.73347  19491010.575    19491010.316    19491019.833
       237.000         192.000
 -37135551.53449 -28914154.32947  18214445.642    18214444.942    18214453.938
       240.000         203.000
 -35504105.76549 -27649535.17747  17926916.289    17926915.854    17926925.095
       234.000         196.000
  -6472249.75149  -5011925.98046  20930082.962    20930082.394    20930097.653
       223.000         168.000
 -10729494.31349  -8338736.05946  20675213.547    20675212.767    20675224.408
       229.000         178.000
  -8695947.15249  -6761953.20745  22311666.855    22311666.801    22311683.607
       216.000         154.000
 00  5  3 18 19 29.9920000  0  7G30G 4G 5G24G10G 9G 6
 -19359139.49349 -14733089.98546  20396711.618    20396711.879    20396724.179
       234.000         187.000
 -14683942.85949 -11416145.66747  19499980.580    19499980.287    19499989.751
       236.000         192.000
 -37206162.49749 -28969175.83547  18201008.814    18201008.109    18201017.073
       238.000         203.000
 -35525983.36649 -27666582.67547  17922753.117    17922752.677    17922761.920
       231.000         196.000
  -6603488.12449  -5114189.50446  20905109.151    20905108.508    20905123.719
       223.000         170.000
 -10678502.71349  -8299002.56046  20684917.005    20684916.267    20684928.013
       229.000         178.000
  -8803937.91849  -6846101.74945  22291116.834    22291116.747    22291133.523
       212.000         154.000
 00  5  3 18 19 59.9920000  0  7G30G 4G 5G24G10G 9G 6
 -19484974.39349 -14831143.01546  20372765.828    20372766.173    20372778.515
       232.000         187.000
 -14636559.00849 -11379223.28347  19508997.468    19508997.192    19509006.649
       234.000         191.000
 -37276360.53049 -29023875.58247  18187650.512    18187649.842    18187658.802
       238.000         203.000
 -35547402.66349 -27683273.06747  17918677.152    17918676.720    17918685.988
       231.000         197.000
  -6734596.43549  -5216351.68846  20880160.113    20880159.379    20880174.527
       219.000         170.000
 -10627326.46149  -8259125.20446  20694655.648    20694654.912    20694666.738
       229.000         178.000
  -8911923.47949  -6930246.25745  22270567.564    22270567.700    22270584.460
       212.000         153.000
 00  5  3 18 20 29.9920000  0  7G30G 4G 5G24G10G 9G 6
 -19610588.55549 -14929024.06546  20348862.152    20348862.507    20348874.836
       234.000         187.000
 -14588884.33149 -11342074.28447  19518069.706    19518069.424    19518078.945
       235.000         193.000
 -37346097.74949 -29078216.25747  18174379.934    18174379.276    18174388.240
       238.000         203.000
 -35568318.50549 -27699571.15747  17914696.963    17914696.576    17914705.867
       231.000         197.000
  -6865524.86749  -5318373.70646  20855245.094    20855244.397    20855259.568
       219.000         169.000
 -10575922.32349  -8219070.25446  20704437.746    20704436.937    20704448.824
       228.000         177.000
  -9019857.65349  -7014350.69445  22250028.554    22250028.511    22250045.168
       213.000         154.000
 00  5  3 18 20 59.9920000  0  7G30G 4G 5G24G10G 9G 6
 -19735995.93849 -15026743.97247  20324997.823    20324998.128    20325010.472
       235.000         188.000
 -14540937.96849 -11304713.59047  19527193.627    19527193.379    19527202.951
       237.000         196.000
 -37415388.85349 -29132209.31947  18161194.217    18161193.587    18161202.569
       239.000         204.000
 -35588748.95449 -27715491.02347  17910809.231    17910808.810    17910818.106
       232.000         197.000
  -6996286.71249  -5420265.90546  20830361.779    20830361.057    20830376.288
       218.000         165.000
 -10524309.83649  -8178852.97846  20714259.430    20714258.605    20714270.572
       230.000         177.000
  -9127756.98449  -7098427.99145  22229495.990    22229495.891    22229512.507
       213.000         156.000
 00  5  3 18 21 29.9920000  0  7G30G 4G 5G24G10G 9G 6
 -19861212.85349 -15124315.47247  20301169.897    20301170.114    20301182.304
       233.000         188.000
 -14492740.92749 -11267157.52347  19536365.353    19536365.061    19536374.645
       238.000         196.000
 -37484250.57449 -29185867.78547  18148090.279    18148089.637    18148098.630
       238.000         203.000
 -35608713.71649 -27731048.01347  17907010.053    17907009.637    17907018.962
       231.000         197.000
  -7126897.35349  -5522040.28846  20805507.135    20805506.542    20805521.734
       220.000         166.000
 -10472510.00549  -8138489.68946  20724116.762    20724115.924    20724127.961
       228.000         177.000
  -9235640.00949  -7182492.58345  22208966.367    22208966.253    22208983.032
       213.000         155.000
 00  5  3 18 21 59.9920000  0  7G30G 4G 5G24G10G 9G 6
 -19986225.91849 -15221728.11747  20277380.446    20277380.748    20277393.014
       234.000         189.000
 -14444285.12049 -11229399.84647  19545586.269    19545585.973    19545595.599
       235.000         195.000
 -37552670.23849 -29239181.80747  18135070.394    18135069.778    18135078.773
       237.000         203.000
 -35628203.21149 -27746234.66947  17903301.340    17903300.924    17903310.259
       231.000         198.000
  -7257342.55549  -5623685.77046  20780684.154    20780683.556    20780698.631
       221.000         168.000
 -10420515.04149  -8097974.37746  20734011.193    20734010.389    20734022.472
       230.000         177.000
  -9343496.00149  -7266536.12245  22188441.971    22188441.840    22188458.659
       213.000         156.000
 00  5  3 18 22 29.9920000  0  7G30G 4G 5G24G10G 9G 6
 -20111025.47549 -15318974.39147  20253631.706    20253632.072    20253644.352
       234.000         189.000
 -14395565.72849 -11191436.78347  19554857.337    19554857.035    19554866.701
       232.000         190.000
 -37620638.79349 -29292144.31247  18122136.392    18122135.775    18122144.769
       238.000         203.000
 -35647211.69549 -27761046.50947  17899684.221    17899683.762    17899693.091
       232.000         198.000
  -7387611.73849  -5725194.08846  20755894.795    20755894.091    20755909.036
       221.000         170.000
 -10368320.67649  -8057303.67246  20743943.728    20743942.853    20743954.923
       228.000         177.000
  -9451317.76549  -7350552.96245  22167924.132    22167923.998    22167940.813
       215.000         157.000
 00  5  3 18 22 59.9920000  0  7G30G 4G 5G24G10G 9G 6
 -20235604.83049 -15416049.07847  20229924.818    20229925.271    20229937.567
       234.000         188.000
 -14346580.71149 -11153266.74447  19564178.773    19564178.548    19564188.303
       234.000         188.000
 -37688150.18949 -29344750.59447  18109289.358    18109288.751    18109297.734
       239.000         203.000
 -35665736.32649 -27775481.32547  17896159.103    17896158.659    17896167.992
       232.000         197.000
  -7517697.21249  -5826559.25546  20731140.289    20731139.563    20731154.452
       220.000         170.000
 -10315925.42249  -8016476.45446  20753914.450    20753913.522    20753925.617
       230.000         176.000
  -9559100.84049  -7434539.65445  22147413.692    22147413.543    22147430.278
       217.000         158.000
 00  5  3 18 23 29.9920000  0  7G30G 4G 5G24G10G 9G 6
 -20359947.36449 -15512939.21647  20206263.009    20206263.508    20206275.809
       235.000         188.000
 -14297318.75249 -11114880.86047  19573553.141    19573552.877    19573562.584
       239.000         195.000
 -37755188.43749 -29396988.18747  18096532.448    18096531.828    18096540.751
       238.000         203.000
 -35683764.17549 -27789529.03547  17892728.455    17892728.049    17892737.412
       230.000         196.000
  -7647581.47449  -5927767.62046  20706423.943    20706423.255    20706438.198
       219.000         170.000
 -10263318.03049  -7975483.92246  20763925.544    20763924.547    20763936.688
       228.000         176.000
  -9666831.01949  -7518485.13345  22126913.374    22126913.137    22126929.814
       214.000         159.000
 00  5  3 18 23 59.9920000  0  7G30G 4G 5G24G10G 9G 6
 -20484083.79649 -15609668.76746  20182640.530    20182641.052    20182653.302
       232.000         187.000
 -14247815.55549 -11076307.00547  19582973.519    19582973.179    19582982.830
       239.000         198.000
 -37821785.23249 -29448881.80047  18083859.560    18083858.895    18083867.794
       238.000         203.000
 -35701329.96849 -27803216.70647  17889385.774    17889385.406    17889394.780
       230.000         197.000
  -7777294.51549  -6028842.55946  20681740.101    20681739.550    20681754.515
       219.000         169.000
 -10210534.86549  -7934354.42846  20773970.026    20773969.042    20773981.172
       229.000         176.000
  -9774541.84949  -7602415.54845  22106416.628    22106416.471    22106433.127
       217.000         160.000
 00  5  3 18 24 29.9920000  0  7G30G 4G 5G24G10G 9G 6
 -20608005.21649 -15706230.77247  20159058.885    20159059.424    20159071.686
       235.000         189.000
 -14198066.86049 -11037541.89047  19592440.488    19592440.137    19592449.821
       235.000         194.000
 -37887932.22549 -29500424.91847  18071272.225    18071271.548    18071280.461
       239.000         204.000
 -35718428.38649 -27816540.19547  17886132.161    17886131.746    17886141.105
       232.000         197.000
  -7906826.33349  -6129776.27746  20657090.932    20657090.333    20657105.283
       222.000         170.000
 -10157572.12849  -7893085.01146  20784048.705    20784047.705    20784059.852
       228.000         176.000
  -9882226.57549  -7686325.60645  22085925.022    22085924.750    22085941.343
       216.000         160.000
 00  5  3 18 24 59.9920000  0  7G30G 4G 5G24G10G 9G 6
 -20731722.72149 -15802633.88747  20135516.351    20135516.741    20135528.873
       236.000         189.000
 -14148088.83749 -10998598.09347  19601950.919    19601950.647    19601960.430
       234.000         191.000
 -37953641.28049 -29551626.77447  18058768.205    18058767.535    18058776.478
       239.000         203.000
 -35735074.42249 -27829511.16447  17882964.593    17882964.148    17882973.506
       233.000         197.000
  -8036187.35549  -6230576.91146  20632474.453    20632473.712    20632488.541
       223.000         171.000
 -10104446.17549  -7851688.40546  20794158.366    20794157.420    20794169.604
       228.000         176.000
  -9989899.01549  -7770226.07845  22065435.565    22065435.288    22065451.814
       216.000         159.000
 00  5  3 18 25 29.9920000  0  7G30G 4G 5G24G10G 9G 6
 -20855202.84549 -15898852.02547  20112018.721    20112019.124    20112031.237
       234.000         189.000
 -14097853.02249 -10959453.39146  19611510.496    19611510.260    19611520.059
       233.000         187.000
 -38018879.66149 -29602461.88447  18046353.778    18046353.084    18046362.037
       238.000         204.000
 -35751238.66549 -27842106.72547  17879888.598    17879888.206    17879897.553
       231.000         197.000
  -8165343.36849  -6331217.80846  20607896.885    20607896.066    20607910.890
       220.000         172.000
 -10051128.86449  -7810142.69746  20804304.465    20804303.547    20804315.805
       227.000         177.000
 -10097528.06749  -7854092.76445  22044954.082    22044954.060    22044970.455
       215.000         159.000
 00  5  3 18 25 59.9920000  0  7G30G 4G 5G24G10G 9G 6
 -20978459.53549 -15994896.07347  20088563.758    20088564.106    20088576.095
       235.000         189.000
 -14047378.36149 -10920122.54446  19621115.587    19621115.343    19621125.068
       234.000         186.000
 -38083662.33649 -29652941.89447  18034026.036    18034025.362    18034034.296
       237.000         203.000
 -35766939.09649 -27854340.86847  17876900.930    17876900.540    17876909.869
       232.000         197.000
  -8294307.27249  -6431709.00146  20583355.713    20583354.935    20583369.755
       221.000         169.000
  -9997639.78649  -7768463.14946  20814483.245    20814482.354    20814494.665
       228.000         176.000
 -10205130.18549  -7937938.42945  22024477.875    22024477.903    22024494.273
       215.000         160.000
 00  5  3 18 26 29.9920000  0  7G30G 4G 5G24G10G 9G 6
 -21101471.74349 -16090749.61447  20065155.164    20065155.521    20065167.533
       235.000         189.000
 -13996648.72949 -10880593.03247  19630769.175    19630768.946    19630778.664
       235.000         192.000
 -38147968.80849 -29703050.83447  18021788.911    18021788.226    18021797.183
       237.000         203.000
 -35782158.40649 -27866200.10747  17874004.930    17874004.469    17874013.765
       233.000         197.000
  -8423057.27549  -6532033.52346  20558855.191    20558854.458    20558869.265
       219.000         170.000
  -9943963.13149  -7726637.44446  20824697.821    20824696.861    20824709.254
       227.000         176.000
 -10312686.69849  -8021748.57245  22004010.618    22004010.495    22004026.802
       217.000         160.000
 00  5  3 18 26 59.9920000  0  7G30G 4G 5G24G10G 9G 6
 -21224244.98449 -16186416.95747  20041792.047    20041792.442    20041804.393
       236.000         190.000
 -13945674.64749 -10840873.05347  19640469.323    19640469.076    19640478.842
       238.000         196.000
 -38211805.40849 -29752793.64447  18009641.217    18009640.527    18009649.476
       238.000         203.000
 -35796905.99549 -27877691.77647  17871198.584    17871198.108    17871207.385
       233.000         198.000
  -8551598.03249  -6632194.97946  20534394.599    20534393.873    20534408.586
       222.000         171.000
  -9890109.68149  -7684673.98646  20834945.959    20834945.029    20834957.487
       229.000         176.000
 -10420205.49549  -8105529.34945  21983550.292    21983550.233    21983566.538
       218.000         161.000
 00  5  3 18 27 29.9920000  0  7G30G 4G 5G24G10G 9G 6
 -21346768.75049 -16281889.88947  20018476.366    20018476.835    20018488.786
       235.000         190.000
 -13894450.25249 -10800958.01647  19650217.099    19650216.836    19650226.659
       234.000         192.000
 -38275162.43849 -29802162.75647  17997584.698    17997584.051    17997593.048
       237.000         203.000
 -35811175.31549 -27888810.76547  17868483.199    17868482.748    17868492.079
       232.000         198.000
  -8679917.94549  -6732184.35746  20509976.009    20509975.302    20509989.953
       220.000         170.000
  -9836074.20049  -7642568.67846  20845228.837    20845227.850    20845240.361
       228.000         176.000
 -10527678.56049  -8189274.46045  21963098.693    21963098.715    21963115.020
       215.000         160.000
 00  5  3 18 27 59.9920000  0  7G30G 4G 5G24G10G 9G 6
 -21469037.88149 -16377164.42147  19995209.211    19995209.673    19995221.569
       235.000         189.000
 -13842975.82649 -10760848.17746  19660012.260    19660012.083    19660022.012
       230.000         187.000
 -38338035.78249 -29851154.97447  17985620.240    17985619.618    17985628.664
       236.000         203.000
 -35824965.49649 -27899556.40147  17865859.032    17865858.594    17865867.930
       232.000         198.000
  -8808011.47149  -6831997.34246  20485600.452    20485599.765    20485614.420
       220.000         171.000
  -9781857.37049  -7600322.05446  20855546.254    20855545.193    20855557.723
       226.000         176.000
 -10635103.56949  -8272982.11445  21942656.167    21942656.276    21942672.624
       215.000         160.000
 00  5  3 18 28 29.9920000  0  7G30G 4G 5G24G10G 9G 6
 -21591049.74449 -16472238.47647  19971991.063    19971991.509    19972003.354
       236.000         190.000
 -13791253.70949 -10720545.31647  19669854.607    19669854.469    19669864.468
       232.000         189.000
 -38400423.87049 -29899769.06947  17973748.199    17973747.560    17973756.613
       237.000         204.000
 -35838277.86749 -27909929.71747  17863325.805    17863325.358    17863334.704
       231.000         197.000
  -8935875.10749  -6931631.19446  20461268.635    20461268.002    20461282.592
       220.000         171.000
  -9727461.85349  -7557936.21046  20865897.587    20865896.549    20865909.116
       227.000         176.000
 -10742480.20349  -8356652.07545  21922222.980    21922223.088    21922239.426
       214.000         160.000
 00  5  3 18 28 59.9920000  0  7G30G 4G 5G24G10G 9G 6
 -21712842.69949 -16567141.96047  19948814.551    19948814.968    19948826.801
       235.000         189.000
 -13739327.04849 -10680083.05547  19679736.014    19679735.849    19679745.834
       235.000         192.000
 -38462365.88749 -29948035.57747  17961961.058    17961960.398    17961969.448
       237.000         203.000
 -35851154.84449 -27919963.76947  17860875.430    17860874.983    17860884.299
       233.000         198.000
  -9063546.36749  -7031115.13646  20436973.459    20436972.835    20436987.355
       221.000         169.000
  -9672931.23249  -7515445.08446  20876274.626    20876273.607    20876286.226
       227.000         175.000
 -10849849.28949  -8440316.15145  21901791.394    21901791.375    21901807.633
       215.000         160.000
 00  5  3 18 29 29.9910000  0  7G30G 4G 5G24G10G 9G 6
 -21834382.69949 -16661848.33747  19925686.192    19925686.603    19925698.341
       237.000         190.000
 -13687172.50849 -10639443.23647  19689660.789    19689660.593    19689670.591
       234.000         191.000
 -38523830.31149 -29995929.93347  17950264.909    17950264.148    17950273.138
       238.000         203.000
 -35863569.83849 -27929637.82747  17858512.950    17858512.530    17858521.844
       234.000         198.000
  -9190990.02149  -7130421.74446  20412721.539    20412720.956    20412735.495
       220.000         172.000
  -9618242.66949  -7472830.89346  20886681.747    20886680.681    20886693.378
       226.000         175.000
 -10957179.64249  -8523950.03545  21881366.965    21881367.039    21881383.253
       216.000         161.000
 00  5  3 18 29 59.9910000  0  7G30G 4G 5G24G10G 9G 6
 -21955676.77149 -16756363.08647  19902604.681    19902605.029    19902616.735
       235.000         191.000
 -13634790.51149 -10598626.17046  19699628.747    19699628.592    19699638.632
       232.000         186.000
 -38584821.24749 -30043455.32847  17938658.690    17938657.953    17938666.937
       237.000         203.000
 -35875526.54849 -27938954.76847  17856237.788    17856237.296    17856246.567
       234.000         199.000
  -9318212.85049  -7229556.27946  20388511.738    20388511.165    20388525.676
       220.000         174.000
  -9563396.98949  -7430094.26346  20897118.700    20897117.645    20897130.442
       227.000         175.000
 -11064479.97849  -8607560.53245  21860948.396    21860948.373    21860964.611
       216.000         161.000
